[[{"header":{"parameterUnit":"m.s-1","parameterCategory":1,"la1":30.6,"la2":28.766,"lo1":-90.7593,"lo2":-88.6598,"dy":0.0162,"dx":0.0183,"nx":116,"ny":114,"refTime":"2023-06-17T12:00:00:Z","depth":0,"parameterNumber":2,"parameterNumberName":"U-component_of_WINDS"},"data":[0.0,0.0,0.0,0.0,0.0,0.0,0.0,0.0,0.0,0.0,0.0,0.0,0.0,0.0,0.0,0.0,0.0,0.0,0.0,0.0,0.0,0.0,0.0,0.0,0.0,0.0,0.0,0.0,0.0,0.0,0.0,0.0,0.0,0.0,0.0,0.0,0.0,0.0,0.0,0.0,0.0,0.0,0.0,0.0,0.0,0.0,0.0,0.0,0.0,0.0,0.0,0.0,0.0,0.0,0.0,0.0,0.0,0.0,0.0,0.0,0.0,0.0,0.0,0.0,0.0,0.0,0.0,0.0,0.0,0.0,0.0,0.0,0.0,0.0,0.0,0.0,0.0,0.0,0.0,0.0,0.0,0.0,0.0,0.0,0.0,0.0,0.0,0.0,0.0,0.0,0.0,0.0,0.0,0.0,0.0,0.0,0.0,0.0,0.0,0.0,0.0,0.0,0.0,0.0,0.0,0.0,0.0,0.0,0.0,0.0,0.0,0.0,0.0,0.0,0.0,0.0,0.0,0.0,0.0,0.0,0.0,0.0,0.0,0.0,0.0,0.0,0.0,0.0,0.0,0.0,0.0,0.0,0.0,0.0,0.0,0.0,0.0,0.0,0.0,0.0,0.0,0.0,0.0,0.0,0.0,0.0,0.0,0.0,0.0,0.0,0.0,0.0,0.0,0.0,0.0,0.0,0.0,0.0,0.0,0.0,0.0,0.0,0.0,0.0,0.0,0.0,0.0,0.0,0.0,0.0,0.0,0.0,0.0,0.0,0.0,0.0,0.0,0.0,0.0,0.0,0.0,0.0,0.0,0.0,0.0,0.0,0.0,0.0,0.0,0.0,0.0,0.0,0.0,0.0,0.0,0.0,0.0,0.0,0.0,0.0,0.0,0.0,0.0,0.0,0.0,0.0,0.0,0.0,0.0,0.0,0.0,0.0,0.0,0.0,0.0,0.0,0.0,0.0,0.0,0.0,0.0,0.0,0.0,0.0,0.0,0.0,0.0,0.0,0.0,0.0,0.0,0.0,0.0,0.0,0.0,0.0,0.0,0.0,0.0,0.0,0.0,0.0,0.0,0.0,0.0,0.0,0.0,0.0,0.0,0.0,0.0,0.0,0.0,0.0,0.0,0.0,0.0,0.0,0.0,0.0,0.0,0.0,0.0,0.0,0.0,0.0,0.0,0.0,0.0,0.0,0.0,0.0,0.0,0.0,0.0,0.0,0.0,0.0,0.0,0.0,0.0,0.0,0.0,0.0,0.0,0.0,0.0,0.0,0.0,0.0,0.0,0.0,0.0,0.0,0.0,0.0,0.0,0.0,0.0,0.0,0.0,0.0,0.0,0.0,0.0,0.0,0.0,0.0,0.0,0.0,0.0,0.0,0.0,0.0,0.0,0.0,0.0,0.0,0.0,0.0,0.0,0.0,0.0,0.0,0.0,0.0,0.0,0.0,0.0,0.0,0.0,0.0,0.0,0.0,0.0,0.0,0.0,0.0,0.0,0.0,0.0,0.0,0.0,0.0,0.0,0.0,0.0,0.0,0.0,0.0,0.0,0.0,0.0,0.0,0.0,0.0,0.0,0.0,0.0,0.0,0.0,0.0,0.0,0.0,0.0,0.0,0.0,0.0,0.0,0.0,0.0,0.0,0.0,0.0,0.0,0.0,0.0,0.0,0.0,0.0,0.0,0.0,0.0,0.0,0.0,0.0,0.0,0.0,0.0,0.0,0.0,0.0,0.0,0.0,0.0,0.0,0.0,0.0,0.0,0.0,0.0,0.0,0.0,0.0,0.0,0.0,0.0,0.0,0.0,0.0,0.0,0.0,0.0,0.0,0.0,0.0,0.0,0.0,0.0,0.0,0.0,0.0,0.0,0.0,0.0,0.0,0.0,0.0,0.0,0.0,0.0,0.0,0.0,0.0,0.0,0.0,0.0,0.0,0.0,0.0,0.0,0.0,0.0,0.0,0.0,0.0,0.0,0.0,0.0,0.0,0.0,0.0,0.0,0.0,0.0,0.0,0.0,0.0,0.0,0.0,0.0,0.0,0.0,0.0,0.0,0.0,0.0,0.0,0.0,0.0,0.0,0.0,0.0,0.0,0.0,0.0,0.0,0.0,0.0,0.0,0.0,0.0,0.0,0.0,0.0,0.0,0.0,0.0,0.0,0.0,0.0,0.0,0.0,0.0,0.0,0.0,0.0,0.0,0.0,0.0,0.0,0.0,0.0,0.0,0.0,0.0,0.0,0.0,0.0,0.0,0.0,0.0,0.0,0.0,0.0,0.0,0.0,0.0,0.0,0.0,0.0,0.0,0.0,0.0,0.0,0.0,0.0,0.0,0.0,0.0,0.0,0.0,0.0,0.0,0.0,0.0,0.0,0.0,0.0,0.0,0.0,0.0,0.0,0.0,0.0,0.0,0.0,0.0,0.0,0.0,0.0,0.0,0.0,0.0,0.0,0.0,0.0,0.0,0.0,0.0,0.0,0.0,0.0,0.0,0.0,0.0,0.0,0.0,0.0,0.0,0.0,0.0,0.0,0.0,0.0,0.0,0.0,0.0,0.0,0.0,0.0,0.0,0.0,0.0,0.0,0.0,0.0,0.0,0.0,0.0,0.0,0.0,0.0,0.0,0.0,0.0,0.0,0.0,0.0,0.0,0.0,0.0,0.0,0.0,0.0,0.0,0.0,0.0,0.0,0.0,0.0,0.0,0.0,0.0,0.0,0.0,0.0,0.0,0.0,0.0,0.0,0.0,0.0,0.0,0.0,0.0,0.0,0.0,0.0,0.0,0.0,0.0,0.0,0.0,0.0,0.0,0.0,0.0,0.0,0.0,0.0,0.0,0.0,0.0,0.0,0.0,0.0,0.0,0.0,0.0,0.0,0.0,0.0,0.0,0.0,0.0,0.0,0.0,0.0,0.0,0.0,0.0,0.0,0.0,0.0,0.0,0.0,0.0,0.0,0.0,0.0,0.0,0.0,0.0,0.0,0.0,0.0,0.0,0.0,0.0,0.0,0.0,0.0,0.0,0.0,0.0,0.0,0.0,0.0,0.0,0.0,0.0,0.0,0.0,0.0,0.0,0.0,0.0,0.0,0.0,0.0,0.0,0.0,0.0,0.0,0.0,0.0,0.0,0.0,0.0,0.0,0.0,0.0,0.0,0.0,0.0,0.0,0.0,0.0,0.0,0.0,0.0,0.0,0.0,0.0,0.0,0.0,0.0,0.0,0.0,0.0,0.0,0.0,0.0,0.0,0.0,0.0,0.0,0.0,0.0,0.0,0.0,0.0,0.0,0.0,0.0,0.0,0.0,0.0,0.0,0.0,0.0,0.0,0.0,0.0,0.0,0.0,0.0,0.0,0.0,0.0,0.0,0.0,0.0,0.0,0.0,0.0,0.0,0.0,0.0,0.0,0.0,0.0,0.0,0.0,0.0,0.0,0.0,0.0,0.0,0.0,0.0,0.0,0.0,0.0,0.0,0.0,0.0,0.0,0.0,0.0,0.0,0.0,0.0,0.0,0.0,0.0,0.0,0.0,0.0,0.0,0.0,0.0,0.0,0.0,0.0,0.0,0.0,0.0,0.0,0.0,0.0,0.0,0.0,0.0,0.0,0.0,0.0,0.0,0.0,0.0,0.0,0.0,0.0,0.0,0.0,0.0,0.0,0.0,0.0,0.0,0.0,0.0,0.0,0.0,0.0,0.0,0.0,0.0,0.0,0.0,0.0,0.0,0.0,0.0,0.0,0.0,0.0,0.0,0.0,0.0,0.0,0.0,0.0,0.0,0.0,0.0,0.0,0.0,0.0,0.0,0.0,0.0,0.0,0.0,0.0,0.0,0.0,0.0,0.0,0.0,0.0,0.0,0.0,0.0,0.0,0.0,0.0,0.0,0.0,0.0,0.0,0.0,0.0,0.0,0.0,0.0,0.0,0.0,0.0,0.0,0.0,0.0,0.0,0.0,0.0,0.0,0.0,0.0,0.0,0.0,0.0,0.0,0.0,0.0,0.0,0.0,0.0,0.0,0.0,0.0,0.0,0.0,0.0,0.0,0.0,0.0,0.0,0.0,0.0,0.0,0.0,0.0,0.0,0.0,0.0,0.0,0.0,0.0,0.0,0.0,0.0,0.0,0.0,0.0,0.0,0.0,0.0,0.0,0.0,0.0,0.0,0.0,0.0,0.0,0.0,0.0,0.0,0.0,0.0,0.0,0.0,0.0,0.0,0.0,0.0,0.0,0.0,0.0,0.0,0.0,0.0,0.0,0.0,0.0,0.0,0.0,0.0,0.0,0.0,0.0,0.0,0.0,0.0,0.0,0.0,0.0,0.0,0.0,0.0,0.0,0.0,0.0,0.0,0.0,0.0,0.0,0.0,0.0,0.0,0.0,0.0,0.0,0.0,0.0,0.0,0.0,0.0,0.0,0.0,0.0,0.0,0.0,0.0,0.0,0.0,0.0,0.0,0.0,0.0,0.0,0.0,0.0,0.0,0.0,0.0,0.0,0.0,0.0,0.0,0.0,0.0,0.0,0.0,0.0,0.0,0.0,0.0,0.0,0.0,0.0,0.0,0.0,0.0,0.0,0.0,0.0,0.0,0.0,0.0,0.0,0.0,0.0,0.0,0.0,0.0,0.0,0.0,0.0,0.0,0.0,0.0,0.0,0.0,0.0,0.0,0.0,0.0,0.0,0.0,0.0,0.0,0.0,0.0,0.0,0.0,0.0,0.0,0.0,0.0,0.0,0.0,0.0,0.0,0.0,0.0,0.0,0.0,0.0,0.0,0.0,0.0,0.0,0.0,0.0,0.0,0.0,0.0,0.0,0.0,0.0,0.0,0.0,0.0,0.0,0.0,0.0,0.0,0.0,0.0,0.0,0.0,0.0,0.0,0.0,0.0,0.0,0.0,0.0,0.0,0.0,0.0,0.0,0.0,0.0,0.0,0.0,0.0,0.0,0.0,0.0,0.0,0.0,0.0,0.0,0.0,0.0,0.0,0.0,0.0,0.0,0.0,0.0,0.0,0.0,0.0,0.0,0.0,0.0,0.0,0.0,0.0,0.0,0.0,0.0,0.0,0.0,0.0,0.0,0.0,0.0,0.0,0.0,0.0,0.0,0.0,0.0,0.0,0.0,0.0,0.0,0.0,0.0,0.0,0.0,0.0,0.0,0.0,0.0,0.0,0.0,0.0,0.0,0.0,0.0,0.0,0.0,0.0,0.0,0.0,0.0,0.0,0.0,0.0,0.0,0.0,0.0,0.0,0.0,0.0,0.0,0.0,0.0,0.0,0.0,0.0,0.0,0.0,0.0,0.0,0.0,0.0,0.0,0.0,0.0,0.0,0.0,0.0,0.0,0.0,0.0,0.0,0.0,0.0,0.0,0.0,0.0,0.0,0.0,0.0,0.0,0.0,0.0,0.0,0.0,0.0,0.0,0.0,0.0,0.0,0.0,0.0,0.0,0.0,0.0,0.0,0.0,0.0,0.0,0.0,0.0,0.0,0.0,0.0,0.0,0.0,0.0,0.0,0.0,0.0,0.0,0.0,0.0,0.0,0.0,0.0,0.0,0.0,0.0,0.0,0.0,0.0,0.0,0.0,0.0,0.0,0.0,0.0,0.0,0.0,0.0,0.0,0.0,0.0,0.0,0.0,0.0,0.0,0.0,0.0,0.0,0.0,0.0,0.0,0.0,0.0,0.0,0.0,0.0,0.0,0.0,0.0,0.0,0.0,0.0,0.0,0.0,0.0,0.0,0.0,0.0,0.0,0.0,0.0,0.0,0.0,0.0,0.0,0.0,0.0,0.0,0.0,0.0,0.0,0.0,0.0,0.0,0.0,0.0,0.0,0.0,0.0,0.0,0.0,0.0,0.0,0.0,0.0,0.0,0.0,0.0,0.0,0.0,0.0,0.0,0.0,0.0,0.0,0.0,0.0,0.0,0.0,0.0,0.0,0.0,0.0,0.0,0.0,0.0,0.0,0.0,0.0,0.0,0.0,0.0,0.0,0.0,0.0,0.0,0.0,0.0,0.0,0.0,0.0,0.0,0.0,0.0,0.0,0.0,0.0,0.0,0.0,0.0,0.0,0.0,0.0,0.0,0.0,0.0,0.0,-0.6606,-0.5594,0.0,0.0,0.0,0.0,0.0,0.0,0.0,0.0,0.0,0.0,0.0,0.0,0.0,0.0,0.0,0.0,0.0,0.0,0.0,0.0,0.0,0.0,0.0,0.0,0.0,0.0,0.0,0.0,0.0,0.0,0.0,0.0,0.0,0.0,0.0,0.0,0.0,0.0,1.2543,1.3395,1.4628,1.4512,1.4314,1.4028,0.0,0.0,0.0,0.0,0.0,0.0,0.0,0.0,0.0,0.0,0.0,0.0,0.0,0.0,0.0,0.0,0.0,0.0,0.0,0.0,0.0,0.0,0.0,0.0,0.0,0.0,0.0,0.0,0.0,0.0,0.0,0.0,0.0,0.0,0.0,0.0,0.0,0.0,0.0,0.0,0.0,0.0,0.0,0.0,0.0,0.0,0.0,0.0,0.0,0.0,0.0,0.0,0.0,0.0,0.0,0.0,0.0,0.0,0.0,0.0,0.0,0.0,0.0,0.0,0.0,0.0,0.0,0.0,0.0,0.0,-0.9778,-0.8414,0.0,0.0,0.0,0.0,0.0,0.0,0.0,0.0,0.0,0.0,0.0,0.0,0.0,0.0,0.0,0.0,0.0,0.0,0.0,0.0,0.0,0.0,0.0,0.0,1.0877,1.1735,1.1152,1.1035,0.0,0.0,0.0,0.0,0.0,0.0,0.0,1.1655,1.2225,1.3242,1.4389,1.5732,1.726,1.8069,1.78,1.6614,1.5323,0.0,0.0,0.0,0.0,0.0,0.0,0.0,0.0,0.0,0.0,0.0,0.0,0.0,0.0,0.0,0.0,0.0,0.0,0.0,0.0,0.0,0.0,0.0,0.0,0.0,0.0,0.0,0.0,0.0,0.0,0.0,0.0,0.0,0.0,0.0,0.0,0.0,0.0,0.0,0.0,0.0,0.0,0.0,0.0,0.0,0.0,0.0,0.0,0.0,0.0,0.0,0.0,0.0,0.0,0.0,0.0,0.0,0.0,0.0,0.0,0.0,0.0,0.0,-1.2396,-1.3231,-1.4034,-1.4885,-1.5718,-1.6399,-1.3806,-1.221,-1.1473,-1.0723,0.0,0.0,0.0,0.0,0.0,0.0,0.0,0.0,0.0,0.0,0.0,0.0,0.0,0.0,0.0,0.0,0.0,0.0,0.0,0.0,0.0,1.0904,1.1762,1.2566,1.2548,1.2513,0.0,0.0,0.0,0.0,0.0,0.0,1.1503,1.2243,1.3408,1.4976,1.7241,1.8838,1.9827,2.0573,2.122,2.1617,1.8648,1.7301,1.7217,0.0,0.0,0.0,0.0,0.0,0.0,0.0,0.0,0.0,0.0,0.0,0.0,0.0,0.0,0.0,0.0,0.0,0.0,0.0,0.0,0.0,0.0,0.0,0.0,0.0,0.0,0.0,0.0,0.0,0.0,0.0,0.0,0.0,0.0,0.0,0.0,0.0,0.0,0.0,0.0,0.0,-0.3176,-0.285,0.0,0.0,0.0,0.0,0.0,0.0,0.0,0.0,0.0,0.0,0.0,0.0,0.0,-1.0432,-1.2038,-1.2627,-1.3523,-1.4697,-1.5585,-1.6555,-1.7627,-1.8398,-1.9295,-2.0176,-2.007,0.0,-1.5137,-1.4048,0.0,0.0,0.0,0.0,0.0,0.0,0.0,0.0,0.0,0.0,0.0,0.0,0.0,0.0,0.0,0.0,0.0,0.0,0.0,0.0,0.0,1.1741,1.2807,1.4097,1.3342,1.3212,1.4199,1.3334,0.0,0.0,0.0,1.2836,1.2902,1.3762,1.5478,1.8045,1.9559,2.0955,2.2212,2.2547,2.3138,2.385,2.1998,2.0444,1.9136,1.7932,0.0,0.0,0.0,0.0,0.0,0.0,0.0,0.0,0.0,0.0,0.0,0.0,0.0,0.0,0.0,0.0,0.0,0.0,0.0,0.0,0.0,0.0,0.0,0.0,0.0,0.0,0.0,0.0,0.0,0.0,0.0,0.0,0.0,0.0,0.0,0.0,0.0,0.0,0.0,-0.4724,-0.4509,-0.4593,-0.4875,-0.5099,0.0,0.0,0.0,0.0,0.0,0.0,0.0,0.0,0.0,-1.1922,-1.2358,-1.3309,-1.4859,-1.5748,-1.667,-1.7561,-1.8783,-1.9775,-2.0464,-2.1335,-2.2122,-2.285,-2.3183,-2.2551,-2.1008,-1.8441,-1.7025,-1.6394,0.0,0.0,0.0,0.0,-1.7424,-1.8511,0.0,0.0,0.0,0.0,0.0,0.0,0.0,0.0,0.0,0.0,0.0,0.0,1.2007,1.2905,1.4101,1.5796,1.4783,1.46,1.5929,1.4588,0.0,0.0,1.3632,1.3919,1.4306,1.5766,1.7823,2.0467,2.1654,2.2825,2.3998,2.4393,2.4908,2.5465,2.4926,2.3385,2.1139,2.0147,1.8518,1.6558,0.0,0.0,0.0,0.0,0.0,0.0,0.0,0.0,0.0,0.0,0.0,0.0,0.0,0.0,0.0,0.0,0.0,0.0,0.0,0.0,0.0,0.0,0.0,0.0,0.0,0.0,0.0,0.0,0.0,0.0,0.0,0.0,0.0,0.0,0.0,0.0,0.0,-0.6261,-0.6327,-0.6684,-0.7131,-0.7529,0.0,0.0,0.0,0.0,0.0,0.0,-1.1918,-1.2929,-1.4014,-1.5104,-1.5529,-1.6404,-1.778,-1.8779,-1.9566,-2.0295,-2.1567,-2.241,-2.297,-2.4002,-2.476,-2.536,-2.5985,-2.6298,-2.6166,-2.2529,-2.0664,-2.0096,-1.945,-1.9557,-2.0143,-2.0703,-2.1672,-2.2859,0.0,0.0,0.0,0.0,0.0,0.0,0.0,0.0,0.0,0.0,0.0,1.1147,1.3616,1.4594,1.578,1.752,1.7541,1.7528,1.7664,1.6813,1.5966,1.5201,1.5908,1.5952,1.5164,1.8237,2.0317,2.123,2.3582,2.4733,2.4779,2.6298,2.705,2.7102,2.7116,2.5816,2.3526,2.2026,2.0907,1.993,1.7501,0.0,0.0,0.0,0.0,0.0,0.0,0.0,0.0,0.0,0.0,0.0,0.0,0.0,0.0,0.0,0.0,0.0,0.0,0.0,0.0,0.0,0.0,0.0,0.0,0.0,0.0,0.0,0.0,0.0,0.0,0.0,0.0,0.0,0.0,0.0,0.0,0.0,0.0,-0.9182,-0.995,0.0,0.0,0.0,0.0,-1.2464,-1.3741,-1.4656,-1.4934,-1.6181,-1.7372,-1.849,-1.8822,-1.9633,-2.1041,-2.1635,-2.2228,-2.2794,-2.3387,-2.422,-2.5282,-2.6198,-2.7207,-2.8229,-2.9331,-2.97,-2.9143,-2.5631,-2.4157,-2.4067,-2.3728,-2.39,-2.4399,-2.5108,-2.6084,-2.7126,0.0,0.0,0.0,0.0,0.0,0.0,0.0,0.0,0.7664,0.9057,1.0691,1.2498,1.4493,1.5401,1.6555,1.8283,1.7914,1.7846,1.847,1.7696,1.7112,1.6849,1.7119,1.7579,1.827,2.044,2.2227,2.3555,2.5484,2.6669,2.7131,2.7694,2.8257,2.8726,2.8307,2.767,2.6754,2.4736,2.2838,2.105,1.9614,1.8222,0.0,0.0,0.0,0.0,0.0,0.0,0.0,0.0,0.0,0.0,0.0,0.0,0.0,0.0,0.0,0.0,0.0,0.0,0.0,0.0,0.0,0.0,0.0,0.0,0.0,0.0,0.0,0.0,0.0,0.0,0.0,0.0,0.0,0.0,0.0,0.0,0.0,-1.1631,-1.2432,0.0,-1.4039,-1.4725,-1.5382,-1.6057,-1.7013,-1.7865,-1.8483,-1.9321,-2.0357,-2.1534,-2.1768,-2.2321,-2.306,-2.3839,-2.4554,-2.5147,-2.5996,-2.6873,-2.7741,-2.8546,-2.9251,-2.9889,-3.0689,-3.1142,-3.1268,-3.0066,-2.8602,-2.6998,-2.6548,-2.7071,-2.8153,-2.8737,-3.0015,-3.1502,0.0,0.0,0.0,0.0,0.0,0.0,0.0,0.0,0.8193,0.9856,1.1757,1.3609,1.5263,1.6353,1.7662,1.937,1.8762,1.8668,1.9583,1.859,1.7994,1.8064,1.8335,1.9354,2.1206,2.2539,2.3874,2.5194,2.686,2.7918,2.8409,2.8671,2.9083,2.9589,2.9155,2.8827,2.8499,2.7058,2.506,2.2755,2.17,2.0264,1.8627,0.0,0.0,0.0,0.0,0.0,0.0,0.0,0.0,0.0,0.0,0.0,0.0,0.0,0.0,0.0,0.0,0.0,0.0,0.0,0.0,0.0,0.0,0.0,0.0,0.0,0.0,0.0,0.0,0.0,0.0,0.0,0.0,0.0,0.0,-1.3184,-1.3916,-1.446,-1.5477,-1.6399,-1.7162,-1.8016,-1.8779,-1.9408,-2.0313,-2.1122,-2.1734,-2.2321,-2.3158,-2.4137,-2.4489,-2.4903,-2.5373,-2.6206,-2.6822,-2.7259,-2.8143,-2.8869,-2.9491,-3.0389,-3.1034,-3.1469,-3.2188,-3.2817,-3.3273,-3.3357,-3.2411,-3.0773,-3.0089,-3.0557,-3.1618,-3.2204,-3.3419,-3.4953,0.0,0.0,0.0,0.0,0.0,0.0,0.0,0.7097,0.8197,0.9863,1.2193,1.4322,1.5942,1.7546,1.9132,2.0707,2.0195,2.0151,2.0998,1.9601,1.8783,1.8859,1.9639,2.1229,2.3682,2.4464,2.525,2.6067,2.7674,2.8464,2.8484,2.927,2.9645,2.9645,2.9682,2.9319,2.865,2.8821,2.7542,2.5284,2.3712,2.2092,2.0551,0.0,0.0,0.0,0.0,0.0,0.0,0.0,0.0,0.0,0.0,0.0,0.0,0.0,0.0,0.0,0.0,0.0,0.0,0.0,0.0,0.0,0.0,0.0,0.0,0.0,0.0,0.0,0.0,0.0,0.0,0.0,0.0,0.0,-1.5459,-1.5977,-1.6872,-1.7823,-1.9083,-1.9964,-2.011,-2.1487,-2.238,-2.2463,-2.3701,-2.4448,-2.4535,-2.515,-2.573,-2.6297,-2.6863,-2.7485,-2.7958,-2.8711,-2.9067,-2.908,-2.9684,-3.0129,-3.0501,-3.1626,-3.2438,-3.3059,-3.4132,-3.4876,-3.5255,-3.5245,-3.5324,-3.5397,-3.4287,-3.4206,-3.4847,-3.5467,-3.6348,-3.75,0.0,0.0,0.0,0.0,0.0,0.0,0.0,0.7413,0.8547,1.1364,1.279,1.4392,1.6582,1.764,1.8638,1.9717,1.9625,1.9648,1.998,1.9695,1.979,2.0437,2.1282,2.2577,2.4396,2.5192,2.6287,2.7679,2.9288,3.0054,3.0073,3.0335,3.0468,3.0449,2.9982,2.9658,2.9448,2.9053,2.8529,2.7719,2.5601,2.449,2.3902,0.0,0.0,0.0,0.0,0.0,0.0,0.0,0.0,0.0,0.0,0.0,0.0,0.0,0.0,0.0,0.0,0.0,0.0,0.0,0.0,0.0,0.0,0.0,0.0,0.0,0.0,0.0,0.0,0.0,0.0,0.0,-1.9434,-2.0078,-1.8634,-1.914,-1.9904,-2.0553,-2.1689,-2.2609,-2.3163,-2.3995,-2.4728,-2.5222,-2.5733,-2.6166,-2.664,-2.7354,-2.8007,-2.8558,-2.9215,-2.959,-2.9682,-2.9912,-3.0277,-3.0905,-3.1225,-3.1792,-3.2666,-3.3277,-3.3854,-3.439,-3.508,-3.5672,-3.6102,-3.6491,-3.6939,-3.7208,-3.5618,-3.5559,-3.6533,-3.7171,-3.8705,-4.0568,0.0,0.0,0.0,0.0,0.0,0.0,0.0,0.7541,0.8675,1.1935,1.299,1.4367,1.6762,1.7647,1.8526,1.968,1.9491,1.9516,1.9985,2.0204,2.0841,2.2098,2.2935,2.394,2.5185,2.6277,2.7438,2.8723,2.9988,3.0828,3.1206,3.1246,3.1287,3.133,3.0979,3.062,3.0297,3.0026,2.9713,2.9249,2.7574,2.6535,2.5793,2.3973,2.3069,2.2571,2.1231,2.0538,2.0188,1.9707,0.0,0.0,0.0,0.0,0.0,0.0,0.0,0.0,0.0,0.0,0.0,0.0,0.0,0.0,0.0,0.0,0.0,0.0,0.0,0.0,0.0,0.0,0.0,0.0,-2.2041,-2.3117,-2.3481,-2.3203,-2.3114,-2.3519,-2.4696,-2.5574,-2.5887,-2.6534,-2.7116,-2.7533,-2.8091,-2.8547,-2.8843,-2.9564,-3.0062,-3.0303,-3.0896,-3.1213,-3.1213,-3.1598,-3.1972,-3.2458,-3.268,-3.3194,-3.3973,-3.4356,-3.4854,-3.5379,-3.5894,-3.6383,-3.686,-3.7401,-3.7985,-3.8358,0.0,0.0,0.0,0.0,-4.1082,-4.265,0.0,0.0,0.0,0.0,0.0,0.0,0.0,0.7536,0.8641,1.1866,1.2928,1.4224,1.6492,1.7483,1.8517,1.9883,1.9499,1.9579,2.0547,2.0928,2.19,2.3644,2.4441,2.5225,2.611,2.7492,2.8582,2.9376,3.028,3.1177,3.1972,3.1994,3.2079,3.2208,3.218,3.1788,3.1147,3.1341,3.102,3.0318,2.9576,2.8357,2.6881,2.6067,2.529,2.4471,2.3526,2.2721,2.2097,2.1904,0.0,0.0,0.0,0.0,0.0,0.0,0.0,0.0,0.0,0.0,0.0,0.0,0.0,0.0,0.0,0.0,0.0,0.0,0.0,0.0,0.0,0.0,0.0,0.0,-2.4745,-2.6162,-2.8573,-2.7646,-2.6659,-2.664,-2.7804,-2.854,-2.8297,-2.8971,-2.9446,-2.9504,-3.0492,-3.1103,-3.1062,-3.1661,0.0,0.0,0.0,-3.2659,-3.2659,-3.3474,-3.387,-3.3939,-3.4257,-3.4627,-3.5016,-3.5377,-3.5784,-3.6392,-3.6816,-3.7293,-3.7816,-3.8398,-3.8946,-3.9421,-3.9209,-3.9481,-4.0155,-4.2207,-4.3312,-4.4043,0.0,0.0,0.0,0.0,0.0,0.0,0.0,0.7464,0.8585,1.1804,1.2804,1.3858,1.5501,1.6928,1.7871,1.8193,1.873,1.9496,2.0622,2.1436,2.2641,2.4339,2.5155,2.619,2.7503,2.8316,2.9104,2.985,3.1364,3.2228,3.2452,3.2643,3.2739,3.2813,3.232,3.2049,3.1996,3.2107,3.2172,3.2048,3.1253,3.001,2.8552,2.7689,2.7257,2.691,2.5389,2.4769,2.4482,2.3121,2.2484,2.2142,2.1511,2.0714,0.0,0.0,0.0,0.0,0.0,0.0,0.0,0.0,0.0,0.0,0.0,0.0,0.0,0.0,0.0,0.0,0.0,0.0,0.0,-2.5792,-2.7835,-2.9274,-2.9724,-3.0828,-3.1061,-2.9448,-2.9952,-3.0308,-3.003,-3.0467,-3.1029,-3.1604,-3.1718,-3.2024,-3.2522,-3.3182,-3.3548,-3.3548,-3.4098,-3.4434,-3.4434,-3.5131,-3.5536,-3.5686,-3.6339,0.0,-3.7367,-3.7434,-3.7831,-3.8494,-3.8827,-3.9306,-3.9984,-4.0549,-4.1406,-4.2244,-4.1393,-4.1437,-4.2131,-4.3651,-4.4664,-4.5406,0.0,0.0,0.0,0.0,0.0,0.0,0.0,0.7437,0.84,1.123,1.2187,1.3163,1.4644,1.5831,1.6628,1.697,1.7887,1.9239,2.1126,2.1752,2.2967,2.5015,2.5764,2.6626,2.7629,2.8572,2.9431,3.0251,3.1405,3.2314,3.2911,3.3148,3.3349,3.3488,3.3291,3.3053,3.2821,3.2921,3.2768,3.2405,3.2058,3.1207,3.0018,2.8804,2.8363,2.8191,2.6907,2.6211,2.5783,2.4964,2.4169,2.3431,2.3032,2.2308,2.1425,0.0,0.0,0.0,0.0,0.0,0.0,0.0,0.0,0.0,0.0,0.0,0.0,0.0,0.0,-1.9281,-2.2513,0.0,-2.633,-2.8522,-2.9926,-3.1066,-3.2124,-3.3044,-3.3061,-3.1479,-3.1784,-3.2044,-3.1774,-3.2293,-3.2787,-3.3008,-3.3545,-3.3925,-3.4181,-3.4798,-3.5048,-3.497,-3.5629,-3.5923,-3.5923,-3.67,-3.7164,-3.7246,-3.7631,-3.8065,-3.8427,-3.8492,-3.8883,-3.9456,-3.9843,-4.0372,-4.1017,-4.1879,-4.2723,-4.3502,-4.3628,-4.3663,-4.3819,-4.5204,-4.6057,-4.6724,0.0,0.0,0.0,0.0,0.0,0.0,0.0,0.7452,0.8269,1.0681,1.1443,1.2274,1.3597,1.4534,1.5389,1.6247,1.7275,1.8927,2.1393,2.1791,2.3081,2.5634,2.6153,2.6722,2.7428,2.8617,2.9579,3.0282,3.1122,3.2076,3.3063,3.3321,3.3625,3.3921,3.4124,3.3985,3.3583,3.365,3.3335,3.2751,3.2656,3.2142,3.1284,2.9889,2.9265,2.9031,2.8158,2.7313,2.6599,2.6496,2.5435,2.4168,2.4109,2.3435,2.2494,2.1725,2.1418,0.0,0.0,0.0,0.0,0.0,0.0,0.0,0.0,0.0,-1.3355,-1.6983,-1.9863,-2.2546,-2.5242,-2.6945,-2.8774,-3.1269,-3.1879,-3.2667,-3.4449,-3.4694,-3.4348,-3.3403,-3.353,-3.3578,-3.3319,-3.3931,-3.4313,-3.4345,-3.5321,-3.5879,-3.5825,-3.626,-3.6429,-3.6427,-3.6978,-3.7345,-3.7483,-3.8338,-3.8743,-3.8743,-3.8998,-3.9206,-3.9433,-3.961,-3.9929,-4.0414,-4.1032,-4.1601,-4.2239,-4.3289,-4.3986,-4.4594,-4.5713,-4.5875,-4.5621,-4.6715,-4.7445,-4.7992,0.0,0.0,0.0,0.0,0.0,0.0,0.0,0.0,0.8272,1.0676,1.0967,1.1219,1.1987,1.332,1.4754,1.6257,1.7257,1.861,2.0523,2.1329,2.3069,2.6078,2.6072,2.6476,2.7542,2.8812,2.9451,2.942,3.0993,3.2022,3.2519,3.2809,3.3214,3.3643,3.3842,3.4043,3.4209,3.4278,3.4352,3.4369,3.3655,3.2921,3.2182,3.1358,3.0586,2.9855,2.8984,2.8108,2.7266,2.6555,2.5647,2.4753,2.4517,2.3531,2.2356,2.1959,2.1669,2.0523,1.6113,0.9734,0.3337,-0.0743,-0.4341,-0.7884,0.0,0.0,-1.7697,-2.1429,-2.3732,-2.6043,-2.9157,-3.0426,-3.1648,-3.3515,-3.4497,-3.5092,-3.5267,-3.5749,-3.5976,-3.5744,-3.5078,-3.4545,-3.4333,-3.4799,-3.5324,-3.59,-3.6453,-3.6947,-3.7424,-3.7476,-3.7733,-3.8196,-3.829,-3.8637,-3.933,-4.0024,-4.0371,-4.0371,-4.0986,-4.1367,-4.153,-4.1693,-4.2077,-4.2593,-4.3623,-4.4398,-4.5008,-4.5608,-4.6147,-4.6613,-4.7173,-4.7638,-4.8033,-4.8218,-4.8614,-4.9083,0.0,0.0,0.0,0.0,0.0,0.0,0.0,0.0,0.0,0.9355,1.0268,1.0894,1.1139,1.2472,1.3819,1.501,1.6319,1.7853,1.962,2.0825,2.2399,2.4514,2.508,2.5649,2.6358,2.7521,2.8272,2.8582,2.9812,3.0861,3.175,3.2196,3.2713,3.3214,3.3569,3.3868,3.4124,3.4245,3.4381,3.452,3.429,3.3488,3.2368,3.2143,3.0977,2.9404,2.8955,2.826,0.0,2.6451,2.5359,2.4297,2.3621,2.2264,2.0655,1.9152,1.6176,1.1905,0.5301,0.0281,-0.3804,-0.6989,-1.0019,-1.3118,-1.657,-1.9162,-2.165,-2.4403,-2.6525,-2.8582,-3.0857,-3.2102,-3.3406,-3.5243,-3.5809,-3.616,-3.6564,-3.6745,-3.6759,-3.658,-3.6256,-3.5786,-3.5207,-3.6039,-3.6654,-3.6799,-3.7675,-3.8297,-3.8455,-3.8303,-3.8511,-3.9162,-3.9521,-4.0023,-4.0745,-4.1435,-4.1772,-4.1788,-4.2077,-4.2222,-4.2302,-4.2555,-4.3035,-4.3772,-4.4558,-4.5159,-4.5684,-4.6284,-4.6806,-4.7302,-4.7834,-4.8307,-4.8677,-4.8765,-4.9067,-4.955,0.0,0.0,0.0,0.0,0.0,0.0,0.0,0.0,0.0,0.0,0.9478,1.0301,1.0664,1.1646,1.2729,1.381,1.5185,1.6802,1.8683,1.9921,2.1343,2.3094,2.3734,2.4364,2.5096,2.5967,2.6753,2.7452,2.8338,2.948,3.0801,3.1369,3.2071,3.2858,3.3309,3.3652,3.3947,3.4099,3.4269,3.4431,3.4402,3.362,3.2463,3.235,3.095,2.904,2.89,2.8158,2.714,2.6275,2.5061,2.3637,2.2283,2.0218,1.7683,1.4594,0.8683,0.1754,-0.4507,-0.8201,-1.0967,-1.3671,-1.6087,-1.8535,-2.1385,-2.349,-2.5428,-2.7419,-2.9148,-3.0759,-3.2266,-3.3488,-3.4804,-3.6404,-3.682,-3.711,-3.7613,-3.7542,-3.7376,-3.715,-3.7094,-3.6803,-3.6122,-3.7155,-3.7739,-3.7498,-3.8739,-3.9435,-3.9239,-3.9023,-3.9325,-4.0205,-4.0557,-4.1216,-4.2146,-4.2651,-4.2896,-4.2896,-4.2896,-4.2896,-4.2896,-4.3279,-4.3814,-4.4575,-4.5123,-4.5632,-4.6087,-4.6666,-4.7232,-4.7705,-4.821,-4.8623,-4.9012,-4.9174,-4.9469,-4.9841,0.0,0.0,0.0,0.0,0.0,0.0,0.0,0.0,0.0,0.0,0.0,0.0,0.0,1.0747,1.1419,1.2989,1.395,1.5433,1.7697,1.836,1.9858,2.2505,2.2108,2.2522,2.4099,2.4555,2.508,2.577,2.6767,2.8021,2.947,3.0156,3.1272,3.2734,3.305,3.3426,3.3815,3.4023,3.4245,3.4442,3.3865,3.3249,3.2617,3.1896,3.0615,2.9174,2.9032,2.7892,2.6393,2.6105,2.4797,2.2944,2.0699,1.7353,1.3297,0.8349,-0.0134,-0.8317,-1.0189,-1.4114,-1.8252,-2.0696,-2.2384,-2.4014,-2.6123,-2.7631,-2.9022,-3.081,-3.176,-3.2705,-3.3993,-3.5059,-3.6035,-3.6916,-3.7785,-3.8281,-3.8101,-3.8068,-3.7966,-3.7703,-3.7559,-3.7413,-3.7241,-3.799,-3.8391,-3.8196,-3.9486,-4.0138,-3.9901,-3.9729,-4.0207,-4.1533,-4.1448,-4.2047,-4.3545,-4.3562,-4.3578,-4.3578,-4.3578,-4.3578,-4.3578,-4.4064,-4.4575,-4.5177,-4.558,-4.6087,-4.6637,-4.708,-4.756,-4.8032,-4.8477,-4.8906,-4.9244,-4.9615,-4.9871,-5.0057,0.0,0.0,0.0,0.0,0.0,0.0,0.0,0.0,0.0,0.0,0.0,0.0,0.0,0.0,0.0,0.0,1.3369,1.4758,1.5424,1.7398,1.877,1.9331,2.0615,2.1376,2.1514,2.2294,2.3285,2.4499,2.5176,2.647,2.8345,2.9117,3.0024,3.1058,3.148,3.191,3.2286,3.2558,3.2767,3.2956,3.2959,3.255,3.1884,3.1158,2.9842,2.8314,0.0,2.7069,2.6459,2.5627,2.4441,2.2568,1.848,1.3462,0.6546,-0.6491,-1.3992,-1.873,-2.1909,-2.4017,-2.5447,-2.6148,-2.6882,-2.7784,-2.9254,-3.0336,-3.1307,-3.2367,-3.2931,-3.3621,-3.4816,-3.5356,-3.5872,-3.6703,-3.7488,-3.7985,-3.7904,-3.8273,-3.851,-3.8332,-3.8183,-3.8034,-3.7845,-3.8585,-3.9023,-3.8825,-4.0112,-4.0836,-4.0645,-4.037,-4.0849,-4.2289,-4.2126,-4.2723,-4.4202,-4.4219,-4.4219,-4.4219,-4.4219,-4.4333,-4.4519,-4.4797,-4.5159,-4.5632,-4.6038,-4.6429,-4.6835,-4.7414,-4.7856,-4.8327,-4.8837,-4.9244,-4.9555,-4.9898,-5.0158,-5.0447,0.0,0.0,0.0,0.0,0.0,0.0,0.0,0.0,0.0,0.0,0.0,0.0,0.0,0.0,0.0,0.0,0.0,1.359,1.4326,1.5933,1.7107,1.7659,1.88,1.9515,1.9687,2.019,2.1183,2.266,2.317,2.4585,2.6706,2.7552,2.8511,2.9543,3.0016,3.0412,3.0779,3.1044,3.1261,3.141,3.1371,3.1107,3.0658,2.9838,2.8662,0.0,2.6758,2.6331,2.5954,2.5265,2.4312,2.2145,1.4907,0.5421,-0.546,-1.7754,-2.3518,-2.6627,-2.9948,-3.0783,-3.0808,-3.1116,-3.1094,-3.1254,-3.2126,-3.2592,-3.2997,-3.3551,-3.3647,-3.3918,-3.4983,-3.5221,-3.5502,-3.632,-3.7337,-3.7988,-3.7955,-3.8526,-3.8931,-3.8796,-3.8664,-3.851,-3.83,-3.9283,-3.9761,-3.9417,-4.0691,-4.1373,-4.1283,-4.0931,-4.1446,-4.291,-4.2757,-4.3265,-4.4725,-4.4725,-4.4725,-4.4725,-4.4725,-4.4889,-4.523,-4.5336,-4.5632,-4.6038,-4.6411,-4.6771,-4.7204,-4.7733,-4.8231,-4.8641,-4.9108,-4.9506,-4.9807,-5.0108,-5.0543,-5.1083,0.0,0.0,0.0,0.0,0.0,0.0,0.0,0.0,0.0,0.0,0.0,0.0,0.0,0.0,0.0,0.0,0.0,0.0,1.4176,1.4059,1.4949,1.7288,1.674,1.7065,1.8567,1.8273,1.8804,2.0277,2.0987,2.2429,2.4574,2.5459,2.6676,2.8178,2.8631,2.9024,2.9306,2.958,2.9777,2.9851,2.9265,2.9074,2.9023,2.8072,2.7149,2.6379,2.6313,2.5685,2.4889,2.502,2.4018,2.0778,0.9692,-0.6091,-2.1238,-2.5013,-2.8674,-3.1962,-3.3984,-3.4336,-3.4351,-3.5407,-3.4969,-3.437,-3.4696,-3.4334,-3.4054,-3.4411,-3.3878,-3.3638,0.0,0.0,-3.4961,-3.5771,-3.7197,-3.8202,-3.8169,-3.8802,-3.9216,0.0,0.0,0.0,0.0,-4.001,-4.0599,-4.0083,-4.1233,-4.1874,-4.1753,-4.1453,-4.2004,-4.3471,-4.3296,-4.3871,-4.523,-4.523,-4.523,-4.523,-4.523,-4.5389,-4.5632,-4.5786,-4.6038,-4.6429,-4.6771,-4.7204,-4.7674,-4.8114,-4.8569,-4.8959,-4.9346,-4.9665,-4.9933,-5.0283,-5.1041,-5.1953,0.0,0.0,0.0,0.0,0.0,0.0,0.0,0.0,0.0,0.0,0.0,0.0,0.0,0.0,0.0,0.0,0.0,0.0,1.1935,1.3259,1.4153,1.438,1.5391,1.5926,1.5883,1.665,1.7492,1.8444,1.957,2.0973,2.2625,2.3449,2.4669,2.616,2.6525,2.717,2.7999,2.8164,2.8309,2.8423,2.8271,2.8181,2.8037,2.7003,2.6365,2.5929,2.5234,2.4802,2.454,2.457,1.8332,0.8941,-0.0375,-1.1795,-2.2843,-2.8528,-3.2202,-3.4537,-3.5038,-3.5897,-3.6691,-3.6765,-3.6096,-3.5413,-3.5497,-3.4567,-3.3752,-3.394,-3.3382,-3.2969,-3.3264,-3.3303,-3.3557,-3.431,-3.5284,0.0,-3.7503,-3.8263,0.0,-3.9476,0.0,-3.9425,-4.003,-4.075,-4.1346,-4.1714,-4.2152,-4.2351,-4.2145,-4.2422,-4.3022,-4.395,-4.4275,-4.4878,-4.5786,-4.5701,-4.5667,-4.5667,-4.5752,-4.5887,-4.6038,-4.6284,-4.6572,-4.6926,-4.7291,-4.7692,-4.8172,-4.8495,-4.8874,-4.9225,-4.9525,-4.9797,-5.0082,-5.0371,-5.1143,-5.2162,0.0,0.0,0.0,0.0,0.0,0.0,0.0,0.0,0.0,0.0,0.0,0.0,0.0,0.0,0.0,0.0,0.0,0.0,0.0,1.2124,1.2932,1.3449,1.4164,1.4601,1.4723,1.5228,1.5911,1.6768,1.7717,1.9069,2.0822,2.1558,2.2665,2.4053,2.4363,2.4845,2.5444,2.555,2.5639,0.0,0.0,2.6073,2.5913,2.5584,2.53,2.5034,2.4485,2.4339,2.4308,0.0,0.0,0.1736,-0.5161,-1.6361,-2.7807,-3.2207,-3.5078,-3.6866,-3.7133,-3.7762,-3.8304,-3.8096,-3.7357,-3.6501,-3.576,-3.4685,-3.3685,-3.3053,-3.2282,-3.1756,-3.1788,-3.1795,-3.2039,0.0,0.0,0.0,-3.6934,-3.8004,-3.8965,0.0,-3.9647,0.0,-4.0697,-4.1232,-4.1816,-4.2538,-4.2758,-4.2786,-4.2591,-4.3102,-4.3693,-4.4298,-4.4894,-4.551,-4.6186,-4.6055,-4.6023,-4.6055,-4.6137,-4.6284,-4.6495,-4.6713,-4.7017,-4.7353,-4.771,-4.8093,-4.855,-4.8839,-4.9179,-4.9495,-4.9759,-5.0057,-5.034,-5.0966,-5.1856,-5.2895,0.0,0.0,0.0,0.0,0.0,0.0,0.0,0.0,0.0,0.0,0.0,0.0,0.0,0.0,0.0,0.0,0.0,0.0,0.0,0.0,1.1623,1.3215,1.2904,1.31,1.3996,1.3976,1.4303,1.5065,1.5768,1.7122,1.9019,1.9673,2.0652,2.1864,2.2249,2.2507,2.2672,2.2832,2.2891,2.2949,2.3487,2.36,2.3442,0.0,2.4024,2.3911,2.3959,2.4266,2.4302,0.0,1.1244,-0.1976,-0.6593,-1.9536,-3.339,-3.5329,-3.718,-3.8741,-3.9335,-3.9505,-3.9428,-3.9199,-3.8493,-3.7425,-3.5718,-3.4603,-3.3476,-3.1942,-3.0848,-3.0169,-3.018,-3.0181,-3.0482,-3.1405,0.0,-3.5282,-3.6305,-3.7785,-3.9071,-3.9871,-3.9857,-4.0136,-4.1118,-4.1605,-4.2193,-4.2981,-4.321,-4.3214,-4.2957,-4.3653,-4.4312,-4.4936,-4.5499,-4.6039,-4.6477,-4.6381,-4.6381,-4.6495,-4.6495,-4.6637,-4.687,-4.7062,-4.7353,-4.7692,-4.8111,-4.8494,-4.8857,-4.9146,-4.9434,-4.975,-5.0119,-5.045,-5.0792,-5.1857,-5.2901,-5.3901,0.0,0.0,0.0,0.0,0.0,0.0,0.0,0.0,0.0,0.0,1.0368,1.008,0.0,0.0,0.0,0.0,0.0,0.0,0.0,0.0,0.0,1.1126,1.1466,1.1599,1.1434,1.2477,1.3122,1.332,1.4978,1.6184,1.6938,1.7485,1.8383,1.9535,2.0464,2.1294,2.2029,2.2709,2.2923,2.2813,2.2769,2.2589,2.2356,2.2226,0.0,0.0,2.353,2.4464,2.5038,2.2607,1.1399,-0.2311,-0.682,-1.9628,-3.3451,-3.5702,-3.7731,-3.927,-3.9452,-4.0008,-4.0359,-3.9626,-3.881,-3.7754,-3.595,-3.3865,0.0,-3.1001,-2.9596,-2.8524,-2.8526,-2.8514,-2.9013,-3.0548,-3.1766,-3.3256,-3.5386,-3.7084,-3.8361,0.0,-3.9719,-4.0625,-4.2183,-4.2219,-4.2716,-4.4102,-4.4106,-4.3758,-4.316,-4.4525,-4.5784,-4.6809,-4.6892,-4.69,-4.6888,-4.6888,-4.6888,-4.6888,-4.6998,-4.7116,-4.7214,-4.7542,-4.7852,-4.813,-4.8513,-4.8839,-4.9146,-4.9365,-4.9607,-4.9974,-5.0894,-5.1338,-5.1617,-5.2685,-5.3752,-5.4716,0.0,0.0,0.0,0.0,0.0,0.0,0.0,0.0,1.0815,1.1657,1.1528,1.119,1.0821,1.0422,0.0,0.0,0.0,0.0,0.0,0.0,0.0,0.0,0.0,0.0,1.1009,1.1974,1.254,1.2639,0.0,1.5201,1.6044,1.6476,1.7267,1.8357,1.889,1.9374,1.9819,2.0623,2.09,2.0819,2.1512,2.1607,2.1399,0.0,0.0,0.0,0.0,0.0,2.5798,2.428,1.5063,0.2967,-0.4248,-1.6452,-2.9075,-3.4058,-3.7237,-3.9228,-3.9652,-4.0184,-4.0344,-3.9137,-3.8238,-3.6985,-3.4326,0.0,0.0,-2.9039,-2.7702,-2.6852,-2.6847,-2.6851,-2.7398,-2.9085,-3.0426,-3.2124,-3.4574,-3.5956,-3.7332,-3.9008,-3.9459,-4.0444,-4.2545,-4.255,-4.3076,-4.4638,-4.4568,-4.4367,-4.4138,-4.548,-4.6694,-4.765,-4.7578,-4.745,-4.7356,-4.7356,-4.7356,-4.7356,-4.7443,-4.7511,-4.7705,-4.8375,-4.8873,-4.9177,-4.9932,-5.0396,-5.0614,-5.0877,-5.1112,-5.1387,-5.2035,-5.2382,-5.2666,-5.3702,-5.4448,-5.5029,0.0,0.0,0.0,0.0,0.0,0.0,0.0,1.0784,1.1614,1.2437,1.2648,1.2496,1.1927,1.1027,1.0465,0.0,0.0,0.0,0.0,0.0,0.0,0.0,0.0,0.0,0.0,0.0,0.0,1.2167,1.333,0.0,0.0,0.0,0.0,0.0,1.7504,1.7614,1.7695,1.8678,1.9014,0.0,0.0,2.069,0.0,0.0,0.0,0.0,0.0,0.0,2.6247,0.0,1.9662,1.0365,0.1197,-1.1447,-2.4245,-3.1237,-3.5528,-3.8194,-3.9293,-3.9766,-3.9694,-3.8396,-3.7409,-3.5912,-3.2714,-3.1211,0.0,-2.7168,-2.5976,-2.5351,-2.5176,-2.5291,-2.5906,0.0,-2.9234,-3.1254,-3.3557,-3.4904,-3.6497,-3.8814,-3.9182,0.0,-4.2693,-4.2776,-4.3344,-4.495,-4.5192,-4.5294,-4.5342,-4.6414,-4.7387,-4.8153,-4.7995,-4.7893,-4.7847,-4.7824,-4.7824,-4.7824,-4.7847,-4.797,-4.8169,-4.9173,-4.9787,-5.0136,-5.1199,-5.179,-5.2021,-5.2265,-5.2474,-5.2679,-5.3139,-5.3433,-5.3685,-5.471,-5.517,-5.5392,0.0,0.0,0.0,0.0,0.0,0.0,0.0,1.1574,1.2391,1.3188,1.3355,1.3415,1.3395,1.2142,1.1289,0.0,0.0,0.0,0.0,0.0,0.0,0.0,0.0,0.0,0.0,0.0,0.0,1.1393,1.3078,0.0,0.0,0.0,0.0,0.0,0.0,1.6718,1.6817,1.8416,0.0,0.0,0.0,0.0,0.0,0.0,0.0,0.0,0.0,0.0,2.6052,0.0,0.0,1.8316,1.1029,-0.4772,-2.1729,-2.7404,0.0,0.0,-3.7581,-3.8294,-3.8297,-3.7777,-3.6649,-3.499,-3.2489,0.0,-2.8805,-2.6242,-2.503,-2.421,-2.346,-2.3999,-2.4824,-2.5777,-2.8006,-3.0221,-3.1977,-3.4282,-3.6442,-3.8179,0.0,0.0,-4.2834,-4.2953,-4.354,-4.5148,-4.6368,-4.6919,-4.6551,-4.7159,-4.7858,-4.8604,-4.8458,-4.8345,-4.8345,-4.8306,-4.8229,-4.8229,-4.8326,-4.8421,-4.8569,-4.9601,-5.0149,-5.0411,-5.1453,-5.2002,-5.2265,-5.2493,-5.2679,-5.2905,-5.3942,-5.4418,-5.4611,-5.5614,-5.6077,-5.6208,0.0,0.0,0.0,0.0,0.0,0.0,1.136,1.1875,1.2537,1.3834,1.4093,1.4203,1.4251,1.2908,1.1828,0.0,0.0,0.0,0.0,0.0,0.0,0.0,0.0,0.0,0.0,0.0,1.1165,1.1233,1.2916,0.0,0.0,0.0,0.0,0.0,0.0,1.5817,1.5922,1.7614,0.0,0.0,0.0,0.0,0.0,0.0,0.0,0.0,0.0,0.0,2.6009,0.0,0.0,0.0,1.4902,0.4041,0.0,0.0,-2.7054,-3.1624,-3.434,-3.5871,-3.647,-3.578,-3.5021,-3.3665,-3.08,0.0,-2.7149,-2.5166,-2.3684,-2.2799,-2.3003,-2.3364,-2.4067,-2.5467,-2.7421,-2.9361,-3.1032,-3.3025,-3.5107,-3.7322,-3.8306,-3.9984,-4.3002,-4.3192,-4.3975,-4.5995,-4.7078,-4.7772,-4.8015,-4.8491,-4.8832,-4.9057,-4.894,-4.8837,-4.8748,-4.8695,-4.8642,-4.8678,-4.8731,-4.9078,-4.9738,-5.0729,-5.1551,-5.2253,-5.3277,-5.3819,-5.3993,-5.4158,-5.432,-5.4526,-5.5072,-5.5364,-5.5559,-5.6035,-5.6271,-5.6369,0.0,0.0,0.0,0.0,0.0,1.0278,1.1752,1.196,1.2513,1.4126,1.4446,1.4445,1.4303,1.3112,1.2045,1.1306,0.0,0.0,0.0,0.0,0.0,0.0,0.0,0.0,0.0,0.0,1.1126,1.1388,1.2779,1.3644,0.0,0.0,1.4644,1.4916,0.0,0.0,0.0,0.0,0.0,0.0,0.0,0.0,0.0,0.0,0.0,0.0,0.0,0.0,0.0,0.0,0.0,0.0,0.0,1.0857,0.2085,0.0,-2.1639,-2.722,-3.0886,-3.2894,-3.3936,-3.3857,-3.3058,-3.1684,0.0,0.0,-2.5669,-2.4064,-2.2615,-2.1765,-2.2128,-2.2678,-2.3478,-2.4703,-2.6792,-2.8769,-3.0204,-3.2101,-3.4281,-3.6826,0.0,-3.9754,-4.3111,-4.3819,-4.4838,-4.6641,-4.753,-4.8296,-4.8993,-4.9505,-4.9712,-4.9506,-4.9434,-4.9321,-4.9225,-4.9108,-4.9061,-4.9061,-4.916,-4.9688,-5.059,-5.1594,-5.2598,-5.361,-5.4552,-5.5057,-5.5203,-5.5333,-5.5504,-5.5662,-5.5827,-5.599,-5.6151,-5.6285,-5.6358,-5.6414,0.0,0.0,0.0,0.0,0.0,0.0,0.0,1.1841,1.2382,1.4,1.4268,1.4047,1.3398,1.264,1.1917,1.1162,0.0,0.0,0.0,0.0,0.0,0.0,0.0,0.0,0.0,0.0,1.1122,1.1793,1.274,1.3328,1.3615,1.402,1.4375,1.4703,0.0,0.0,0.0,0.0,0.0,0.0,0.0,0.0,0.0,0.0,0.0,0.0,0.0,0.0,0.0,0.0,0.0,0.0,0.0,1.4553,0.7641,-0.6515,-1.5654,-2.2204,-2.7409,-2.9424,-3.0473,-3.2268,-3.0873,-2.8918,0.0,-2.6601,-2.4569,-2.2953,-2.2029,-2.1254,-2.046,-2.1791,-2.3009,-2.3038,-2.5947,-2.8507,-2.9394,-3.1756,-3.4344,0.0,-3.7975,-3.9817,-4.3175,-4.4946,-4.6197,-4.6935,-4.7742,-4.8523,-4.926,-5.0047,-5.0336,-4.9986,-4.9843,-4.975,-4.9692,-4.9548,-4.9469,-4.9415,-4.9585,-5.0107,-5.0919,-5.1935,-5.294,-5.3933,-5.4751,-5.5203,-5.5408,-5.5551,-5.5682,-5.5807,-5.6031,-5.6145,-5.6213,-5.6347,-5.6407,-5.6402,0.0,0.0,0.0,0.0,0.0,0.0,0.0,1.1011,1.1367,1.2418,1.262,1.2597,1.242,1.1755,1.1245,1.1044,0.0,0.0,0.0,0.0,0.0,0.0,0.0,0.0,0.0,0.0,1.083,1.146,1.2716,1.3518,1.3897,1.4846,1.5239,1.521,1.5605,1.557,0.0,0.0,0.0,0.0,0.0,0.0,0.0,0.0,0.0,0.0,0.0,0.0,0.0,0.0,0.0,0.0,0.0,0.0,0.0,-0.0167,-0.9767,-1.8513,-2.3125,-2.6127,-2.8092,-2.8558,-2.8457,-2.7725,-2.5795,-2.4497,-2.3303,-2.1871,-2.0991,-2.0422,-2.026,-2.1671,-2.2895,-2.2984,-2.5892,-2.8447,-2.9377,0.0,0.0,-3.6907,-4.0024,-4.2407,-4.3468,-4.5062,-4.6609,-4.7985,-4.8288,-4.9006,-5.0391,-5.0617,-5.0587,-5.0283,-5.0125,-5.0051,-5.0038,-4.9906,-4.9833,-4.9879,-5.054,-5.1296,-5.2167,-5.3129,-5.4046,-5.4925,-5.5243,-5.5112,-5.4751,-5.5457,-5.5499,-5.52,-5.5893,-5.6239,-5.6347,-5.6377,-5.6425,-5.647,0.0,0.0,0.0,0.0,0.0,0.0,0.0,1.0631,1.088,1.1656,1.1819,1.1776,1.1549,1.1141,1.0787,1.0534,0.0,0.0,0.0,0.0,0.0,0.0,0.0,0.0,0.0,1.0364,1.1014,1.178,1.2691,1.3459,1.4063,1.5037,1.554,1.5648,1.6161,1.6082,0.0,0.0,0.0,0.0,0.0,0.0,2.0059,0.0,0.0,0.0,0.0,0.0,0.0,0.0,0.0,0.0,0.0,0.0,0.0,0.0,-0.5693,-1.4558,-1.9318,-2.2656,-2.4942,-2.5692,-2.5798,0.0,0.0,-2.2811,-2.1791,-2.1064,-2.037,-2.0023,-2.0489,-2.176,-2.3006,-2.3779,-2.6243,-2.8499,-2.9764,0.0,0.0,-3.8281,-4.1607,-4.3767,-4.4055,-4.5332,-4.682,-4.8516,-4.858,-4.9283,-5.0972,-5.0961,-5.0819,-5.0625,-5.0467,-5.0361,-5.031,-5.024,-5.0193,-5.0217,-5.1119,-5.2007,-5.2872,-5.3805,-5.4699,-5.5531,-5.5273,-5.4895,0.0,-5.517,-5.5194,-5.4934,-5.5903,-5.6347,-5.6433,-5.6439,-5.646,-5.6504,0.0,0.0,0.0,0.0,0.0,0.0,0.0,0.0,1.0759,1.145,1.1602,1.138,1.0702,1.0739,1.0504,0.9773,0.0,0.0,0.0,0.0,0.0,0.0,0.0,0.0,0.0,1.0737,1.1503,1.2597,1.2704,1.3214,1.4133,1.4802,1.5432,1.6061,1.6666,1.6734,0.0,0.0,0.0,0.0,0.0,0.0,0.0,0.0,0.0,0.0,0.0,0.0,0.0,0.0,0.0,0.0,0.0,0.0,0.0,0.0,0.0,0.0,0.0,-1.9106,-2.1386,-2.3438,-2.2993,-2.2197,-2.2695,0.0,0.0,-2.0439,-2.0094,-2.007,-2.1008,-2.2051,-2.3343,-2.509,-2.6892,-2.8713,-3.0535,-3.3156,0.0,-4.0601,-4.2636,-4.4011,-4.4829,-4.5748,-4.695,-4.8588,-4.8699,-4.943,-5.1122,-5.1144,-5.1076,-5.1017,-5.0822,-5.0663,-5.0527,-5.0527,-5.0488,-5.0466,-5.1392,-5.2277,-5.3161,-5.3953,-5.4842,-5.5672,-5.4882,-5.4553,-5.4626,-5.4758,-5.486,-5.5015,-5.6018,-5.6441,-5.6497,-5.6497,-5.649,-5.65,0.0,0.0,0.0,0.0,0.0,0.0,0.0,0.0,0.0,0.0,1.0023,0.9997,0.9876,0.994,0.9902,0.0,0.0,0.0,0.0,0.0,0.0,0.0,0.0,0.0,0.0,1.0666,1.1383,1.2459,1.2867,1.3549,1.4445,1.5593,1.6203,1.6328,1.7093,1.773,1.8297,0.0,0.0,0.0,0.0,0.0,0.0,0.0,0.0,0.0,2.055,2.1139,0.0,0.0,0.0,0.0,0.0,0.0,0.0,0.0,-0.1278,-0.7105,-1.163,0.0,-1.9123,-2.0131,-2.0635,-2.0744,0.0,0.0,0.0,0.0,0.0,-2.0583,-2.0978,-2.2369,-2.3866,-2.506,-2.7316,-2.9552,-3.1355,-3.5067,0.0,-4.0812,-4.2632,-4.4042,-4.4897,-4.6326,-4.763,-4.8703,-4.9322,-5.0131,-5.1217,-5.1249,-5.121,-5.1156,-5.1056,-5.0942,-5.0805,-5.0752,-5.0752,-5.0789,-5.164,-5.2508,-5.3411,-5.3565,-5.4125,-5.4916,-5.4152,-5.3832,-5.3921,-5.464,-5.4994,-5.5151,-5.6098,-5.6484,-5.6507,-5.6497,-5.6503,-5.65,0.0,0.0,0.0,0.0,0.0,0.0,0.0,0.0,0.0,0.0,0.0,0.0,0.0,0.0,0.0,0.0,0.0,0.0,0.0,0.0,0.0,0.0,0.0,0.0,1.0753,1.1369,1.1991,1.267,1.3217,1.4027,1.5123,1.5846,1.6511,1.7117,1.7542,1.8311,1.93,1.9096,1.9566,2.0465,2.0486,0.0,0.0,0.0,0.0,0.0,2.034,2.0623,0.0,2.0815,2.0489,1.9722,0.0,0.0,0.0,0.0,-0.0564,-0.5512,-0.9371,-1.36,-1.7172,-1.8171,-1.8795,-1.9109,-1.8826,0.0,0.0,0.0,0.0,-2.0868,-2.1824,-2.3206,-2.4796,-2.6606,-2.848,-3.0779,0.0,0.0,-4.0285,-4.2041,-4.3456,-4.4645,-4.5508,-4.6773,-4.7896,-4.874,-4.9562,-5.0425,-5.1304,-5.1316,-5.1284,-5.1249,-5.122,-5.1125,-5.0981,-5.0971,-5.0971,-5.1,-5.1838,-5.2511,-5.3005,-5.3374,-5.38,-5.4188,-5.3424,-5.3327,-5.3727,-5.4276,-5.4753,-5.5243,-5.6143,-5.651,-5.6504,-5.6503,-5.6493,-5.6508,0.0,0.0,0.0,0.0,0.0,0.0,0.0,0.0,0.0,0.0,0.0,0.0,0.0,0.0,0.0,0.0,0.0,0.0,0.0,0.0,0.0,0.0,0.0,1.1157,1.148,1.2288,1.2892,1.3277,1.3681,1.4578,1.5872,1.5978,1.6707,1.8016,1.802,1.8652,1.9714,1.9241,1.9561,2.0371,2.0432,0.0,0.0,0.0,0.0,0.0,0.0,0.0,0.0,1.9873,1.9088,1.7893,1.5603,0.0,0.0,0.0,0.0,0.0,-0.8417,-1.2072,-1.5326,-1.6853,-1.738,-1.7721,-1.8444,0.0,0.0,0.0,0.0,0.0,-2.3041,-2.4425,0.0,-2.8655,-3.0196,-3.2574,-3.6793,-3.9468,-4.1648,-4.3387,-4.443,-4.5333,-4.621,-4.7207,-4.8085,-4.8758,-4.9745,-5.0614,-5.1362,-5.1361,-5.1317,-5.1328,-5.1312,-5.124,-5.1125,-5.1114,-5.1121,-5.112,-5.1877,-5.2297,-5.2438,-5.3052,-5.3402,-5.3491,-5.266,-5.2884,-5.3818,-5.3878,-5.4509,-5.5469,-5.6204,-5.6504,-5.651,-5.6501,-5.6494,-5.6491,0.0,0.0,0.0,0.0,0.0,0.0,0.0,0.0,0.0,0.0,0.0,0.0,0.0,0.0,0.0,0.0,0.0,0.0,0.0,0.0,0.0,0.0,1.1795,1.2091,1.2313,1.2626,1.3355,1.4513,1.4363,1.4927,1.6165,1.6661,1.747,1.8501,1.8538,1.8913,1.9471,1.9673,1.9925,2.0241,2.0305,0.0,0.0,0.0,0.0,0.0,0.0,0.0,0.0,1.931,1.8335,1.6892,1.4578,0.0,0.0,0.0,0.0,0.0,-0.8245,-1.0951,-1.3388,-1.551,-1.6681,-1.7564,-1.8736,-1.9323,0.0,0.0,0.0,0.0,0.0,-2.6042,-2.8125,0.0,-3.2535,-3.5732,-3.8709,-4.015,-4.1574,-4.3389,-4.4376,-4.5289,-4.6209,-4.7751,-4.875,-4.8886,-5.0328,-5.1255,-5.1394,-5.139,-5.1377,-5.1388,-5.133,-5.1296,-5.1269,-5.1201,-5.119,-5.119,-5.1376,-5.1833,-5.2475,-5.191,-5.2063,-5.2723,-5.1856,-5.2402,-5.3883,-5.3959,-5.4896,-5.6308,-5.6443,-5.6507,-5.6494,-5.6503,-5.6452,-5.6405,0.0,0.0,0.0,0.0,0.0,0.0,0.0,0.0,0.0,0.0,0.0,0.0,0.0,0.0,0.0,0.0,0.0,0.0,0.0,0.0,0.0,1.2433,1.3194,1.3463,1.3163,1.4021,1.4578,1.4808,1.5172,1.5804,1.6627,1.7199,1.7715,1.8217,1.8331,1.8646,1.9104,1.9476,1.9488,1.9287,0.0,0.0,0.0,0.0,0.0,0.0,0.0,0.0,0.0,0.0,1.6862,1.5604,1.316,0.0,0.0,0.0,0.0,0.0,-0.8063,-1.0697,-1.307,-1.5176,-1.629,-1.7227,-1.8532,-1.9579,0.0,0.0,0.0,0.0,0.0,0.0,-2.9645,-3.2289,-3.5369,-3.807,-3.9831,-4.1346,-4.2753,-4.4098,-4.5046,-4.5791,-4.6257,-4.7838,-4.8861,-4.8906,-5.0449,-5.1403,-5.1396,-5.1408,-5.1394,-5.1396,-5.1366,-5.1355,-5.1343,-5.131,-5.1289,-5.1253,-5.1281,-5.151,-5.1902,-5.1518,-5.157,-5.1932,-5.1527,-5.2081,-5.3279,-5.3788,-5.4706,-5.5833,-5.6321,-5.6484,-5.6445,-5.6407,-5.6358,-5.6283,0.0,0.0,0.0,0.0,0.0,0.0,0.0,0.0,0.0,0.0,0.0,0.0,0.0,0.0,0.0,0.0,0.0,0.0,0.0,0.0,1.2474,1.307,1.4362,1.4723,1.3965,1.5211,1.564,1.5198,1.5929,1.6631,1.7254,1.7421,1.7685,1.7999,1.7933,1.8188,1.8663,1.9073,1.9003,1.8608,0.0,0.0,0.0,0.0,0.0,0.0,0.0,0.0,0.0,0.0,0.0,0.0,0.0,0.0,0.0,0.1525,-0.1963,-0.5235,-0.7949,-1.0567,-1.2973,-1.4978,-1.6327,-1.7488,-1.8889,-2.0265,-2.1611,0.0,0.0,0.0,0.0,-2.9392,-3.1727,-3.5325,-3.7882,-3.9753,-4.0766,-4.2505,-4.3962,-4.4705,-4.5613,-4.619,-4.6264,-4.7623,-4.8594,-4.8861,-5.0272,-5.1191,-5.1386,-5.14,-5.1391,-5.1402,-5.1394,-5.1406,-5.1396,-5.1406,-5.1377,-5.1323,-5.131,-5.1352,-5.139,-5.1394,-5.1402,-5.1391,-5.1402,-5.1892,-5.2753,-5.339,-5.4275,-5.5259,-5.5919,-5.6266,-5.6359,-5.6278,-5.6218,-5.6121,0.0,0.0,0.0,0.0,0.0,0.0,0.0,0.0,0.0,0.0,0.0,0.0,0.0,0.0,0.0,0.0,0.0,0.0,0.0,0.0,1.2465,1.3066,1.4861,1.5488,1.4735,1.5375,1.5946,1.6404,1.6504,1.7034,1.7906,1.7334,1.7495,1.822,1.7622,1.7653,1.8194,1.8571,1.8821,1.8924,1.8347,0.0,0.0,0.0,0.0,0.0,0.0,0.0,0.0,0.0,0.0,0.0,0.0,0.0,0.3868,0.043,-0.2636,-0.5408,-0.7939,-1.0261,-1.2458,-1.4536,-1.6907,-1.9141,-2.065,-2.2112,0.0,-2.5007,0.0,0.0,0.0,-3.2051,-3.512,-3.79,-3.9452,-4.0655,-4.1654,-4.3361,-4.4576,-4.4782,-4.557,-4.6138,-4.6203,-4.706,-4.7923,-4.8743,-4.9738,-5.0605,-5.1367,-5.1405,-5.1402,-5.1396,-5.1396,-5.1396,-5.1396,-5.1396,-5.1405,-5.1396,-5.1398,-5.1391,-5.1396,-5.1402,-5.1406,-5.1406,-5.1403,-5.1887,-5.27,-5.2708,-5.3696,-5.519,-5.5189,-5.5647,-5.6304,-5.6165,-5.6075,-5.5993,0.0,0.0,0.0,0.0,0.0,0.0,0.0,0.0,0.0,0.0,0.0,0.0,0.0,0.0,0.0,0.0,0.0,0.0,0.0,0.0,1.2668,1.3733,1.5095,1.5477,1.4677,1.6154,1.6749,1.6395,1.6678,1.7181,1.7814,1.7413,1.747,1.7802,1.7546,1.7468,1.7557,1.7915,1.7927,1.7647,1.6989,1.6478,0.0,0.0,0.0,0.0,0.0,0.0,0.0,0.0,1.1404,1.0161,0.8679,0.5844,0.255,-0.0218,-0.2999,-0.5721,-0.8124,-1.0424,-1.2685,-1.5006,-1.7387,0.0,0.0,-2.2961,-2.4724,-2.6239,-2.7709,0.0,0.0,-3.4615,-3.7074,-3.8339,-3.9886,-4.1323,-4.2362,-4.3644,-4.4722,-4.5406,-4.5802,-4.6084,-4.6189,-4.6982,-4.7635,-4.7978,-4.9316,-5.0264,-5.0583,-5.1113,-5.1406,-5.1405,-5.1402,-5.1398,-5.1398,-5.1403,-5.1403,-5.14,-5.14,-5.1403,-5.1405,-5.1406,-5.1404,-5.1396,-5.1408,-5.1554,-5.1865,-5.2396,-5.2957,-5.3623,-5.4583,-5.5436,-5.611,-5.6059,-5.5975,-5.5789,0.0,0.0,0.0,0.0,0.0,0.0,0.0,0.0,0.0,0.0,0.0,0.0,0.0,0.0,0.0,0.0,0.0,0.0,1.2252,1.2238,1.2766,1.4118,1.5155,1.5358,1.4581,1.6374,1.6976,1.6275,1.6744,1.7157,1.7544,1.7306,1.734,1.7558,1.7288,1.7148,1.7126,1.7248,1.7086,1.6749,1.6106,1.542,0.0,0.0,0.0,0.0,0.0,0.0,0.0,0.0,0.9602,0.8463,0.7516,0.4776,0.1418,-0.0918,-0.3367,-0.5893,-0.8212,-1.0453,-1.2711,-1.5128,0.0,0.0,-2.1814,-2.3666,-2.5599,-2.765,-2.9714,-3.1892,-3.4291,-3.6482,-3.81,-3.8733,-4.0463,-4.1989,-4.2793,-4.3968,-4.5051,-4.579,-4.5941,-4.6047,-4.6166,-4.6734,-4.7197,-4.7474,-4.8619,-4.9391,-4.9673,-5.0524,-5.0995,-5.0995,-5.1269,-5.1405,-5.1405,-5.1406,-5.1405,-5.1405,-5.1406,-5.1405,-5.1403,-5.14,-5.1394,-5.1394,-5.1381,-5.1341,-5.1336,-5.1908,-5.2251,-5.2574,-5.3934,-5.4758,-5.5183,-5.513,-5.5056,-5.4879,0.0,0.0,0.0,0.0,0.0,0.0,0.0,0.0,0.0,0.0,0.0,0.0,0.0,0.0,0.0,0.0,0.0,0.0,1.22,1.2168,1.2701,1.4038,1.5003,1.518,1.4497,1.5821,1.6405,1.6208,1.6664,1.6989,1.7173,1.6916,1.7133,1.7669,1.6848,1.6652,1.6877,1.6514,1.646,1.6521,1.5943,1.5349,1.4713,0.0,0.0,0.0,0.0,0.0,0.0,0.0,0.8185,0.6659,0.5906,0.3534,0.0541,-0.1743,-0.3789,-0.5798,-0.8149,-1.0281,-1.2389,-1.4809,0.0,0.0,-2.2822,-2.4417,-2.6205,-2.9367,-3.2637,-3.5349,-3.6739,-3.7503,-3.826,-3.9419,-4.1275,-4.2657,-4.2869,-4.4451,-4.5645,-4.5766,-4.5912,-4.6033,-4.6095,-4.6166,-4.6553,-4.7411,-4.7494,-4.7881,-4.874,-4.9614,-5.009,-5.009,-5.093,-5.1379,-5.1379,-5.1379,-5.1379,-5.1398,-5.1391,-5.1385,-5.1394,-5.1394,-5.1401,-5.1394,-5.1335,-5.13,-5.1292,-5.115,-5.1567,-5.238,-5.3166,-5.3462,-5.3391,-5.3263,-5.3204,-5.3163,0.0,0.0,0.0,0.0,0.0,0.0,0.0,0.0,0.0,0.0,0.0,0.0,0.0,0.0,0.0,0.0,0.0,0.0,1.2202,1.2124,1.2604,1.3888,1.4367,1.4508,1.4343,1.5168,1.5634,1.571,1.5556,1.5796,1.637,1.6362,1.6624,1.7054,1.6571,1.626,1.6114,1.5654,1.5578,1.563,1.4929,1.4373,1.387,0.0,0.0,0.0,0.0,0.0,0.0,0.0,0.0,0.0,0.4387,0.2348,0.0041,-0.2403,-0.4227,-0.5929,-0.8267,-1.0398,0.0,-1.5429,0.0,0.0,0.0,-2.5414,0.0,0.0,-3.3836,-3.5627,-3.6532,-3.763,-3.8607,-3.9287,-4.0551,-4.1756,-4.2581,-4.379,-4.4893,-4.5654,-4.5847,-4.5968,-4.6026,-4.6085,-4.6255,-4.6553,-4.7158,-4.7605,-4.7874,-4.872,-4.9196,-4.9196,-4.948,-4.9641,-4.9641,-4.9637,-4.9927,-5.0493,-5.05,-5.0805,-5.1394,-5.1406,-5.1361,-5.1335,-5.1308,-5.1248,-5.115,-5.1017,-5.1455,-5.2237,-5.2391,-5.2781,-5.3263,-5.3163,-5.3037,-5.2847,0.0,0.0,0.0,0.0,0.0,0.0,0.0,0.0,0.0,0.0,0.0,0.0,0.0,0.0,0.0,0.0,0.0,0.0,0.0,1.2233,1.2484,1.376,1.4024,1.4124,1.4023,1.4322,1.4493,1.4515,1.4814,1.5157,1.5565,1.5927,1.6217,1.6519,1.6086,1.5784,1.5538,1.4837,1.4571,1.4581,1.3978,1.3446,1.2931,0.0,0.0,0.0,0.0,0.0,0.0,0.0,0.0,0.0,0.3577,0.1779,-0.0203,-0.2568,-0.424,-0.5772,-0.8102,-1.0297,0.0,-1.5669,-1.8279,-2.1108,-2.4913,0.0,0.0,0.0,-3.4694,-3.6159,-3.6898,-3.7871,-3.8748,-3.9192,-4.024,-4.1264,-4.196,-4.2967,-4.3902,-4.4575,-4.508,-4.537,-4.5437,-4.5822,-4.6085,-4.6158,-4.6668,-4.6989,-4.6989,-4.7816,-4.8279,-4.8283,-4.8669,-4.885,-4.8853,-4.8867,-4.9098,-4.9583,-4.9591,-5.0025,-5.0859,-5.1199,-5.133,-5.1304,-5.1239,-5.1139,-5.1017,-5.0917,-5.1148,-5.1561,-5.1472,-5.1722,-5.208,-5.2017,-5.1886,-5.1686,0.0,0.0,0.0,0.0,0.0,0.0,0.0,0.0,0.0,0.0,0.0,0.0,0.0,0.0,0.0,0.0,0.0,0.0,0.0,0.0,1.2365,1.3636,1.3898,1.3849,1.3513,1.3417,1.3233,1.2988,1.4249,1.4854,1.4814,1.5459,1.5883,1.6017,1.5453,1.5222,1.5157,1.4055,1.3537,1.3413,1.3043,1.2515,1.1882,1.1454,0.0,0.0,0.0,0.0,0.0,0.0,0.0,0.0,0.332,0.1625,-0.0195,-0.233,-0.3875,-0.5387,-0.7806,-0.9988,-1.2368,-1.5572,-1.8531,0.0,-2.7631,-3.0036,-3.163,-3.3406,-3.5248,-3.6781,-3.7504,-3.815,-3.8707,-3.9101,-4.0108,-4.0953,-4.1214,-4.2086,-4.2774,-4.3049,-4.3833,-4.4438,-4.4583,-4.5378,-4.5929,-4.6076,-4.6158,-4.6189,-4.6196,-4.695,-4.7376,-4.7372,-4.8157,-4.8552,-4.856,-4.856,-4.8595,-4.8684,-4.8679,-4.9106,-4.9917,-5.0774,-5.1226,-5.1278,-5.1147,-5.1017,-5.0906,-5.089,-5.0771,-5.0606,-5.0586,-5.0504,-5.039,-5.0302,-5.0231,-5.0139,0.0,0.0,0.0,0.0,0.0,0.0,0.0,0.0,0.0,0.0,0.0,0.0,0.0,0.0,0.0,0.0,0.0,0.0,0.0,0.0,1.2383,1.3641,1.3511,1.3159,1.2682,1.2853,1.2945,1.2988,1.3501,1.3869,1.4138,1.4686,1.5184,1.5529,1.4878,1.4592,1.4518,1.3265,1.2523,1.2167,1.2111,1.1517,1.0689,1.0622,1.0222,0.0,0.0,0.0,0.0,0.0,0.0,0.0,0.3315,0.175,0.0111,-0.1519,-0.3209,-0.5067,-0.7347,-0.9875,0.0,0.0,-1.9092,-2.358,-2.7664,-2.9682,-3.1394,-3.3762,-3.5222,-3.6316,-3.7152,-3.7791,-3.8364,-3.8892,-3.9359,-3.999,-4.0934,-4.1385,-4.1914,-4.2774,-4.3179,-4.3709,-4.4457,-4.475,-4.5212,-4.5968,-4.6027,-4.6084,-4.6193,-4.6371,-4.6469,-4.6488,-4.6655,-4.6757,-4.6762,-4.6762,-4.7094,-4.7772,-4.7788,-4.8197,-4.9001,-4.9878,-5.0596,-5.1147,-5.1004,-5.0937,-5.089,-5.0736,-5.0644,-5.0567,-5.044,-5.0348,-5.0302,-5.0182,-5.0082,-4.9978,0.0,0.0,0.0,0.0,0.0,0.0,0.0,0.0,0.0,0.0,0.0,0.0,0.0,0.0,0.0,0.0,0.0,0.0,0.0,0.0,1.2212,1.3277,1.2967,1.2527,1.2033,1.2255,1.2444,1.2615,1.2878,1.3141,1.3421,1.412,1.4526,1.4658,1.4208,1.3957,1.3766,1.2528,1.1696,1.1172,1.0977,1.045,0.981,0.9614,0.932,0.8981,0.8723,0.0,0.0,0.0,0.0,0.0,0.0,0.0,0.0327,-0.1188,-0.2848,-0.4638,-0.6921,0.0,0.0,-1.6345,0.0,-2.4381,-2.7338,-2.9499,-3.1399,-3.3257,-3.4814,-3.6147,-3.6921,-3.7614,-3.8219,-3.8634,-3.897,-3.9447,-4.0177,-4.0469,-4.0817,-4.1476,-4.2026,-4.2604,-4.3142,-4.365,-4.4312,-4.5258,-4.5382,-4.5629,-4.6075,-4.6166,-4.6196,-4.619,-4.6209,-4.6201,-4.6206,-4.6206,-4.644,-4.6877,-4.6872,-4.7284,-4.8059,-4.9362,-5.0331,-5.1004,-5.0937,-5.0858,-5.0754,-5.0625,-5.0546,-5.0462,-5.0329,-5.0255,-5.0139,-5.0057,-4.9952,-4.9843,0.0,0.0,0.0,0.0,0.0,0.0,0.0,0.0,0.0,0.0,0.0,0.0,0.0,0.0,0.0,0.0,0.0,0.0,0.0,0.0,0.0,1.2842,1.2491,1.2066,1.1615,1.1698,1.1923,1.2197,1.2368,1.258,0.0,1.3756,1.4049,1.3807,1.3593,1.3346,1.3001,1.1817,1.0897,1.0214,0.9835,0.9436,0.8995,0.8599,0.841,0.8315,0.8117,0.7647,0.702,0.632,0.0,0.0,0.0,0.0,0.0503,-0.1022,-0.2539,-0.4169,-0.639,0.0,-1.2351,-1.7943,-2.1594,0.0,-2.6716,-2.9113,-3.1139,-3.235,-3.4309,-3.602,-3.6701,-3.7395,-3.8034,-3.8396,-3.8796,-3.9156,-3.9427,-3.9647,-3.9848,-4.0118,-4.0845,-4.1473,-4.1745,-4.2487,-4.3347,-4.4291,-4.4471,-4.483,-4.553,-4.5832,-4.5971,-4.5955,-4.6131,-4.6203,-4.6195,-4.6201,-4.6195,-4.6196,-4.6169,-4.656,-4.7334,-4.8751,-4.9879,-5.0693,-5.0662,-5.0619,-5.0606,-5.0586,-5.0442,-5.0302,-5.0278,-5.0158,-4.9959,-4.9925,-4.9816,-4.9702,0.0,0.0,0.0,0.0,0.0,0.0,0.0,0.0,0.0,0.0,0.0,0.0,0.0,0.0,0.0,0.0,0.0,0.0,1.1127,0.0,0.0,1.2804,1.2431,1.2024,1.1615,1.1342,1.1523,1.2197,1.1891,0.0,0.0,0.0,0.0,1.3451,1.3181,1.2889,1.2499,1.1113,1.0016,0.9179,0.9004,0.8538,0.791,0.785,0.7782,0.7695,0.7432,0.6978,0.6435,0.5805,0.4954,0.0,0.0,0.0,0.0648,-0.0612,-0.2078,-0.3715,-0.562,0.0,-1.4033,0.0,-2.039,-2.3108,0.0,0.0,-2.9735,-3.1341,-3.3683,-3.5688,-3.6333,-3.7076,-3.7721,-3.8183,-3.8634,-3.9017,-3.9298,-3.9502,-3.9693,-3.9911,-4.0193,-4.0711,-4.1549,-4.186,-4.2375,-4.3322,-4.3453,-4.3606,-4.3821,-4.4569,-4.4987,-4.4993,-4.5776,-4.6201,-4.6201,-4.6196,-4.6196,-4.6193,-4.6075,-4.6433,-4.7217,-4.7384,-4.8348,-4.9846,-4.9677,-4.9971,-5.0606,-5.0462,-5.0371,-5.0278,-5.0182,-5.0057,-4.9898,-4.9843,-4.9673,-4.9446,0.0,0.0,0.0,0.0,0.0,0.0,0.0,0.0,0.0,0.0,0.0,0.0,0.0,0.0,0.0,1.318,1.2587,1.1993,1.1287,1.1447,1.1907,1.2695,1.2356,1.1961,1.1557,1.1256,1.13,1.1692,0.0,0.0,0.0,1.3011,1.3346,0.0,0.0,0.0,1.1913,1.0847,0.9819,0.8864,0.8775,0.8392,0.7862,0.7862,0.7807,0.7676,0.7372,0.6811,0.6126,0.5484,0.4597,0.3621,0.2765,0.0,0.0,0.0,-0.191,-0.3588,-0.6353,-0.9947,-1.3591,0.0,-1.916,-2.1852,-2.4752,-2.6916,-2.882,-3.0513,-3.2515,-3.428,-3.5518,-3.6636,-3.7522,-3.7967,-3.835,-3.8725,-3.9045,-3.9272,-3.9526,-3.9758,-3.9933,-4.0231,-4.0768,-4.0916,-4.1363,-4.2337,-4.2502,-4.2796,-4.3366,-4.3809,-4.4074,-4.4073,-4.4517,-4.4748,-4.4748,-4.5184,-4.5663,-4.6132,-4.6047,-4.6158,-4.6467,-4.6394,-4.7303,-4.8913,-4.8736,-4.9125,-4.9815,-4.9666,-4.9839,-5.0182,-5.0082,-4.9952,-4.9835,-4.9778,-4.9615,-4.9384,0.0,0.0,0.0,0.0,0.0,0.0,0.0,0.0,0.0,0.0,0.0,0.0,0.0,0.0,0.0,0.0,1.2808,1.2212,1.1738,1.1338,1.1581,1.2597,1.2271,1.1897,1.1505,1.1224,1.1138,1.1255,0.0,0.0,1.1433,1.2351,1.2669,0.0,1.2631,1.2178,0.0,0.0,0.0,0.8546,0.8442,0.8146,0.7744,0.7801,0.7712,0.7503,0.7258,0.6636,0.5833,0.5198,0.4276,0.3269,0.2626,0.1589,0.0,0.0,0.0,0.0,0.0,0.0,-1.251,-1.5374,-1.8019,-2.0664,0.0,0.0,-2.7628,-2.9422,-3.1001,-3.255,-3.4138,-3.5597,-3.6803,-3.7399,-3.783,-3.824,-3.8796,-3.9082,-3.935,-3.9623,-3.9781,-3.9914,-4.0099,-4.0215,-4.0591,-4.1363,-4.1547,-4.1917,-4.2595,-4.2939,-4.313,-4.3151,-4.3432,-4.3566,-4.3566,-4.4178,-4.4908,-4.5775,-4.5705,-4.5759,-4.5893,-4.5805,-4.6464,-4.7648,-4.7701,-4.8183,-4.8869,-4.8742,-4.8967,-4.9455,-4.9359,-4.9386,-4.941,-4.9343,-4.9337,-4.9321,0.0,0.0,0.0,0.0,0.0,0.0,0.0,0.0,0.0,0.0,0.0,0.0,1.4822,1.4699,1.4243,1.3306,1.3117,1.2841,1.228,1.1941,1.1982,1.2487,1.2179,0.0,1.1511,1.1178,1.1039,0.0,0.0,0.0,1.1126,1.1844,1.1867,1.1416,1.1866,1.1535,1.0588,0.0,0.0,0.0,0.7718,0.7423,0.7072,0.7251,0.7108,0.6775,0.6807,0.6207,0.0,0.0,0.0,0.0,0.0,0.1676,0.0235,0.0,0.0,0.0,0.0,-0.9023,0.0,-1.3933,-1.686,-1.9564,0.0,-2.3774,-2.5856,-2.7656,-2.9231,-3.0665,-3.2025,-3.3576,-3.5023,-3.6185,-3.6813,-3.7539,-3.8559,-3.8942,-3.9192,-3.9477,-3.9647,-3.9762,-3.9911,-4.0099,-4.0252,-4.0364,-4.0502,-4.0646,-4.0835,-4.1629,-4.2105,-4.2175,-4.3043,-4.3501,-4.3501,-4.3539,-4.4006,-4.487,-4.4796,-4.5176,-4.5893,-4.5761,-4.5754,-4.5873,-4.6493,-4.726,-4.8065,-4.7834,-4.7738,-4.7705,-4.758,-4.7924,-4.8456,-4.8311,-4.8665,-4.9179,0.0,0.0,0.0,0.0,0.0,0.0,0.0,0.0,0.0,0.0,0.0,0.0,0.0,1.4492,1.4235,1.3797,1.3046,1.2428,1.2071,1.176,1.1798,1.2215,1.1961,1.1674,1.1376,1.1038,1.0789,0.0,0.0,1.092,1.0532,1.1323,1.1227,1.0508,1.1434,1.1187,1.0058,0.9481,0.0,0.0,0.0,0.0,0.0,0.0,0.0,0.0,0.0,0.0,0.0,0.0,0.0,0.0,0.0,0.0,0.0,0.0,0.0,0.0,0.0,0.0,0.0,-1.26,-1.5298,-1.7939,-2.0089,-2.2345,-2.4507,-2.6091,-2.7881,-2.9433,-3.0316,-3.2569,-3.4539,-3.5224,-3.5751,-3.6286,-3.6869,-3.7237,-3.7514,-3.7729,-3.792,-3.8083,-3.8218,-3.8343,-3.8461,-3.8628,-3.9231,-3.9657,-3.9779,-4.064,-4.1132,-4.1195,-4.1571,-4.205,-4.2595,-4.2595,-4.3042,-4.3904,-4.3877,-4.4286,-4.5059,-4.4935,-4.5147,-4.5637,-4.5802,-4.6359,-4.7144,-4.693,-4.7162,-4.7571,-4.7397,-4.7454,-4.7692,-4.8047,-4.8259,-4.8371,0.0,0.0,0.0,0.0,0.0,0.0,0.0,0.0,0.0,1.538,0.0,0.0,0.0,0.0,1.4713,1.4239,1.3391,1.264,1.2136,1.1885,1.1788,1.1951,1.1747,1.1497,1.1215,1.0897,1.0534,0.0,0.0,0.0,0.0,1.0603,1.0476,0.9821,1.0441,1.0144,0.0,0.0,0.0,0.7616,0.0,0.0,0.7474,0.0,0.0,0.0,0.0,0.0,0.0,0.0,0.0,0.0,0.0,0.0,0.0,0.0,0.0,0.0,-0.5928,0.0,0.0,0.0,-1.403,-1.6501,-1.871,-2.0798,-2.2807,-2.4802,-2.6356,-2.772,-2.8817,-3.1038,-3.3062,-3.4107,-3.4657,-3.5148,-3.5786,-3.6153,-3.6454,-3.6694,-3.687,-3.7061,-3.7222,-3.7308,-3.743,-3.7585,-3.8229,-3.8678,-3.8792,-3.9384,-3.9874,-4.0256,-4.059,-4.1052,-4.1668,-4.166,-4.2106,-4.2966,-4.293,-4.3337,-4.4128,-4.4002,-4.4386,-4.5163,-4.5035,-4.5438,-4.6222,-4.605,-4.6282,-4.6711,-4.6512,-4.655,-4.6807,-4.7462,-4.7735,-4.7862,0.0,0.0,0.0,0.0,0.0,0.0,0.0,0.0,1.6748,1.6686,0.0,0.0,0.0,0.0,0.0,1.4511,1.4164,1.358,1.2581,1.2327,1.2054,1.1703,1.1556,1.133,1.0991,1.0729,1.0361,0.0,0.0,0.0,0.0,0.0,0.96,0.9341,0.883,0.8398,0.8017,0.0,0.7416,0.6699,0.0,0.6833,0.6732,0.0,0.0,0.0,0.6246,0.5624,0.0,0.3987,0.0,0.0,0.0,0.0,0.0,0.0,0.0,0.0,0.0,0.0,0.0,0.0,0.0,-1.5234,-1.7395,-1.892,-2.0734,-2.3651,-2.4657,-2.5584,-2.7461,-2.8887,-3.048,-3.2691,-3.3512,-3.424,-3.5371,-3.5824,-3.6119,-3.648,-3.6638,-3.6795,-3.6981,-3.7137,-3.7249,-3.7334,-3.7528,-3.7675,-3.7742,-3.7909,-3.8416,-3.9374,-4.0224,-4.0706,-4.0788,-4.0784,-4.1211,-4.2047,-4.1983,-4.2383,-4.3153,-4.3092,-4.3506,-4.4241,-4.4116,-4.4516,-4.5258,-4.5129,-4.5057,-4.4986,-4.4789,-4.513,-4.5839,-4.645,-4.7071,-4.7742,0.0,0.0,0.0,0.0,0.0,0.0,1.6387,1.6406,1.6411,0.0,0.0,0.0,1.5957,1.5586,1.5184,1.4733,1.4399,1.3839,1.291,1.2644,1.22,1.1504,1.1247,1.1015,1.0777,1.0523,1.0199,0.9828,0.9892,0.9623,0.9099,0.8984,0.8663,0.0,0.7435,0.6846,0.6482,0.69,0.0,0.6261,0.6257,0.622,0.0,0.0,0.0,0.0,0.0,0.4814,0.405,0.0,0.2665,0.1376,0.0,0.0,0.0,0.0,0.0,0.0,-0.6455,0.0,0.0,0.0,0.0,0.0,-1.5382,-1.7516,-1.954,-2.0798,-2.3049,-2.5021,-2.5883,-2.7431,-2.8888,-2.9807,-3.1461,-3.291,-3.3538,-3.39,-3.4196,-3.4486,-3.4707,-3.4909,-3.5053,-3.5233,-3.5386,-3.5509,-3.6196,-3.6635,-3.6706,-3.7488,-3.8362,-3.9302,-3.9557,-4.0003,-4.0648,-4.0662,-4.0777,-4.0996,-4.0996,-4.1417,-4.219,-4.2178,-4.2556,-4.3216,-4.3178,-4.3555,-4.4265,-4.4855,-4.5014,-4.4895,-4.4745,-4.4764,-4.4928,-4.5536,-4.6136,-4.6752,0.0,0.0,0.0,0.0,0.0,1.694,1.6846,1.7205,1.7495,0.0,0.0,0.0,1.7165,1.6815,1.6281,1.5453,1.5143,1.445,1.3241,1.2941,1.2532,1.1897,1.1408,1.1046,1.0844,1.0328,0.9944,0.9593,0.9429,0.912,0.8632,0.8258,0.7782,0.0,0.0,0.0,0.0,0.0,0.0,0.0,0.5599,0.0,0.0,0.5441,0.516,0.0,0.0,0.0,0.3031,0.2375,0.1118,0.0,0.0,0.0,0.0,0.0,0.0,0.0,0.0,0.0,0.0,0.0,0.0,0.0,-1.4533,-1.6228,-1.7993,-1.9403,-2.1316,-2.3086,-2.3998,-2.5673,-2.701,-2.7433,-2.9268,-3.1028,-3.2009,-3.2715,-3.3232,-3.3512,-3.3762,-3.3998,-3.4173,-3.4316,-3.4495,-3.4623,-3.5222,-3.5627,-3.5797,-3.6738,-3.7526,-3.8105,-3.8843,-3.9465,-4.001,-4.0391,-4.0564,-4.0564,-4.053,-4.0754,-4.1209,-4.1159,-4.1531,-4.222,-4.2219,-4.2593,-4.3278,-4.4155,-4.464,-4.4846,-4.4685,-4.4551,-4.4524,-4.509,-4.5686,-4.6262,0.0,0.0,1.5777,1.6365,1.7064,1.7502,1.7311,1.8388,1.9194,0.0,1.9411,1.9548,1.9177,1.8879,1.8077,1.6578,1.6182,1.5311,1.3631,1.3316,1.2983,1.2454,1.1789,1.1293,1.102,1.0243,0.9652,0.9341,0.8817,0.8432,0.8187,0.7501,0.6971,0.6521,0.0,0.0,0.0,0.0,0.0,0.458,0.4748,0.4702,0.0,0.0,0.4191,0.3734,0.3976,0.3095,0.1686,0.0567,-0.0915,0.0,0.0,0.0,0.0,0.0,-0.5891,0.0,0.0,0.0,0.0,0.0,-1.1627,0.0,-1.4271,-1.5169,-1.6388,-1.867,-1.9572,-2.0446,-2.2051,-2.3664,-2.4926,-2.5387,-2.6941,-2.8749,-3.0646,-3.185,-3.2662,-3.2931,-3.3211,-3.3451,-3.3644,-3.3821,-3.3942,-3.4078,-3.4373,-3.4695,-3.5057,-3.5813,-3.6322,-3.6463,-3.7986,-3.8917,-3.918,-3.9957,-4.0377,-4.0473,-4.0406,-4.0375,-4.0379,-4.0252,-4.0578,-4.1223,-4.122,-4.1611,-4.2299,-4.3071,-4.3875,-4.4631,-4.4513,-4.444,-4.44,-4.4867,-4.5404,-4.5956,0.0,0.0,1.6798,1.6862,1.7883,1.862,1.8437,1.8977,1.9406,1.9256,1.9428,1.9641,1.9914,1.9198,1.8489,1.7952,1.7198,1.6096,1.4485,1.4094,1.335,1.2066,1.1657,1.1353,1.1082,1.036,0.9828,0.9532,0.8682,0.8016,0.7476,0.6771,0.6169,0.5716,0.0,0.0,0.0,0.0,0.0,0.3079,0.3635,0.0,0.3347,0.3797,0.3327,0.2324,0.1895,0.1192,0.0157,-0.1621,-0.3316,-0.4781,0.0,0.0,0.0,-0.6715,0.0,0.0,0.0,0.0,0.0,0.0,0.0,0.0,-1.3552,-1.4647,-1.5753,-1.6669,-1.7996,-1.931,-2.0375,-2.1497,-2.2503,-2.3331,-2.4587,-2.6426,-2.9265,-3.0106,-3.0536,-3.0848,-3.1193,-3.1447,-3.1662,-3.1875,-3.2046,-3.2136,-3.3041,-3.3949,-3.4811,-3.5078,-3.5533,-3.6307,-3.6722,-3.7615,-3.9026,-3.9216,-3.9618,-4.027,-4.0252,-4.0252,-4.0234,-4.0157,-4.0133,-4.0201,-4.0135,-4.0564,-4.1264,-4.1337,-4.2246,-4.3649,-4.4252,-4.4325,-4.4085,-4.4128,-4.4472,-4.5057,0.0,1.6174,1.6888,1.7156,1.7994,1.8518,1.8306,1.9061,1.9597,1.9409,1.9736,2.0286,2.095,2.0511,1.9804,1.9003,1.8054,1.6945,1.563,1.4955,1.4068,1.2839,1.2221,1.167,1.1116,1.033,0.968,0.9145,0.8471,0.773,0.688,0.6175,0.5566,0.5016,0.0,0.0,0.0,0.0,0.2678,0.2479,0.3062,0.0,0.2277,0.2181,0.1605,0.072,-0.0,-0.1391,-0.2978,-0.3829,-0.4908,0.0,-0.6174,-0.6691,-0.7225,0.0,-0.8297,-0.8761,0.0,0.0,0.0,-1.1351,0.0,0.0,0.0,-1.4092,-1.4955,-1.5736,-1.6688,-1.7644,-1.8616,-1.952,-2.0419,-2.1397,-2.248,-2.3918,-2.5976,-2.7862,-2.9256,-2.998,-3.0343,-3.0639,-3.0884,-3.1144,-3.1372,-3.156,-3.2177,-3.2951,-3.3944,-3.4066,-3.4545,-3.5533,-3.597,-3.6654,-3.7585,-3.8442,-3.9051,-3.945,-3.9869,-4.0019,-3.9996,-3.9954,-3.9889,-3.98,-3.9735,-3.9892,-4.0277,-4.0609,-4.118,-4.195,-4.3183,-4.3804,-4.3974,-4.3781,-4.4062,-4.4638,1.5668,0.0,1.6719,1.7173,1.7801,1.8156,1.7896,1.9015,1.9826,1.9672,2.0244,2.095,2.1849,2.1821,2.1289,2.0203,1.899,1.7815,1.6715,1.576,1.4798,1.3807,1.288,1.1991,1.1173,1.039,0.9586,0.8832,0.8226,0.7467,0.6494,0.5751,0.5076,0.4463,0.0,0.0,0.0,0.0,0.0,0.2008,0.0,0.1846,0.1136,0.0373,-0.0235,-0.0819,-0.1841,-0.3743,-0.5782,-0.5786,-0.6219,-0.6863,-0.7584,-0.8124,0.0,0.0,0.0,0.0,0.0,0.0,0.0,0.0,0.0,-1.2591,0.0,0.0,0.0,-1.5169,-1.5529,-1.602,-1.7045,-1.777,-1.8538,-1.9558,-2.0438,-2.134,-2.2346,-2.4896,-2.716,-2.8585,-2.9043,-2.9366,-2.9601,-3.0062,-3.0524,-3.1009,-3.127,-3.183,-3.2825,-3.3119,-3.362,-3.4463,-3.5275,-3.5847,-3.6118,-3.7482,-3.8315,-3.8637,-3.9277,-3.9652,-3.9739,-3.9735,-3.9689,-3.9642,-3.9594,-3.9545,-3.9533,-4.0124,-4.0402,-4.055,-4.2166,-4.3175,-4.3688,-4.356,-4.3813,-4.4254,1.6094,1.653,0.0,1.6783,1.7666,1.8297,1.8023,1.9225,2.0172,2.0203,2.073,2.1401,2.2093,0.0,0.0,0.0,0.0,1.8755,1.7219,1.6259,1.5207,1.403,1.3081,1.2221,1.1475,1.0661,0.992,0.9238,0.8002,0.7082,0.6474,0.5557,0.4762,0.4054,0.3507,0.0,0.0,0.0,0.1603,0.0,0.0258,-0.0,0.0,-0.0919,-0.1526,-0.2178,-0.3852,-0.5099,-0.6059,0.0,-0.7757,-0.8308,0.0,-0.9633,-1.0144,-1.0703,0.0,0.0,0.0,0.0,0.0,0.0,-1.243,0.0,-1.2935,0.0,-1.3795,-1.4336,0.0,-1.4984,-1.597,0.0,0.0,-1.7802,-1.8229,-1.8793,-1.9845,-2.0589,-2.1993,-2.4618,-2.5214,-2.5512,-2.581,-2.6863,-2.7951,-2.8956,-2.9826,-3.0717,-3.1742,-3.2581,-3.3142,-3.3365,-3.4236,-3.5049,-3.5851,-3.6039,-3.6885,-3.8352,-3.8446,-3.8836,-3.9532,-3.9477,-3.9427,-3.9427,-3.9432,-3.9425,-3.9399,-3.9322,-3.9723,-4.055,-4.2166,-4.2712,-4.2654,-4.329,-4.3448,-4.3397,1.5823,1.626,0.0,1.634,1.7165,1.7755,1.7404,1.8812,2.0161,2.0867,2.1179,2.1846,0.0,0.0,0.0,0.0,0.0,2.0385,0.0,0.0,1.5823,1.4485,1.3759,1.2806,1.1393,1.035,0.9488,0.8898,0.7916,0.699,0.613,0.5341,0.4607,0.3901,0.3166,0.0,0.2365,0.0,0.0856,0.0,0.0,-0.1339,0.0,-0.2579,-0.3399,-0.4355,-0.5711,-0.6544,-0.7248,0.0,-0.8899,0.0,0.0,0.0,0.0,-1.1642,0.0,0.0,0.0,0.0,0.0,0.0,0.0,0.0,-1.324,0.0,-1.3594,-1.4007,0.0,0.0,0.0,0.0,0.0,0.0,-1.6863,-1.7372,-1.8355,-1.8796,-1.9937,-2.2493,-2.3442,-2.4206,-2.5094,-2.5817,-2.6443,-2.7018,-2.7899,-2.8846,-2.985,-3.0772,-3.1776,-3.2929,-3.3329,-3.3934,-3.4848,-3.5418,-3.604,-3.675,-3.7267,-3.7879,-3.8633,-3.8607,-3.8816,-3.9219,-3.9175,-3.9166,-3.9166,-3.9036,-3.9182,-3.9568,-4.0702,-4.1622,-4.2356,-4.2551,-4.2849,-4.316,1.5609,0.0,0.0,0.0,1.6764,1.7286,1.7344,1.8481,1.9803,2.1063,2.1743,0.0,2.3683,2.37,0.0,0.0,2.2623,2.1283,0.0,0.0,1.6785,1.523,1.444,1.3258,1.1574,1.0471,0.9485,0.8626,0.7769,0.6901,0.6002,0.5154,0.4377,0.37,0.0,0.2444,0.2243,0.0,0.0178,-0.0446,-0.1307,-0.2405,-0.3665,-0.3939,-0.4845,-0.5985,-0.6962,-0.7632,-0.8336,-0.9236,-0.9948,-1.0532,-1.0906,-1.1606,-1.2295,0.0,0.0,0.0,-1.337,0.0,0.0,0.0,0.0,0.0,0.0,0.0,0.0,-1.4141,-1.4136,0.0,0.0,0.0,-1.4653,-1.5449,0.0,-1.6131,-1.6675,-1.703,-1.8143,-2.0546,-2.1619,-2.2603,-2.3653,-2.4365,-2.4866,-2.5095,-2.6129,-2.7202,-2.8227,-2.9094,-3.0428,-3.2293,-3.2594,-3.3142,-3.4124,-3.4785,-3.5256,-3.5522,-3.6149,-3.6968,-3.7939,-3.7939,-3.8339,-3.9045,-3.8979,-3.8979,-3.8968,-3.8881,-3.8822,-3.8817,-3.9282,-4.0349,-4.1565,-4.1847,-4.2468,-4.3067,1.5651,1.5666,0.0,0.0,0.0,1.7114,1.8289,1.8489,0.0,0.0,0.0,0.0,0.0,0.0,0.0,0.0,0.0,2.088,2.0117,0.0,1.8207,0.0,0.0,1.3484,0.0,1.1516,1.0386,0.8675,0.7551,0.6748,0.6259,0.4931,0.3955,0.3303,0.2701,0.2228,0.1852,0.0638,-0.0248,-0.0943,-0.2068,-0.3398,-0.4768,0.0,-0.5593,-0.652,-0.7408,-0.8235,-0.8996,-1.0141,-1.0846,-1.1445,-1.1742,-1.2369,-1.3045,0.0,0.0,0.0,-1.3959,-1.4152,-1.4143,-1.3712,-1.385,-1.4081,-1.4075,-1.4189,-1.4389,-1.4878,-1.4611,-1.4407,-1.4809,-1.4527,-1.4287,-1.4497,-1.4777,0.0,0.0,-1.4609,-1.576,-1.828,-1.9196,-1.9744,-2.0051,-2.1651,-2.2816,-2.3072,-2.4689,-2.6082,-2.709,-2.7982,-2.9293,-3.1188,-3.2009,-3.2902,-3.3895,-3.3957,-3.4408,-3.5317,-3.5336,-3.6186,-3.771,-3.771,-3.8153,-3.891,-3.8892,-3.8892,-3.891,-3.875,-3.8707,-3.8676,-3.8515,-3.8933,-3.9779,-4.1324,-4.2414,-4.3067,0.0,0.0,0.0,0.0,0.0,0.0,0.0,1.9205,0.0,0.0,2.2967,0.0,0.0,2.3914,2.3583,0.0,0.0,2.1239,2.05,1.8693,0.0,0.0,0.0,1.3592,0.0,1.1604,1.0762,0.93,0.8122,0.6873,0.5534,0.4763,0.3872,0.3031,0.2591,0.1909,0.0,0.0,0.0,0.0,0.0,-0.4039,-0.4936,-0.5504,-0.637,-0.7394,-0.8237,-0.8977,-0.972,-1.0449,-1.1183,-1.1832,-1.195,-1.2646,-1.3325,-1.3425,-1.3591,-1.3827,-1.4359,-1.435,-1.4221,-1.4403,-1.4258,-1.4089,-1.4325,-1.431,-1.4317,-1.4631,-1.4637,-1.4588,-1.4511,-1.4467,-1.4424,-1.4308,-1.4447,-1.4429,0.0,-1.3936,-1.4284,-1.5278,-1.7198,-1.8746,-1.9551,-2.0353,-2.0918,-2.112,-2.2789,-2.404,-2.4495,-2.6294,-2.7942,-2.9293,-3.065,-3.1819,-3.2839,-3.3396,-3.3899,-3.4229,-3.4283,-3.5129,-3.6633,-3.6633,-3.7338,-3.8572,-3.8572,-3.8572,-3.859,-3.8528,-3.8496,-3.8496,-3.8387,-3.8813,-3.9652,-4.0706,-4.1542,-4.2155,1.6084,0.0,0.0,0.0,0.0,0.0,0.0,0.0,0.0,0.0,2.3191,0.0,2.4447,0.0,2.3939,0.0,2.2281,2.1301,2.0205,1.833,0.0,1.6146,1.4911,0.0,0.0,0.0,1.0667,0.9574,0.8196,0.6711,0.5083,0.4391,0.3598,0.2773,0.2395,0.1595,0.0466,-0.0243,-0.1229,0.0,0.0,-0.4392,0.0,-0.5852,-0.6773,-0.7748,-0.848,-0.9311,-1.0002,-1.0645,-1.1411,-1.2125,-1.2158,-1.2781,-1.3457,-1.3425,-1.3696,-1.4057,-1.4477,-1.4538,-1.4542,-1.4887,-1.466,-1.4485,-1.4755,-1.4673,-1.4607,-1.4832,-1.4902,-1.4869,-1.4803,-1.4644,-1.4471,-1.4379,-1.4338,-1.4173,0.0,-1.3454,-1.3373,-1.3376,-1.5273,-1.6997,-1.8026,-1.859,-1.911,-1.9596,-2.1285,-2.2522,-2.3003,-2.5059,-2.6845,-2.8183,-2.9508,-3.0851,-3.218,-3.2744,-3.3201,-3.3605,-3.3633,-3.4473,-3.5994,-3.5994,-3.6869,-3.8368,-3.8368,-3.8368,-3.8382,-3.8368,-3.8368,-3.8336,-3.8256,-3.8497,-3.9095,-4.0183,-4.1179,-4.1983,1.6399,0.0,0.0,0.0,1.7666,0.0,0.0,0.0,1.9793,0.0,2.3339,2.3858,2.3132,2.3903,2.4013,2.3135,2.2176,2.0994,1.9361,1.8458,0.0,0.0,1.4622,1.3138,1.2317,0.0,0.0,0.9484,0.789,0.6361,0.4889,0.3872,0.3116,0.2597,0.208,0.0,0.0123,-0.0556,-0.152,-0.2639,-0.3695,-0.4525,-0.5259,-0.5904,-0.6637,-0.7424,-0.825,-0.9181,-1.0032,-1.0806,-1.1632,-1.2271,-1.2365,-1.2856,-1.3465,-1.3302,-1.37,-1.4227,-1.4307,-1.4749,-1.5194,-1.5121,-1.5135,-1.5186,-1.5348,-1.5253,-1.5233,-1.5537,-1.531,-1.5151,-1.5583,-1.4929,-1.4364,-1.4579,-1.4399,-1.3932,-1.3053,-1.3022,-1.2956,-1.2653,-1.3506,-1.4497,-1.5445,-1.6434,-1.7445,-1.841,-2.0093,-2.1496,-2.2504,-2.416,-2.5887,-2.7717,-2.8558,-2.9971,-3.1894,-3.1948,-3.2451,-3.3364,-3.3364,-3.4214,-3.5765,-3.5783,-3.6685,-3.8274,-3.8274,-3.8322,-3.835,-3.8322,-3.8274,-3.8274,-3.807,-3.802,-3.8236,-3.9806,-4.1279,-4.2503,1.7063,1.7447,1.7824,0.0,1.8559,1.8618,0.0,0.0,0.0,0.0,2.3061,2.3547,2.4103,2.373,2.3047,2.2176,2.1195,0.0,0.0,0.0,0.0,1.4874,1.4207,1.3546,1.2624,1.0948,0.9631,0.877,0.7818,0.6644,0.5183,0.3601,0.2784,0.263,0.1635,0.0693,-0.0062,-0.105,-0.1983,-0.2928,-0.3919,-0.456,-0.4899,-0.5683,-0.641,-0.7167,-0.8087,-0.8979,-0.9771,-1.0444,-1.1172,-1.1898,-1.202,-1.2511,-1.3127,-1.307,-1.3528,-1.4103,-1.4477,-1.4735,-1.4913,-1.5233,-1.5195,-1.5222,-1.5589,-1.5492,-1.5412,-1.567,-1.5588,-1.5413,-1.5355,-1.497,-1.4651,-1.4536,-1.402,-1.3557,-1.3304,-1.3094,-1.2938,-1.2901,-1.2921,-1.3374,-1.4441,-1.5422,-1.6185,-1.662,-1.8253,-1.963,-2.0637,-2.2251,-2.3926,-2.5692,-2.7133,-2.875,-3.0504,-3.1249,-3.2068,-3.288,-3.2961,-3.3834,-3.5357,-3.546,-3.6371,-3.7863,-3.7951,-3.8003,-3.8038,-3.8003,-3.8003,-3.8003,-3.7969,-3.824,-3.8779,-3.982,-4.1163,-4.2463,1.7691,1.8063,0.0,1.8203,0.0,0.0,1.8907,1.9207,0.0,2.2196,2.2166,0.0,2.3209,2.2422,2.1445,2.0555,1.9546,0.0,1.8172,0.0,0.0,1.4244,1.3312,1.2631,1.2112,1.0322,0.0,0.8568,0.7507,0.6294,0.4908,0.3413,0.2711,0.2647,0.1274,0.0291,-0.0434,-0.163,-0.2484,-0.3072,-0.3993,-0.454,0.0,-0.5476,-0.6173,-0.688,-0.7672,-0.8645,-0.956,-1.0262,-1.0965,-1.1597,-1.184,-1.2282,-1.2745,-1.2781,-1.3224,-1.3821,-1.424,-1.4538,-1.4811,-1.5276,-1.5334,-1.533,-1.5659,-1.5647,-1.5581,-1.5612,-1.5671,-1.5645,-1.5476,-1.5237,-1.4887,-1.4601,-1.3993,-1.3516,0.0,0.0,0.0,-1.2927,-1.2547,-1.2614,-1.3374,-1.4115,-1.4893,-1.5711,-1.706,-1.84,-1.9615,-2.1284,-2.2965,-2.4684,-2.6048,-2.7736,-2.9772,-3.0425,-3.1329,-3.2488,-3.2606,-3.3488,-3.5048,-3.5101,-3.6025,-3.7559,-3.7667,-3.7703,-3.7775,-3.781,-3.781,-3.781,-3.781,-3.8205,-3.8881,-3.9664,-4.0753,-4.1877,1.8211,0.0,0.0,0.0,0.0,0.0,0.0,1.9436,0.0,2.1298,0.0,2.0731,2.1221,2.0564,1.9745,1.8735,1.7707,1.7044,1.6951,1.6008,1.5064,1.4106,1.2331,1.1215,1.0921,0.9485,0.8658,0.0,0.7043,0.5615,0.4353,0.3246,0.2635,0.2411,0.0,0.0,0.0,-0.2158,-0.284,-0.3072,-0.3993,-0.454,-0.4698,-0.5326,-0.6022,-0.6637,-0.7253,-0.825,-0.9316,-1.0104,-1.0692,-1.1236,-1.1607,-1.1924,-1.2235,-1.2476,-1.2858,-1.3329,-1.3821,-1.43,-1.4715,-1.5177,-1.5355,-1.5467,-1.5632,-1.5733,-1.5753,-1.5592,-1.5657,-1.5787,-1.5849,-1.5569,-1.5181,-1.4706,-1.4267,-1.3868,0.0,0.0,0.0,0.0,-1.2591,0.0,-1.253,-1.2907,-1.3706,-1.5079,-1.6173,-1.7429,-1.8882,-2.0607,-2.2348,-2.4104,-2.5067,-2.6753,-2.9231,-2.9573,-3.0455,-3.1969,-3.2144,-3.3108,-3.4726,-3.4726,-3.5682,-3.7299,-3.7354,-3.7429,-3.754,-3.7595,-3.7631,-3.7631,-3.7631,-3.795,-3.851,-3.9327,-4.0126,-4.0925,1.8458,0.0,0.0,0.0,0.0,1.8625,1.9305,1.9925,2.0163,1.9769,2.0129,2.0073,1.9338,1.9196,1.8635,1.7606,1.6669,0.0,0.0,0.0,0.0,1.305,1.1925,1.0566,0.9104,0.8789,0.833,0.0,0.6282,0.4928,0.3749,0.3026,0.2186,0.1177,0.0,0.0,-0.1428,-0.2297,-0.284,-0.3072,-0.3993,-0.4384,-0.454,-0.5323,-0.5864,-0.6398,-0.7173,-0.8093,-0.8908,-0.9332,-0.9969,-1.0563,-1.0621,-1.1095,-1.1711,-1.2094,-1.249,-1.2981,-1.345,-1.3941,-1.4369,-1.4706,-1.5119,-1.5533,-1.5934,-1.5943,-1.5977,-1.6232,-1.5931,-1.5736,-1.608,-1.5855,-1.5439,-1.4878,-1.4929,-1.4894,0.0,0.0,0.0,0.0,0.0,-1.3206,-1.2867,-1.2839,-1.3038,-1.349,-1.4818,-1.606,-1.7093,-1.8695,-2.06,-2.2832,-2.3833,-2.5481,-2.7904,-2.8798,-2.9726,-3.0724,-3.1526,-3.2726,-3.4314,-3.4408,-3.536,-3.6891,-3.7009,-3.7126,-3.7185,-3.7223,-3.7261,-3.7372,-3.7372,-3.7405,-3.7636,-3.8433,-3.9191,-3.9976,1.8748,0.0,0.0,0.0,0.0,0.0,1.8021,1.8498,1.8896,1.9015,1.884,1.8535,1.8079,1.752,1.6857,1.5812,1.4867,1.3811,1.2748,1.2268,1.1683,1.1194,1.0609,0.9573,0.7867,0.7852,0.7274,0.6173,0.5304,0.4242,0.3137,0.2523,0.1738,0.0842,0.0,-0.1015,0.0,-0.2516,-0.2913,-0.3072,-0.3921,-0.4309,-0.4462,-0.5165,-0.5783,-0.6318,-0.7099,-0.7804,-0.8459,-0.9107,-0.9554,-0.9915,-1.0275,-1.0692,-1.112,-1.1667,-1.212,-1.2552,-1.3033,-1.3459,-1.3941,-1.4359,-1.4715,-1.5177,-1.5642,-1.5894,-1.6071,-1.6191,-1.6194,-1.6187,-1.6291,-1.5784,-1.529,-1.5194,-1.5078,-1.4942,-1.4813,0.0,-1.4577,0.0,0.0,0.0,-1.2789,-1.2456,-1.2449,-1.2816,-1.3883,-1.5068,-1.6374,-1.7906,-1.9636,-2.1666,-2.2981,-2.4607,-2.6631,-2.8022,-2.9147,-3.0112,-3.0972,-3.2269,-3.3945,-3.4002,-3.495,-3.6568,-3.669,-3.6771,-3.6811,-3.6873,-3.7031,-3.7203,-3.7203,-3.7203,-3.7291,-3.8104,-3.8818,-3.9564,0.0,1.8725,0.0,0.0,1.8018,1.8036,1.6699,1.6584,1.7037,1.7986,1.7326,1.6662,1.6662,1.5724,1.4771,1.3715,1.2754,1.178,1.09,1.0605,1.0113,0.9327,0.9031,0.8236,0.6799,0.6789,0.6087,0.0,0.4323,0.353,0.257,0.2047,0.1403,0.0619,-0.0777,-0.1562,-0.1811,-0.2595,-0.2987,-0.3097,-0.3853,-0.4231,-0.4462,-0.5087,-0.5705,-0.6314,-0.6904,-0.7468,-0.8116,-0.8794,-0.9168,-0.9443,-0.9994,-1.0354,-1.0681,-1.131,-1.1747,-1.2127,-1.2621,-1.3042,-1.3519,-1.3941,-1.4359,-1.4765,-1.5186,-1.57,-1.6069,-1.6098,-1.644,-1.6681,-1.6466,-1.5825,-1.5379,-1.5636,-1.5266,-1.4953,-1.5053,-1.474,-1.4509,0.0,0.0,0.0,-1.2682,-1.217,-1.2012,-1.2326,-1.3168,-1.4255,-1.5567,-1.733,-1.8967,-2.0476,-2.225,-2.3871,-2.5436,-2.7246,-2.8566,-2.9438,-3.0379,-3.1729,-3.3342,-3.3512,-3.4438,-3.5933,-3.6207,-3.6377,-3.6461,-3.665,-3.6851,-3.6992,-3.7031,-3.7031,-3.7119,-3.7791,-3.8433,-3.9122,0.0,0.0,0.0,1.805,1.6709,1.5811,1.5869,1.5184,1.4962,1.592,1.5248,1.458,1.458,1.3721,1.2662,1.1585,1.0511,0.9826,0.9727,0.8832,0.8237,0.8137,0.7235,0.6407,0.583,0.5822,0.524,0.0,0.3474,0.2943,0.2248,0.1958,0.1178,0.0056,-0.0761,-0.14,-0.1946,-0.2519,-0.2842,-0.3099,-0.4031,-0.4384,-0.4462,-0.5246,-0.5864,-0.63,-0.6768,-0.72,-0.7597,-0.7965,-0.855,-0.9148,-0.932,-0.981,-1.0428,-1.0996,-1.1373,-1.1809,-1.2436,-1.2805,-1.3103,-1.345,-1.4052,-1.4597,-1.497,-1.5478,-1.5979,-1.6312,-1.6634,-1.6804,-1.6608,-1.6432,-1.6277,-1.6312,-1.5984,-1.5598,-1.5311,-1.5229,-1.4955,-1.4234,0.0,0.0,-1.2799,-1.2387,-1.199,-1.1562,-1.2654,-1.3464,-1.3727,-1.6428,-1.8385,-1.9315,-2.1506,-2.3169,-2.4265,-2.651,-2.7818,-2.8204,-2.965,-3.0991,-3.2185,-3.2832,-3.37,-3.4711,-3.5511,-3.5993,-3.6251,-3.6461,-3.6544,-3.6568,-3.6748,-3.6811,-3.6869,-3.7058,-3.7544,-3.8233,1.8249,1.7386,1.6657,1.5801,1.5168,1.4542,1.404,1.3136,1.2355,1.215,1.2257,1.216,1.1575,1.1091,1.0408,0.9418,0.8329,0.7633,0.7633,0.7235,0.6736,0.6137,0.5634,0.4958,0.4043,0.4036,0.3698,0.3059,0.2339,0.1864,0.1545,0.1412,0.0628,-0.0692,-0.145,-0.2055,-0.2547,-0.2684,-0.3041,-0.3485,-0.4037,-0.4462,-0.4771,-0.5243,-0.5864,-0.6461,-0.6753,-0.7175,-0.7566,-0.7912,-0.822,-0.8619,-0.9174,-0.96,-1.0117,-1.0624,-1.1059,-1.1498,-1.1996,-1.2428,-1.2858,-1.3268,-1.3752,-1.4181,-1.4725,-1.5137,-1.5604,-1.6124,-1.6424,-1.6682,-1.6766,-1.6569,-1.6411,-1.6437,-1.6079,-1.5822,-1.5837,-1.5286,-1.473,-1.4346,0.0,-1.3526,-1.2492,-1.2411,-1.2221,-1.1736,-1.2499,-1.3089,-1.3248,-1.5931,-1.7688,-1.8155,-2.0828,-2.2485,-2.302,-2.569,-2.7248,-2.7664,-2.913,-3.0446,-3.1603,-3.1901,-3.2857,-3.4381,-3.5211,-3.5711,-3.5949,-3.6036,-3.6191,-3.6402,-3.6468,-3.6609,-3.6766,-3.6806,-3.7277,-3.7986,1.6629,1.5713,1.4764,1.3894,1.3519,1.2937,1.158,1.0498,0.941,0.8326,0.8616,0.881,0.8627,0.8428,0.7928,0.7138,0.6037,0.5436,0.5436,0.5436,0.4933,0.393,0.383,0.3406,0.2518,0.2155,0.1917,0.1799,0.1194,0.0758,0.0423,0.0478,-0.0202,-0.148,-0.1951,-0.2589,-0.3205,-0.3244,-0.3421,-0.3749,-0.4203,-0.4618,-0.5082,-0.5476,-0.5992,-0.6623,-0.683,-0.7165,-0.7617,-0.7822,-0.8113,-0.8371,-0.9017,-0.9472,-0.9862,-1.0371,-1.087,-1.131,-1.1677,-1.212,-1.2613,-1.3094,-1.3519,-1.395,-1.4419,-1.4902,-1.5381,-1.6066,-1.6364,-1.6624,-1.6851,-1.6677,-1.6445,-1.6463,-1.5995,-1.5686,-1.5866,-1.5153,-1.4534,-1.4322,-1.3997,-1.3435,-1.2548,-1.2448,-1.2323,-1.201,-1.2446,-1.2882,-1.3193,-1.5659,-1.7122,-1.7338,-2.0236,-2.1925,-2.2126,-2.5049,-2.6717,-2.7206,-2.865,-2.9817,-3.0794,-3.1111,-3.2149,-3.3751,-3.4325,-3.474,-3.4935,-3.505,-3.5343,-3.5788,-3.5931,-3.6212,-3.6602,-3.6643,-3.7015,-3.7547,1.5765,1.5045,1.3992,1.3033,1.197,1.0507,0.8336,0.7135,0.6037,0.5035,0.3932,0.4133,0.6234,0.5534,0.4834,0.4834,0.3833,0.323,0.323,0.323,0.2726,0.1718,0.1617,0.156,0.1438,0.0539,-0.0,-0.0,-0.0,-0.0392,-0.1096,-0.1061,-0.148,-0.2154,-0.2221,-0.2785,-0.3839,-0.4226,-0.4148,-0.3839,-0.4693,-0.5004,-0.5082,-0.5948,-0.6395,-0.6607,-0.6801,-0.7255,-0.7677,-0.7673,-0.8062,-0.8576,-0.8894,-0.9344,-0.9862,-1.018,-1.0681,-1.1185,-1.1677,-1.2058,-1.2428,-1.2867,-1.3407,-1.389,-1.413,-1.4734,-1.5449,-1.6202,-1.6524,-1.6673,-1.6944,-1.6721,-1.6514,-1.6514,-1.5727,-1.5154,-1.5191,-1.4915,-1.4552,-1.4168,-1.3974,-1.3666,-1.315,-1.2482,-1.2119,-1.2172,-1.2443,-1.2842,-1.3471,-1.5543,-1.676,-1.6904,-1.9806,-2.1505,-2.1729,-2.4591,-2.6244,-2.6704,-2.8199,-2.909,-2.9547,-3.0616,-3.1663,-3.2628,-3.2685,-3.2802,-3.295,-3.3305,-3.3872,-3.4549,-3.5032,-3.5663,-3.6343,-3.6602,-3.6602,-3.6728,1.278,1.1868,1.0792,0.9715,0.8619,0.7425,0.6034,0.4935,0.383,0.2724,0.2929,0.2625,0.1108,0.1916,0.232,0.1613,0.1211,0.101,0.101,0.101,0.0909,0.0505,-0.1343,-0.2482,-0.2508,-0.2151,-0.1973,-0.1975,-0.1808,-0.1804,-0.204,-0.2052,-0.247,-0.3295,-0.3295,-0.3505,-0.3841,-0.4545,-0.4698,-0.4693,-0.5085,-0.5553,-0.5935,-0.637,-0.6749,-0.7036,-0.7161,-0.7422,-0.7744,-0.8134,-0.8387,-0.8576,-0.9139,-0.953,-0.9862,-1.018,-1.0681,-1.1185,-1.1677,-1.1996,-1.2305,-1.2858,-1.3224,-1.358,-1.407,-1.4775,-1.542,-1.5652,-1.5999,-1.6285,-1.6389,-1.6388,-1.635,-1.635,-1.5637,-1.5088,-1.519,-1.4666,-1.406,-1.3662,-1.3814,-1.3788,-1.334,-1.3287,-1.3343,-1.3605,-1.3803,-1.3854,-1.3786,-1.5373,-1.6725,-1.7692,-1.9784,-2.1247,-2.1882,-2.3926,-2.5379,-2.6259,-2.7334,-2.8326,-2.9275,-3.0419,-3.1144,-3.1495,-3.2241,-3.2635,-3.2785,-3.2988,-3.3338,-3.377,-3.3896,-3.4541,-3.5351,-3.5452,-3.5761,-3.6303,0.9608,0.852,0.7431,0.6434,0.5334,0.4228,0.3123,0.2117,0.111,0.0505,0.0606,-0.0101,-0.2521,-0.1613,-0.0907,-0.1211,-0.1211,-0.1211,-0.1211,-0.1211,-0.1211,-0.1211,-0.3555,-0.5013,-0.5364,-0.4472,-0.3939,-0.3942,-0.3819,-0.3651,-0.3448,-0.3448,-0.3763,-0.4233,-0.4233,-0.4233,-0.4311,-0.5171,-0.5479,-0.5473,-0.5789,-0.6177,-0.6626,-0.6911,-0.7175,-0.7445,-0.7619,-0.7861,-0.8041,-0.8495,-0.8705,-0.8952,-0.939,-0.9786,-1.0117,-1.0371,-1.0744,-1.1247,-1.1685,-1.2058,-1.2375,-1.2858,-1.3216,-1.3511,-1.4181,-1.4715,-1.5186,-1.5313,-1.5546,-1.5778,-1.5826,-1.5884,-1.5941,-1.5941,-1.5249,-1.4724,-1.484,-1.42,-1.3658,-1.3493,-1.3617,-1.3619,-1.3504,-1.3542,-1.3691,-1.4054,-1.4225,-1.443,-1.47,-1.5874,-1.6952,-1.7921,-1.981,-2.1126,-2.1787,-2.3374,-2.4639,-2.547,-2.6765,-2.7984,-2.9029,-2.9888,-3.0309,-3.0477,-3.1169,-3.1588,-3.1781,-3.1911,-3.2293,-3.2799,-3.2966,-3.3549,-3.4389,-3.4763,-3.5173,-3.5702,0.6234,0.5233,0.4131,0.3027,0.202,0.101,-0.0101,-0.1111,-0.1818,-0.1818,-0.2726,-0.3831,-0.4834,-0.4935,-0.4634,-0.3632,-0.3432,-0.343,-0.343,-0.343,-0.343,-0.343,-0.4893,-0.621,-0.7054,-0.6254,-0.5808,-0.5808,-0.5819,-0.559,-0.5224,-0.5145,-0.5126,-0.5096,-0.5096,-0.5096,-0.5249,-0.6025,-0.6416,-0.6412,-0.6721,-0.6949,-0.7234,-0.7637,-0.7739,-0.784,-0.8235,-0.8424,-0.8582,-0.877,-0.9145,-0.9518,-0.9582,-1.0034,-1.0624,-1.0624,-1.0933,-1.1365,-1.174,-1.2182,-1.2683,-1.292,-1.3277,-1.3692,-1.4291,-1.4529,-1.4775,-1.5088,-1.5156,-1.5205,-1.5303,-1.5352,-1.5352,-1.5352,-1.4642,-1.4087,-1.4247,-1.3641,-1.3266,-1.3525,-1.3376,-1.3339,-1.3573,-1.3465,-1.3463,-1.3824,-1.4064,-1.4761,-1.6081,-1.6875,-1.7453,-1.7813,-1.9778,-2.1032,-2.1419,-2.2873,-2.3926,-2.4552,-2.6413,-2.7783,-2.8716,-2.8871,-2.9194,-2.9572,-2.9701,-2.9908,-3.0189,-3.0384,-3.0983,-3.1724,-3.2042,-3.2645,-3.3431,-3.4371,-3.4797,-3.5087,0.2925,0.1917,0.0807,-0.0303,-0.0707,-0.1212,-0.2322,-0.3328,-0.4031,-0.4031,-0.4933,-0.5734,-0.6034,-0.6736,-0.7138,-0.6836,-0.6137,-0.5634,-0.5634,-0.5634,-0.5634,-0.5634,-0.6033,-0.6475,-0.7061,-0.67,-0.6435,-0.6435,-0.7058,-0.7337,-0.7193,-0.6761,-0.636,-0.6028,-0.6028,-0.6331,-0.6945,-0.7099,-0.7253,-0.7253,-0.794,-0.8169,-0.8053,-0.8297,-0.8411,-0.8459,-0.8732,-0.8874,-0.8958,-0.9414,-0.9734,-0.9919,-1.0231,-1.0618,-1.0933,-1.0807,-1.1122,-1.1622,-1.1934,-1.2313,-1.2683,-1.292,-1.3346,-1.3761,-1.3941,-1.4121,-1.4369,-1.4428,-1.4547,-1.4656,-1.4706,-1.4706,-1.4706,-1.4706,-1.4092,-1.3666,-1.3666,-1.3256,-1.2968,-1.3065,-1.3338,-1.3549,-1.3746,-1.4298,-1.478,-1.5049,-1.5635,-1.6254,-1.6896,-1.7762,-1.8548,-1.9146,-2.0007,-2.0858,-2.1713,-2.2488,-2.3443,-2.4687,-2.5773,-2.6566,-2.6993,-2.741,-2.7914,-2.8526,-2.886,-2.9367,-2.9897,-3.0189,-3.05,-3.0833,-3.09,-3.1475,-3.2387,-3.2614,-3.3474,-3.4547,-0.0404,-0.111,-0.1817,-0.2924,-0.3026,-0.3428,-0.4533,-0.5135,-0.5737,-0.6237,-0.6736,-0.7138,-0.7138,-0.8134,-0.8733,-0.8733,-0.7736,-0.7138,-0.7138,-0.7138,-0.7335,-0.7832,-0.7832,-0.7941,-0.8124,-0.758,-0.7408,-0.758,-0.8025,-0.8288,-0.8376,-0.846,-0.8255,-0.7959,-0.7552,-0.7638,-0.8016,-0.8016,-0.8016,-0.8169,-0.9155,-0.9533,-0.9562,-0.9368,-0.9308,-0.9302,-0.9597,-0.9574,-0.953,-0.9989,-1.0244,-1.0428,-1.0744,-1.1066,-1.131,-1.1373,-1.1622,-1.1996,-1.2251,-1.2621,-1.2989,-1.3164,-1.3528,-1.383,-1.383,-1.389,-1.401,-1.401,-1.4061,-1.4052,-1.4052,-1.4112,-1.4181,-1.4181,-1.3639,-1.3232,-1.3341,-1.2959,-1.2753,-1.3145,-1.3491,-1.3916,-1.433,-1.4882,-1.5322,-1.5631,-1.6165,-1.6715,-1.7272,-1.7998,-1.8697,-1.9387,-2.0105,-2.0783,-2.1506,-2.2231,-2.3207,-2.4415,-2.5077,-2.5727,-2.6304,-2.666,-2.7083,-2.768,-2.8259,-2.8828,-2.9356,-2.9827,-3.013,-3.0359,-3.0468,-3.0842,-3.1383,-3.1817,-3.2538,-3.3412,-0.3531,-0.3732,-0.4033,-0.5135,-0.5236,-0.5634,-0.6537,-0.6637,-0.7036,-0.8137,-0.8237,-0.8237,-0.8237,-0.9229,-0.9821,-0.9821,-0.9031,-0.8435,-0.8237,-0.8237,-0.8733,-0.9821,-0.9821,-0.9672,-0.945,-0.8723,-0.8548,-0.8811,-0.8811,-0.8899,-0.9161,-0.9859,-1.0101,-1.0024,-0.9216,-0.8851,-0.8851,-0.8851,-0.8927,-0.9155,-1.0212,-1.0887,-1.1236,-1.0651,-1.0313,-1.0227,-1.0501,-1.0419,-1.0238,-1.0618,-1.0807,-1.0996,-1.1185,-1.1498,-1.1809,-1.212,-1.2305,-1.249,-1.2621,-1.2936,-1.3302,-1.345,-1.364,-1.3709,-1.3709,-1.3709,-1.3709,-1.3709,-1.3519,-1.339,-1.339,-1.358,-1.3709,-1.3709,-1.3226,-1.2919,-1.3204,-1.2779,-1.2742,-1.3452,-1.3789,-1.4246,-1.4903,-1.5258,-1.5613,-1.5832,-1.6298,-1.6871,-1.7461,-1.8005,-1.8568,-1.9183,-2.0064,-2.0772,-2.1277,-2.2137,-2.3011,-2.3931,-2.4357,-2.4957,-2.5818,-2.5997,-2.6352,-2.6898,-2.7636,-2.8204,-2.8753,-2.9475,-2.9913,-3.0146,-3.0359,-3.0443,-3.0609,-3.145,-3.1851,-3.2177,-0.5834,-0.5934,-0.6237,-0.7338,-0.7537,-0.754,-0.7739,-0.7739,-0.8137,-0.9229,-0.9331,-0.9331,-0.9331,-1.0314,-1.0998,-1.0998,-1.0801,-1.031,-0.9426,-0.9331,-0.9821,-1.09,-1.0998,-1.0617,-0.9883,-0.9777,-0.9689,-0.9777,-0.9777,-0.9777,-0.9864,-1.0477,-1.06,-1.0231,-0.9907,-0.969,-0.969,-0.969,-1.0143,-1.0732,-1.0962,-1.1484,-1.2077,-1.1729,-1.1319,-1.0972,-1.1222,-1.1189,-1.0996,-1.131,-1.156,-1.1677,-1.1872,-1.2189,-1.2498,-1.2621,-1.2928,-1.3119,-1.2867,-1.3058,-1.3302,-1.345,-1.3467,-1.3363,-1.3363,-1.3233,-1.3103,-1.3103,-1.3103,-1.3103,-1.3103,-1.3233,-1.3363,-1.3363,-1.3236,-1.3173,-1.3345,-1.3351,-1.339,-1.3651,-1.4129,-1.4538,-1.4661,-1.5489,-1.5999,-1.6052,-1.696,-1.7607,-1.7838,-1.8389,-1.8879,-1.9169,-1.9863,-2.0723,-2.1712,-2.2184,-2.2644,-2.3094,-2.3467,-2.379,-2.3996,-2.4441,-2.5006,-2.5737,-2.6796,-2.7644,-2.8275,-2.9303,-2.9798,-2.9897,-3.0,-3.0231,-3.0417,-3.0575,-3.1148,-3.1967,-0.8131,-0.8131,-0.823,-0.8733,-0.8832,-0.8832,-0.8832,-0.8832,-0.9034,-0.9529,-1.0117,-1.0507,-1.0507,-1.09,-1.1194,-1.1194,-1.1688,-1.1883,-1.1389,-1.0801,-1.09,-1.198,-1.2073,-1.1749,-1.11,-1.0814,-1.0722,-1.0722,-1.0722,-1.0814,-1.0901,-1.1332,-1.142,-1.1249,-1.0931,-1.069,-1.0513,-1.0513,-1.1037,-1.1781,-1.1781,-1.2224,-1.29,-1.2666,-1.2391,-1.211,-1.2275,-1.2159,-1.1921,-1.2056,-1.2112,-1.2236,-1.2428,-1.256,-1.2744,-1.3103,-1.3233,-1.3302,-1.3224,-1.3277,-1.3407,-1.345,-1.3407,-1.3302,-1.3302,-1.3119,-1.2867,-1.2867,-1.2805,-1.2805,-1.2805,-1.2989,-1.3111,-1.3111,-1.3169,-1.3269,-1.3385,-1.3478,-1.3633,-1.4033,-1.4592,-1.5073,-1.527,-1.6029,-1.6488,-1.6488,-1.7247,-1.7755,-1.7909,-1.8398,-1.8827,-1.9186,-2.0003,-2.0772,-2.1568,-2.1996,-2.2402,-2.2799,-2.3038,-2.3348,-2.3595,-2.3809,-2.4261,-2.4856,-2.6165,-2.7052,-2.7664,-2.8876,-2.9531,-2.9754,-2.987,-3.0,-3.0189,-3.0375,-3.0658,-3.1156,-1.0019,-1.0019,-1.0019,-1.0019,-1.0019,-1.0019,-1.0019,-1.0019,-1.0019,-1.0019,-1.0708,-1.1292,-1.1585,-1.159,-1.159,-1.159,-1.2273,-1.2764,-1.2764,-1.2268,-1.217,-1.2764,-1.2835,-1.2551,-1.2141,-1.1849,-1.1671,-1.1671,-1.1585,-1.1671,-1.1929,-1.2186,-1.2242,-1.2182,-1.1952,-1.1609,-1.126,-1.1335,-1.1855,-1.2599,-1.2599,-1.2973,-1.3637,-1.3622,-1.3423,-1.3252,-1.3271,-1.3165,-1.2946,-1.2845,-1.2857,-1.2902,-1.3005,-1.3042,-1.3103,-1.3519,-1.3528,-1.3476,-1.358,-1.3511,-1.3511,-1.3511,-1.3346,-1.3241,-1.3241,-1.2997,-1.2744,-1.2744,-1.2683,-1.2629,-1.2621,-1.2867,-1.305,-1.305,-1.3237,-1.3401,-1.3517,-1.3688,-1.3997,-1.4525,-1.511,-1.5578,-1.5999,-1.6477,-1.6818,-1.6931,-1.7379,-1.7755,-1.7963,-1.8398,-1.8881,-1.9396,-2.0156,-2.0858,-2.1375,-2.1793,-2.2217,-2.2618,-2.2799,-2.3113,-2.3508,-2.3551,-2.3824,-2.4296,-2.5749,-2.6601,-2.706,-2.8507,-2.9275,-2.9592,-2.9738,-2.987,-2.9973,-3.0231,-3.0359,-3.0516,-1.1096,-1.1096,-1.1096,-1.1096,-1.1096,-1.1096,-1.1096,-1.1096,-1.1096,-1.1096,-1.1194,-1.159,-1.257,-1.2667,-1.2667,-1.2667,-1.2764,-1.2764,-1.2764,-1.3624,-1.3721,-1.2861,-1.2721,-1.2697,-1.2625,-1.2619,-1.2619,-1.2619,-1.2448,-1.2448,-1.2619,-1.3052,-1.3022,-1.2492,-1.2609,-1.2298,-1.1706,-1.2077,-1.2673,-1.3419,-1.3419,-1.371,-1.4129,-1.4768,-1.456,-1.3901,-1.4162,-1.4185,-1.4007,-1.378,-1.3853,-1.3928,-1.3761,-1.3709,-1.3769,-1.395,-1.395,-1.395,-1.383,-1.364,-1.3511,-1.3511,-1.3277,-1.305,-1.305,-1.2805,-1.2621,-1.2621,-1.2629,-1.2621,-1.2744,-1.2928,-1.305,-1.3241,-1.3571,-1.3786,-1.3965,-1.4346,-1.4749,-1.5099,-1.5575,-1.5999,-1.6316,-1.6658,-1.6931,-1.7222,-1.7545,-1.781,-1.8084,-1.853,-1.9158,-1.9939,-2.0372,-2.0822,-2.1229,-2.1746,-2.2137,-2.2417,-2.2768,-2.3038,-2.3319,-2.3523,-2.3739,-2.4101,-2.5705,-2.6452,-2.6678,-2.84,-2.9137,-2.9167,-2.9547,-2.9754,-2.9853,-3.0146,-3.0274,-3.0516,-1.2288,-1.2175,-1.2175,-1.2175,-1.2175,-1.2175,-1.2175,-1.2175,-1.2175,-1.2175,-1.2175,-1.237,-1.2764,-1.334,-1.3721,-1.3721,-1.3721,-1.3721,-1.3721,-1.4106,-1.3814,-1.28,-1.2748,-1.2705,-1.2705,-1.2705,-1.279,-1.2973,-1.3313,-1.3398,-1.3307,-1.3808,-1.3732,-1.312,-1.3373,-1.2983,-1.2077,-1.2224,-1.3039,-1.4209,-1.4209,-1.4418,-1.484,-1.5338,-1.5263,-1.4903,-1.5034,-1.5061,-1.5016,-1.4889,-1.4886,-1.4987,-1.5043,-1.5061,-1.5052,-1.5042,-1.5042,-1.5042,-1.4917,-1.4426,-1.3994,-1.4065,-1.3817,-1.3509,-1.323,-1.2989,-1.2867,-1.2867,-1.2867,-1.2867,-1.2928,-1.3164,-1.3338,-1.3398,-1.3838,-1.4139,-1.43,-1.4656,-1.5115,-1.5671,-1.6128,-1.6595,-1.7181,-1.749,-1.767,-1.7726,-1.8046,-1.8249,-1.8271,-1.8946,-1.9512,-1.999,-2.0472,-2.0858,-2.118,-2.1664,-2.1996,-2.2278,-2.2586,-2.2814,-2.3083,-2.3304,-2.3523,-2.3857,-2.5468,-2.6244,-2.6576,-2.8248,-2.9014,-2.9121,-2.9473,-2.9637,-2.9754,-2.9973,-3.0146,-3.0323,-1.3439,-1.3244,-1.3147,-1.2861,-1.2764,-1.2764,-1.2764,-1.2764,-1.2764,-1.2764,-1.305,-1.3244,-1.3244,-1.3913,-1.4298,-1.4298,-1.4586,-1.4777,-1.4777,-1.4777,-1.4284,-1.3187,-1.3137,-1.3137,-1.3137,-1.3137,-1.3222,-1.3489,-1.3743,-1.3906,-1.3984,-1.4314,-1.4248,-1.3899,-1.4402,-1.3874,-1.2673,-1.2673,-1.3404,-1.4641,-1.4864,-1.5213,-1.5559,-1.5842,-1.5842,-1.5745,-1.5834,-1.5952,-1.6026,-1.5887,-1.5881,-1.5928,-1.5937,-1.5955,-1.5891,-1.5882,-1.5882,-1.5845,-1.591,-1.5431,-1.4877,-1.4698,-1.44,-1.4043,-1.3616,-1.3339,-1.3182,-1.3119,-1.3103,-1.3103,-1.3224,-1.3459,-1.3675,-1.3918,-1.4257,-1.4675,-1.4958,-1.5289,-1.5766,-1.6292,-1.6759,-1.7246,-1.7863,-1.819,-1.8365,-1.8394,-1.8576,-1.8723,-1.8714,-1.9356,-1.9875,-2.0182,-2.0623,-2.097,-2.1277,-2.1616,-2.1949,-2.2184,-2.2463,-2.2692,-2.2889,-2.3172,-2.3392,-2.367,-2.5289,-2.6123,-2.6457,-2.8124,-2.8873,-2.9045,-2.9382,-2.9563,-2.9653,-2.9902,-3.006,-3.0231,-1.4418,-1.4304,-1.401,-1.2958,-1.2764,-1.2764,-1.2764,-1.2764,-1.2764,-1.2764,-1.3721,-1.4298,-1.4298,-1.4298,-1.4298,-1.4298,-1.5255,-1.5832,-1.5832,-1.5832,-1.5311,-1.4142,-1.4088,-1.4088,-1.4088,-1.4088,-1.4088,-1.4088,-1.3652,-1.3899,-1.4734,-1.4734,-1.4734,-1.4734,-1.5665,-1.511,-1.3514,-1.3514,-1.3935,-1.4713,-1.5513,-1.6,-1.6281,-1.6281,-1.6281,-1.6342,-1.6542,-1.689,-1.7111,-1.6777,-1.6722,-1.6854,-1.6343,-1.6201,-1.6201,-1.6201,-1.6201,-1.6296,-1.6807,-1.6589,-1.6154,-1.5426,-1.4985,-1.4612,-1.4187,-1.384,-1.3542,-1.3353,-1.3338,-1.3398,-1.3769,-1.3838,-1.4091,-1.479,-1.504,-1.5302,-1.5935,-1.6446,-1.6845,-1.6971,-1.7471,-1.7904,-1.8201,-1.8516,-1.883,-1.919,-1.901,-1.9057,-1.9405,-1.9784,-2.0182,-2.061,-2.0871,-2.1131,-2.1423,-2.1664,-2.1949,-2.2184,-2.2463,-2.2692,-2.2889,-2.3172,-2.3392,-2.367,-2.5289,-2.6077,-2.6336,-2.8078,-2.8794,-2.8842,-2.9337,-2.9518,-2.9518,-2.9902,-3.006,-3.0231,-1.5475,-1.4811,-1.4202,-1.3913,-1.3817,-1.3817,-1.3817,-1.3817,-1.3817,-1.3817,-1.4106,-1.4586,-1.5255,-1.535,-1.535,-1.535,-1.5635,-1.5832,-1.5832,-1.6487,-1.6301,-1.5063,-1.4419,-1.4088,-1.4088,-1.4678,-1.5013,-1.5013,-1.4838,-1.4748,-1.4734,-1.5409,-1.5499,-1.5173,-1.5506,-1.6021,-1.6661,-1.6661,-1.6229,-1.5513,-1.6281,-1.6769,-1.7116,-1.7116,-1.7038,-1.6959,-1.7295,-1.7432,-1.755,-1.7707,-1.7812,-1.786,-1.7856,-1.7807,-1.7816,-1.7674,-1.7551,-1.7446,-1.7427,-1.7339,-1.6973,-1.6145,-1.5713,-1.5349,-1.4971,-1.481,-1.4641,-1.4293,-1.4559,-1.48,-1.4595,-1.5014,-1.5422,-1.5668,-1.5759,-1.605,-1.65,-1.6709,-1.708,-1.7889,-1.8111,-1.8554,-1.9446,-1.9617,-1.9802,-2.0034,-1.9726,-1.9595,-1.9681,-1.9978,-2.0271,-2.061,-2.097,-2.1277,-2.1568,-2.1712,-2.1949,-2.2184,-2.2463,-2.2661,-2.2826,-2.3157,-2.357,-2.4163,-2.5455,-2.629,-2.6886,-2.8232,-2.8794,-2.8842,-2.9337,-2.9518,-2.9518,-2.9902,-3.006,-3.0231,-1.6524,-1.5632,-1.4873,-1.4873,-1.4873,-1.4873,-1.4873,-1.4873,-1.4873,-1.4873,-1.4873,-1.5159,-1.573,-1.6204,-1.6393,-1.6393,-1.6393,-1.6581,-1.6958,-1.7138,-1.6755,-1.5489,-1.5249,-1.4999,-1.4594,-1.509,-1.559,-1.5914,-1.5914,-1.5741,-1.5484,-1.6402,-1.6738,-1.6409,-1.6409,-1.7221,-1.8505,-1.8505,-1.7978,-1.7273,-1.8072,-1.8381,-1.8455,-1.8431,-1.8225,-1.7966,-1.8104,-1.8135,-1.8056,-1.8269,-1.8405,-1.8405,-1.8482,-1.8482,-1.8482,-1.8414,-1.8279,-1.8144,-1.8056,-1.793,-1.7668,-1.7197,-1.6726,-1.622,-1.5839,-1.5674,-1.5548,-1.5205,-1.5442,-1.5606,-1.5431,-1.5841,-1.6249,-1.6539,-1.6696,-1.6957,-1.7392,-1.7606,-1.7965,-1.862,-1.89,-1.9329,-2.0009,-2.0366,-2.0534,-2.0461,-2.0397,-2.0249,-1.9952,-2.022,-2.0523,-2.0822,-2.1118,-2.1423,-2.1664,-2.1841,-2.2091,-2.2278,-2.2509,-2.2675,-2.2795,-2.3157,-2.3688,-2.4368,-2.5515,-2.6397,-2.7113,-2.831,-2.8794,-2.8842,-2.9337,-2.9518,-2.9518,-2.9902,-3.006,-3.0231,-1.7477,-1.6633,-1.5832,-1.5832,-1.5832,-1.5832,-1.5832,-1.5832,-1.5832,-1.5832,-1.5927,-1.592,-1.592,-1.6763,-1.7326,-1.7326,-1.7419,-1.7956,-1.8732,-1.7895,-1.6876,-1.5649,-1.6327,-1.6409,-1.5673,-1.5597,-1.5922,-1.673,-1.6812,-1.682,-1.6812,-1.7627,-1.804,-1.8121,-1.8121,-1.8594,-1.9301,-1.9381,-1.946,-1.9618,-2.0401,-2.0436,-1.9917,-1.9905,-1.9588,-1.9124,-1.9084,-1.8883,-1.8667,-1.8627,-1.8617,-1.8617,-1.8617,-1.8617,-1.8617,-1.8617,-1.8617,-1.8549,-1.8549,-1.8472,-1.8337,-1.8337,-1.7852,-1.7279,-1.6844,-1.6607,-1.642,-1.6196,-1.6139,-1.6222,-1.6322,-1.6542,-1.6834,-1.7409,-1.7675,-1.7965,-1.8489,-1.8875,-1.9142,-1.9198,-1.9715,-2.0096,-2.0161,-2.0892,-2.1105,-2.0601,-2.0974,-2.0936,-2.0284,-2.051,-2.0822,-2.1229,-2.1375,-2.1568,-2.1841,-2.2091,-2.2278,-2.2417,-2.2555,-2.2675,-2.2841,-2.3157,-2.3718,-2.4456,-2.553,-2.6427,-2.7157,-2.8341,-2.8794,-2.8842,-2.9337,-2.9518,-2.9563,-2.9902,-3.0119,-3.0231,-1.7582,-1.6633,-1.5832,-1.5832,-1.5832,-1.5832,-1.5832,-1.5832,-1.5832,-1.5832,-1.6487,-1.6951,-1.6951,-1.7138,-1.7326,-1.7326,-1.8719,-1.9307,-1.8553,-1.8249,-1.7784,-1.7024,-1.7147,-1.731,-1.7465,-1.6738,-1.6492,-1.673,-1.7383,-1.7708,-1.7708,-1.7878,-1.8353,-1.8984,-1.8984,-1.9143,-1.9301,-2.001,-2.0712,-2.1252,-2.1492,-2.1104,-2.0366,-2.0363,-2.0204,-1.987,-1.9674,-1.9696,-1.9687,-1.9467,-1.9341,-1.9341,-1.9341,-1.9341,-1.9341,-1.9341,-1.9285,-1.9152,-1.9152,-1.9008,-1.8942,-1.8942,-1.8798,-1.8499,-1.7823,-1.7658,-1.7533,-1.7164,-1.7471,-1.7684,-1.7416,-1.7764,-1.8155,-1.8445,-1.8532,-1.8696,-1.9065,-1.9218,-1.9396,-1.9846,-2.0031,-2.0302,-2.0903,-2.1612,-2.168,-2.0945,-2.1325,-2.1288,-2.0524,-2.0871,-2.118,-2.1375,-2.1616,-2.1841,-2.2137,-2.2184,-2.2324,-2.2555,-2.2689,-2.2872,-2.3052,-2.3201,-2.3999,-2.5203,-2.5772,-2.6669,-2.7841,-2.8542,-2.8794,-2.8842,-2.9337,-2.9518,-2.9563,-2.9973,-3.0205,-3.0274,-1.8318,-1.7428,-1.6487,-1.6487,-1.6487,-1.6487,-1.6487,-1.6487,-1.6487,-1.6487,-1.6951,-1.7512,-1.7978,-1.7986,-1.8164,-1.8719,-1.9471,-1.9577,-1.8775,-1.8634,-1.8388,-1.8061,-1.8006,-1.8129,-1.8371,-1.8112,-1.77,-1.7302,-1.7789,-1.8193,-1.8594,-1.8594,-1.8825,-1.9301,-1.9696,-2.0167,-2.0557,-2.0954,-2.1415,-2.1807,-2.1807,-2.1611,-2.1321,-2.1257,-2.1083,-2.0927,-2.0768,-2.0551,-2.0311,-1.9897,-1.9802,-1.9857,-1.9857,-1.9857,-1.9857,-1.9857,-1.9791,-1.966,-1.966,-1.9594,-1.9473,-1.9473,-1.9407,-1.9208,-1.8674,-1.8539,-1.8479,-1.8227,-1.8435,-1.8603,-1.8446,-1.8655,-1.8952,-1.9008,-1.9208,-1.9407,-1.9539,-1.9747,-1.9944,-2.0194,-2.0442,-2.0892,-2.1612,-2.2111,-2.2091,-2.1287,-2.1716,-2.1652,-2.0838,-2.1131,-2.1375,-2.1568,-2.1841,-2.2044,-2.2184,-2.2402,-2.2586,-2.2723,-2.2783,-2.2947,-2.3127,-2.329,-2.4164,-2.5506,-2.5832,-2.6839,-2.8201,-2.8652,-2.8842,-2.8967,-2.9337,-2.9547,-2.971,-3.006,-3.0316,-3.0485,-1.9177,-1.8174,-1.7326,-1.7326,-1.7419,-1.752,-1.752,-1.752,-1.752,-1.752,-1.752,-1.7893,-1.8735,-1.892,-1.9379,-2.0382,-1.9951,-1.9535,-1.9163,-1.8889,-1.8786,-1.8789,-1.8751,-1.878,-1.8772,-1.9152,-1.8984,-1.8193,-1.8193,-1.8585,-1.9301,-1.9301,-1.9381,-1.9539,-2.0245,-2.1031,-2.1807,-2.1959,-2.1959,-2.1883,-2.1959,-2.2025,-2.2241,-2.2176,-2.2083,-2.1953,-2.1867,-2.1377,-2.066,-2.0325,-2.0194,-2.0172,-2.0172,-2.0172,-2.0172,-2.0172,-2.0172,-2.0172,-2.0172,-2.0118,-2.0064,-2.0064,-1.9933,-1.9736,-1.9473,-1.9264,-1.9264,-1.9264,-1.9264,-1.9264,-1.9264,-1.933,-1.9473,-1.9473,-1.9736,-1.9998,-1.9998,-2.027,-2.0464,-2.0529,-2.1042,-2.1612,-2.2185,-2.2531,-2.2377,-2.168,-2.2089,-2.197,-2.1099,-2.1375,-2.1664,-2.1841,-2.2137,-2.2278,-2.231,-2.2709,-2.2934,-2.2979,-2.2979,-2.3083,-2.3216,-2.354,-2.4418,-2.5708,-2.6046,-2.704,-2.8396,-2.8747,-2.8967,-2.9121,-2.9412,-2.9621,-2.9853,-3.013,-3.0443,-3.0733,-1.9194,-1.8156,-1.7326,-1.7326,-1.7986,-1.8643,-1.8643,-1.8643,-1.8643,-1.8643,-1.8643,-1.8643,-1.8827,-1.9563,-2.0292,-2.0817,-2.035,-1.98,-1.9488,-1.927,-1.9055,-1.8959,-1.8958,-1.9073,-1.9231,-1.9301,-1.9222,-1.9143,-1.9143,-1.9143,-1.9301,-1.9301,-1.9696,-2.0411,-2.0566,-2.1031,-2.1883,-2.2553,-2.2553,-2.2166,-2.2402,-2.2413,-2.2402,-2.2553,-2.2734,-2.2774,-2.2567,-2.2007,-2.1297,-2.123,-2.0939,-2.0593,-2.0593,-2.0593,-2.0593,-2.0593,-2.0593,-2.0593,-2.0593,-2.0604,-2.0604,-2.0604,-2.0604,-2.054,-2.0464,-2.014,-1.9791,-1.9911,-1.9966,-1.9966,-1.9966,-1.9977,-2.0053,-2.0205,-2.027,-2.041,-2.0604,-2.0722,-2.0903,-2.1094,-2.1675,-2.2173,-2.2531,-2.2836,-2.2732,-2.2082,-2.2415,-2.2271,-2.1394,-2.1793,-2.2137,-2.2137,-2.2417,-2.2646,-2.2799,-2.2844,-2.3038,-2.3275,-2.3436,-2.3508,-2.3538,-2.4223,-2.5033,-2.6001,-2.6857,-2.7657,-2.8444,-2.8858,-2.9091,-2.9137,-2.9502,-2.971,-2.9837,-3.03,-3.0651,-3.0871,-1.976,-1.9081,-1.855,-1.855,-1.8735,-1.8827,-1.8827,-1.8827,-1.8827,-1.8827,-1.8827,-1.9012,-1.9563,-2.0283,-2.0561,-2.0307,-2.0271,-2.0024,-1.9626,-1.9605,-1.9498,-1.9338,-1.9469,-1.9627,-1.9863,-1.9942,-2.001,-2.001,-2.001,-2.001,-2.001,-2.001,-2.0245,-2.0644,-2.1558,-2.2014,-2.2176,-2.2553,-2.2628,-2.2327,-2.2703,-2.2777,-2.2777,-2.3075,-2.3224,-2.3305,-2.3033,-2.2842,-2.2628,-2.2365,-2.2007,-2.1735,-2.1735,-2.1475,-2.1256,-2.1256,-2.1256,-2.1256,-2.1256,-2.1169,-2.1094,-2.1094,-2.1031,-2.0978,-2.1094,-2.0892,-2.07,-2.0453,-2.0506,-2.0571,-2.0571,-2.0635,-2.0764,-2.085,-2.0903,-2.0955,-2.1094,-2.1233,-2.1423,-2.1737,-2.2173,-2.2531,-2.2823,-2.3258,-2.3141,-2.2289,-2.2697,-2.2582,-2.1671,-2.1996,-2.2278,-2.248,-2.2678,-2.2859,-2.3038,-2.3201,-2.3334,-2.348,-2.3696,-2.3739,-2.3625,-2.449,-2.5348,-2.629,-2.7057,-2.7922,-2.8811,-2.8982,-2.9213,-2.9457,-2.9665,-2.9913,-3.0172,-3.0468,-3.0733,-3.0912]},{"header":{"parameterUnit":"m.s-1","parameterCategory":1,"la1":30.6,"la2":28.766,"lo1":-90.7593,"lo2":-88.6598,"dy":0.0162,"dx":0.0183,"nx":116,"ny":114,"refTime":"2023-06-17T12:00:00:Z","depth":0,"parameterNumber":3,"parameterNumberName":"V-component_of_WINDS"},"data":[0.0,0.0,0.0,0.0,0.0,0.0,0.0,0.0,0.0,0.0,0.0,0.0,0.0,0.0,0.0,0.0,0.0,0.0,0.0,0.0,0.0,0.0,0.0,0.0,0.0,0.0,0.0,0.0,0.0,0.0,0.0,0.0,0.0,0.0,0.0,0.0,0.0,0.0,0.0,0.0,0.0,0.0,0.0,0.0,0.0,0.0,0.0,0.0,0.0,0.0,0.0,0.0,0.0,0.0,0.0,0.0,0.0,0.0,0.0,0.0,0.0,0.0,0.0,0.0,0.0,0.0,0.0,0.0,0.0,0.0,0.0,0.0,0.0,0.0,0.0,0.0,0.0,0.0,0.0,0.0,0.0,0.0,0.0,0.0,0.0,0.0,0.0,0.0,0.0,0.0,0.0,0.0,0.0,0.0,0.0,0.0,0.0,0.0,0.0,0.0,0.0,0.0,0.0,0.0,0.0,0.0,0.0,0.0,0.0,0.0,0.0,0.0,0.0,0.0,0.0,0.0,0.0,0.0,0.0,0.0,0.0,0.0,0.0,0.0,0.0,0.0,0.0,0.0,0.0,0.0,0.0,0.0,0.0,0.0,0.0,0.0,0.0,0.0,0.0,0.0,0.0,0.0,0.0,0.0,0.0,0.0,0.0,0.0,0.0,0.0,0.0,0.0,0.0,0.0,0.0,0.0,0.0,0.0,0.0,0.0,0.0,0.0,0.0,0.0,0.0,0.0,0.0,0.0,0.0,0.0,0.0,0.0,0.0,0.0,0.0,0.0,0.0,0.0,0.0,0.0,0.0,0.0,0.0,0.0,0.0,0.0,0.0,0.0,0.0,0.0,0.0,0.0,0.0,0.0,0.0,0.0,0.0,0.0,0.0,0.0,0.0,0.0,0.0,0.0,0.0,0.0,0.0,0.0,0.0,0.0,0.0,0.0,0.0,0.0,0.0,0.0,0.0,0.0,0.0,0.0,0.0,0.0,0.0,0.0,0.0,0.0,0.0,0.0,0.0,0.0,0.0,0.0,0.0,0.0,0.0,0.0,0.0,0.0,0.0,0.0,0.0,0.0,0.0,0.0,0.0,0.0,0.0,0.0,0.0,0.0,0.0,0.0,0.0,0.0,0.0,0.0,0.0,0.0,0.0,0.0,0.0,0.0,0.0,0.0,0.0,0.0,0.0,0.0,0.0,0.0,0.0,0.0,0.0,0.0,0.0,0.0,0.0,0.0,0.0,0.0,0.0,0.0,0.0,0.0,0.0,0.0,0.0,0.0,0.0,0.0,0.0,0.0,0.0,0.0,0.0,0.0,0.0,0.0,0.0,0.0,0.0,0.0,0.0,0.0,0.0,0.0,0.0,0.0,0.0,0.0,0.0,0.0,0.0,0.0,0.0,0.0,0.0,0.0,0.0,0.0,0.0,0.0,0.0,0.0,0.0,0.0,0.0,0.0,0.0,0.0,0.0,0.0,0.0,0.0,0.0,0.0,0.0,0.0,0.0,0.0,0.0,0.0,0.0,0.0,0.0,0.0,0.0,0.0,0.0,0.0,0.0,0.0,0.0,0.0,0.0,0.0,0.0,0.0,0.0,0.0,0.0,0.0,0.0,0.0,0.0,0.0,0.0,0.0,0.0,0.0,0.0,0.0,0.0,0.0,0.0,0.0,0.0,0.0,0.0,0.0,0.0,0.0,0.0,0.0,0.0,0.0,0.0,0.0,0.0,0.0,0.0,0.0,0.0,0.0,0.0,0.0,0.0,0.0,0.0,0.0,0.0,0.0,0.0,0.0,0.0,0.0,0.0,0.0,0.0,0.0,0.0,0.0,0.0,0.0,0.0,0.0,0.0,0.0,0.0,0.0,0.0,0.0,0.0,0.0,0.0,0.0,0.0,0.0,0.0,0.0,0.0,0.0,0.0,0.0,0.0,0.0,0.0,0.0,0.0,0.0,0.0,0.0,0.0,0.0,0.0,0.0,0.0,0.0,0.0,0.0,0.0,0.0,0.0,0.0,0.0,0.0,0.0,0.0,0.0,0.0,0.0,0.0,0.0,0.0,0.0,0.0,0.0,0.0,0.0,0.0,0.0,0.0,0.0,0.0,0.0,0.0,0.0,0.0,0.0,0.0,0.0,0.0,0.0,0.0,0.0,0.0,0.0,0.0,0.0,0.0,0.0,0.0,0.0,0.0,0.0,0.0,0.0,0.0,0.0,0.0,0.0,0.0,0.0,0.0,0.0,0.0,0.0,0.0,0.0,0.0,0.0,0.0,0.0,0.0,0.0,0.0,0.0,0.0,0.0,0.0,0.0,0.0,0.0,0.0,0.0,0.0,0.0,0.0,0.0,0.0,0.0,0.0,0.0,0.0,0.0,0.0,0.0,0.0,0.0,0.0,0.0,0.0,0.0,0.0,0.0,0.0,0.0,0.0,0.0,0.0,0.0,0.0,0.0,0.0,0.0,0.0,0.0,0.0,0.0,0.0,0.0,0.0,0.0,0.0,0.0,0.0,0.0,0.0,0.0,0.0,0.0,0.0,0.0,0.0,0.0,0.0,0.0,0.0,0.0,0.0,0.0,0.0,0.0,0.0,0.0,0.0,0.0,0.0,0.0,0.0,0.0,0.0,0.0,0.0,0.0,0.0,0.0,0.0,0.0,0.0,0.0,0.0,0.0,0.0,0.0,0.0,0.0,0.0,0.0,0.0,0.0,0.0,0.0,0.0,0.0,0.0,0.0,0.0,0.0,0.0,0.0,0.0,0.0,0.0,0.0,0.0,0.0,0.0,0.0,0.0,0.0,0.0,0.0,0.0,0.0,0.0,0.0,0.0,0.0,0.0,0.0,0.0,0.0,0.0,0.0,0.0,0.0,0.0,0.0,0.0,0.0,0.0,0.0,0.0,0.0,0.0,0.0,0.0,0.0,0.0,0.0,0.0,0.0,0.0,0.0,0.0,0.0,0.0,0.0,0.0,0.0,0.0,0.0,0.0,0.0,0.0,0.0,0.0,0.0,0.0,0.0,0.0,0.0,0.0,0.0,0.0,0.0,0.0,0.0,0.0,0.0,0.0,0.0,0.0,0.0,0.0,0.0,0.0,0.0,0.0,0.0,0.0,0.0,0.0,0.0,0.0,0.0,0.0,0.0,0.0,0.0,0.0,0.0,0.0,0.0,0.0,0.0,0.0,0.0,0.0,0.0,0.0,0.0,0.0,0.0,0.0,0.0,0.0,0.0,0.0,0.0,0.0,0.0,0.0,0.0,0.0,0.0,0.0,0.0,0.0,0.0,0.0,0.0,0.0,0.0,0.0,0.0,0.0,0.0,0.0,0.0,0.0,0.0,0.0,0.0,0.0,0.0,0.0,0.0,0.0,0.0,0.0,0.0,0.0,0.0,0.0,0.0,0.0,0.0,0.0,0.0,0.0,0.0,0.0,0.0,0.0,0.0,0.0,0.0,0.0,0.0,0.0,0.0,0.0,0.0,0.0,0.0,0.0,0.0,0.0,0.0,0.0,0.0,0.0,0.0,0.0,0.0,0.0,0.0,0.0,0.0,0.0,0.0,0.0,0.0,0.0,0.0,0.0,0.0,0.0,0.0,0.0,0.0,0.0,0.0,0.0,0.0,0.0,0.0,0.0,0.0,0.0,0.0,0.0,0.0,0.0,0.0,0.0,0.0,0.0,0.0,0.0,0.0,0.0,0.0,0.0,0.0,0.0,0.0,0.0,0.0,0.0,0.0,0.0,0.0,0.0,0.0,0.0,0.0,0.0,0.0,0.0,0.0,0.0,0.0,0.0,0.0,0.0,0.0,0.0,0.0,0.0,0.0,0.0,0.0,0.0,0.0,0.0,0.0,0.0,0.0,0.0,0.0,0.0,0.0,0.0,0.0,0.0,0.0,0.0,0.0,0.0,0.0,0.0,0.0,0.0,0.0,0.0,0.0,0.0,0.0,0.0,0.0,0.0,0.0,0.0,0.0,0.0,0.0,0.0,0.0,0.0,0.0,0.0,0.0,0.0,0.0,0.0,0.0,0.0,0.0,0.0,0.0,0.0,0.0,0.0,0.0,0.0,0.0,0.0,0.0,0.0,0.0,0.0,0.0,0.0,0.0,0.0,0.0,0.0,0.0,0.0,0.0,0.0,0.0,0.0,0.0,0.0,0.0,0.0,0.0,0.0,0.0,0.0,0.0,0.0,0.0,0.0,0.0,0.0,0.0,0.0,0.0,0.0,0.0,0.0,0.0,0.0,0.0,0.0,0.0,0.0,0.0,0.0,0.0,0.0,0.0,0.0,0.0,0.0,0.0,0.0,0.0,0.0,0.0,0.0,0.0,0.0,0.0,0.0,0.0,0.0,0.0,0.0,0.0,0.0,0.0,0.0,0.0,0.0,0.0,0.0,0.0,0.0,0.0,0.0,0.0,0.0,0.0,0.0,0.0,0.0,0.0,0.0,0.0,0.0,0.0,0.0,0.0,0.0,0.0,0.0,0.0,0.0,0.0,0.0,0.0,0.0,0.0,0.0,0.0,0.0,0.0,0.0,0.0,0.0,0.0,0.0,0.0,0.0,0.0,0.0,0.0,0.0,0.0,0.0,0.0,0.0,0.0,0.0,0.0,0.0,0.0,0.0,0.0,0.0,0.0,0.0,0.0,0.0,0.0,0.0,0.0,0.0,0.0,0.0,0.0,0.0,0.0,0.0,0.0,0.0,0.0,0.0,0.0,0.0,0.0,0.0,0.0,0.0,0.0,0.0,0.0,0.0,0.0,0.0,0.0,0.0,0.0,0.0,0.0,0.0,0.0,0.0,0.0,0.0,0.0,0.0,0.0,0.0,0.0,0.0,0.0,0.0,0.0,0.0,0.0,0.0,0.0,0.0,0.0,0.0,0.0,0.0,0.0,0.0,0.0,0.0,0.0,0.0,0.0,0.0,0.0,0.0,0.0,0.0,0.0,0.0,0.0,0.0,0.0,0.0,0.0,0.0,0.0,0.0,0.0,0.0,0.0,0.0,0.0,0.0,0.0,0.0,0.0,0.0,0.0,0.0,0.0,0.0,0.0,0.0,0.0,0.0,0.0,0.0,0.0,0.0,0.0,0.0,0.0,0.0,0.0,0.0,0.0,0.0,0.0,0.0,0.0,0.0,0.0,0.0,0.0,0.0,0.0,0.0,0.0,0.0,0.0,0.0,0.0,0.0,0.0,0.0,0.0,0.0,0.0,0.0,0.0,0.0,0.0,0.0,0.0,0.0,0.0,0.0,0.0,0.0,0.0,0.0,0.0,0.0,0.0,0.0,0.0,0.0,0.0,0.0,0.0,0.0,0.0,0.0,0.0,0.0,0.0,0.0,0.0,0.0,0.0,0.0,0.0,0.0,0.0,0.0,0.0,0.0,0.0,0.0,0.0,0.0,0.0,0.0,0.0,0.0,0.0,0.0,0.0,0.0,0.0,0.0,0.0,0.0,0.0,0.0,0.0,0.0,0.0,0.0,0.0,0.0,0.0,0.0,0.0,0.0,0.0,0.0,0.0,0.0,0.0,0.0,0.0,0.0,0.0,0.0,0.0,0.0,0.0,0.0,0.0,0.0,0.0,0.0,0.0,0.0,0.0,0.0,0.0,0.0,0.0,0.0,0.0,0.0,0.0,0.0,0.0,0.0,0.0,0.0,0.0,0.0,0.0,0.0,0.0,0.0,0.0,0.0,0.0,0.0,0.0,0.0,0.0,0.0,0.0,0.0,0.0,0.0,0.0,0.0,0.0,0.0,0.0,0.0,0.0,0.0,0.0,0.0,0.0,0.0,0.0,0.0,0.0,0.0,0.0,0.0,0.0,0.0,0.0,0.0,0.0,0.0,0.0,0.0,0.0,0.0,0.0,0.0,0.0,0.0,0.0,0.0,0.0,0.0,0.0,0.0,0.0,0.0,0.0,0.0,0.0,0.0,0.0,0.0,0.0,0.0,0.0,0.0,0.0,0.0,0.0,0.0,0.0,0.0,0.0,0.0,0.0,0.0,0.0,0.0,0.0,0.0,0.0,0.0,0.0,0.0,0.0,0.0,0.0,0.0,0.0,0.0,0.0,0.0,0.0,0.0,0.0,0.0,0.0,0.0,0.0,0.0,1.9888,1.9039,0.0,0.0,0.0,0.0,0.0,0.0,0.0,0.0,0.0,0.0,0.0,0.0,0.0,0.0,0.0,0.0,0.0,0.0,0.0,0.0,0.0,0.0,0.0,0.0,0.0,0.0,0.0,0.0,0.0,0.0,0.0,0.0,0.0,0.0,0.0,0.0,0.0,0.0,0.063,0.0322,-0.016,-0.0,0.025,0.0643,0.0,0.0,0.0,0.0,0.0,0.0,0.0,0.0,0.0,0.0,0.0,0.0,0.0,0.0,0.0,0.0,0.0,0.0,0.0,0.0,0.0,0.0,0.0,0.0,0.0,0.0,0.0,0.0,0.0,0.0,0.0,0.0,0.0,0.0,0.0,0.0,0.0,0.0,0.0,0.0,0.0,0.0,0.0,0.0,0.0,0.0,0.0,0.0,0.0,0.0,0.0,0.0,0.0,0.0,0.0,0.0,0.0,0.0,0.0,0.0,0.0,0.0,0.0,0.0,0.0,0.0,0.0,0.0,0.0,0.0,2.2221,2.1225,0.0,0.0,0.0,0.0,0.0,0.0,0.0,0.0,0.0,0.0,0.0,0.0,0.0,0.0,0.0,0.0,0.0,0.0,0.0,0.0,0.0,0.0,0.0,0.0,-0.0214,-0.0256,-0.0073,0.0096,0.0,0.0,0.0,0.0,0.0,0.0,0.0,0.0356,0.0213,-0.0,-0.0408,-0.0962,-0.17,-0.1859,-0.1596,-0.0943,-0.0937,0.0,0.0,0.0,0.0,0.0,0.0,0.0,0.0,0.0,0.0,0.0,0.0,0.0,0.0,0.0,0.0,0.0,0.0,0.0,0.0,0.0,0.0,0.0,0.0,0.0,0.0,0.0,0.0,0.0,0.0,0.0,0.0,0.0,0.0,0.0,0.0,0.0,0.0,0.0,0.0,0.0,0.0,0.0,0.0,0.0,0.0,0.0,0.0,0.0,0.0,0.0,0.0,0.0,0.0,0.0,0.0,0.0,0.0,0.0,0.0,0.0,0.0,0.0,2.4329,2.4885,2.5449,2.5912,2.642,2.6762,2.4906,2.3963,2.3653,2.2864,0.0,0.0,0.0,0.0,0.0,0.0,0.0,0.0,0.0,0.0,0.0,0.0,0.0,0.0,0.0,0.0,0.0,0.0,0.0,0.0,0.0,-0.0548,-0.0591,-0.0549,-0.052,-0.041,0.0,0.0,0.0,0.0,0.0,0.0,-0.01,-0.0267,-0.0527,-0.085,-0.1698,-0.2648,-0.363,-0.3674,-0.3599,-0.3472,-0.287,-0.2355,-0.1924,0.0,0.0,0.0,0.0,0.0,0.0,0.0,0.0,0.0,0.0,0.0,0.0,0.0,0.0,0.0,0.0,0.0,0.0,0.0,0.0,0.0,0.0,0.0,0.0,0.0,0.0,0.0,0.0,0.0,0.0,0.0,0.0,0.0,0.0,0.0,0.0,0.0,0.0,0.0,0.0,0.0,1.3358,1.3551,0.0,0.0,0.0,0.0,0.0,0.0,0.0,0.0,0.0,0.0,0.0,0.0,0.0,2.1749,2.4682,2.4386,2.4905,2.6243,2.6725,2.7147,2.7536,2.8061,2.8472,2.8814,2.8268,0.0,2.5697,2.4455,0.0,0.0,0.0,0.0,0.0,0.0,0.0,0.0,0.0,0.0,0.0,0.0,0.0,0.0,0.0,0.0,0.0,0.0,0.0,0.0,0.0,-0.0924,-0.1064,-0.1109,-0.0991,-0.0895,-0.0744,-0.0816,0.0,0.0,0.0,-0.0954,-0.11,-0.1355,-0.1832,-0.2536,-0.3229,-0.4073,-0.5026,-0.505,-0.5182,-0.5397,-0.4726,-0.3835,-0.2775,-0.2202,0.0,0.0,0.0,0.0,0.0,0.0,0.0,0.0,0.0,0.0,0.0,0.0,0.0,0.0,0.0,0.0,0.0,0.0,0.0,0.0,0.0,0.0,0.0,0.0,0.0,0.0,0.0,0.0,0.0,0.0,0.0,0.0,0.0,0.0,0.0,0.0,0.0,0.0,0.0,1.3432,1.4409,1.5384,1.6196,1.6679,0.0,0.0,0.0,0.0,0.0,0.0,0.0,0.0,0.0,2.2903,2.276,2.3886,2.6398,2.647,2.6939,2.7833,2.8649,2.9044,2.909,2.95,2.9624,2.9512,2.9276,2.8606,2.7627,2.6214,2.548,2.5124,0.0,0.0,0.0,0.0,2.2102,2.1201,0.0,0.0,0.0,0.0,0.0,0.0,0.0,0.0,0.0,0.0,0.0,0.0,-0.1235,-0.147,-0.1669,-0.18,-0.1717,-0.1599,-0.1464,-0.1533,0.0,0.0,-0.1644,-0.1709,-0.1915,-0.2462,-0.3183,-0.4025,-0.4652,-0.5322,-0.6039,-0.6308,-0.65,-0.6764,-0.6273,-0.5238,-0.3727,-0.3011,-0.2233,-0.1449,0.0,0.0,0.0,0.0,0.0,0.0,0.0,0.0,0.0,0.0,0.0,0.0,0.0,0.0,0.0,0.0,0.0,0.0,0.0,0.0,0.0,0.0,0.0,0.0,0.0,0.0,0.0,0.0,0.0,0.0,0.0,0.0,0.0,0.0,0.0,0.0,0.0,1.4932,1.596,1.7413,1.8455,1.8992,0.0,0.0,0.0,0.0,0.0,0.0,2.1173,2.2508,2.391,2.5262,2.5095,2.5999,2.818,2.8372,2.8737,2.9255,2.9958,3.0286,3.0208,3.0446,3.044,3.0223,3.0024,2.9724,2.9188,2.7697,2.6808,2.6308,2.5695,2.5145,2.4653,2.4133,2.324,2.2074,0.0,0.0,0.0,0.0,0.0,0.0,0.0,0.0,0.0,0.0,0.0,-0.1517,-0.1914,-0.2246,-0.2499,-0.2618,-0.2739,-0.2698,-0.2443,-0.2325,-0.2173,-0.2001,-0.2165,-0.2277,-0.2266,-0.3421,-0.4272,-0.4853,-0.577,-0.6396,-0.6756,-0.7417,-0.7629,-0.7516,-0.7393,-0.6497,-0.5054,-0.3983,-0.3078,-0.2271,-0.1416,0.0,0.0,0.0,0.0,0.0,0.0,0.0,0.0,0.0,0.0,0.0,0.0,0.0,0.0,0.0,0.0,0.0,0.0,0.0,0.0,0.0,0.0,0.0,0.0,0.0,0.0,0.0,0.0,0.0,0.0,0.0,0.0,0.0,0.0,0.0,0.0,0.0,0.0,1.9359,2.0745,0.0,0.0,0.0,0.0,2.2031,2.3096,2.3684,2.3555,2.468,2.6,2.7413,2.7258,2.8169,3.033,3.0054,3.0177,3.0804,3.0479,3.0448,3.0669,3.0947,3.1161,3.1351,3.1454,3.1025,3.0178,2.8592,2.7912,2.7809,2.6938,2.6312,2.5824,2.5108,2.4006,2.2761,0.0,0.0,0.0,0.0,0.0,0.0,0.0,0.0,-0.1043,-0.1374,-0.1789,-0.2232,-0.2719,-0.3064,-0.3368,-0.3595,-0.3645,-0.359,-0.334,-0.312,-0.294,-0.2857,-0.2903,-0.3218,-0.3759,-0.4625,-0.5388,-0.6037,-0.6769,-0.7396,-0.7844,-0.8007,-0.8169,-0.8373,-0.785,-0.7285,-0.6609,-0.5089,-0.3873,-0.2912,-0.2105,-0.1474,0.0,0.0,0.0,0.0,0.0,0.0,0.0,0.0,0.0,0.0,0.0,0.0,0.0,0.0,0.0,0.0,0.0,0.0,0.0,0.0,0.0,0.0,0.0,0.0,0.0,0.0,0.0,0.0,0.0,0.0,0.0,0.0,0.0,0.0,0.0,0.0,0.0,2.0145,2.1532,0.0,2.2687,2.3225,2.3686,2.3918,2.4638,2.5162,2.544,2.623,2.7261,2.8576,2.8497,2.8958,3.0188,3.0376,3.0731,3.1332,3.1396,3.1604,3.1913,3.1565,3.1368,3.1222,3.0823,3.0337,2.9672,2.9034,2.8353,2.7715,2.6898,2.6372,2.5911,2.5202,2.4198,2.3098,0.0,0.0,0.0,0.0,0.0,0.0,0.0,0.0,-0.1334,-0.1804,-0.2365,-0.2955,-0.3524,-0.4002,-0.4404,-0.474,-0.4678,-0.4568,-0.4431,-0.4036,-0.3743,-0.3593,-0.373,-0.4202,-0.5042,-0.5672,-0.6285,-0.6869,-0.7512,-0.8005,-0.8415,-0.8425,-0.8546,-0.8765,-0.8154,-0.7724,-0.7437,-0.5999,-0.4758,-0.3655,-0.2761,-0.2085,-0.1548,0.0,0.0,0.0,0.0,0.0,0.0,0.0,0.0,0.0,0.0,0.0,0.0,0.0,0.0,0.0,0.0,0.0,0.0,0.0,0.0,0.0,0.0,0.0,0.0,0.0,0.0,0.0,0.0,0.0,0.0,0.0,0.0,0.0,0.0,1.9094,2.0439,2.1438,2.2731,2.3638,2.384,2.4571,2.5149,2.5408,2.6116,2.6673,2.6959,2.7564,2.8344,2.9411,2.9576,2.9943,3.0644,3.1093,3.1544,3.1916,3.1951,3.2063,3.2184,3.1744,3.1306,3.0925,3.0546,3.0072,2.9567,2.8997,2.8299,2.7587,2.7092,2.6563,2.6064,2.5274,2.4281,2.3025,0.0,0.0,0.0,0.0,0.0,0.0,0.0,-0.114,-0.1538,-0.2164,-0.2927,-0.3671,-0.4272,-0.499,-0.5622,-0.6084,-0.5886,-0.5683,-0.5626,-0.5024,-0.4509,-0.4267,-0.4624,-0.5195,-0.6014,-0.6498,-0.6884,-0.7229,-0.7935,-0.8296,-0.8437,-0.867,-0.8781,-0.8781,-0.8371,-0.7925,-0.7476,-0.6786,-0.5791,-0.4515,-0.3333,-0.2615,-0.216,0.0,0.0,0.0,0.0,0.0,0.0,0.0,0.0,0.0,0.0,0.0,0.0,0.0,0.0,0.0,0.0,0.0,0.0,0.0,0.0,0.0,0.0,0.0,0.0,0.0,0.0,0.0,0.0,0.0,0.0,0.0,0.0,0.0,1.8921,2.0358,2.179,2.3227,2.4425,2.5098,2.5057,2.595,2.6553,2.6534,2.7506,2.8125,2.8101,2.8679,2.9339,2.9985,3.0632,3.1203,3.188,3.2309,3.2567,3.2582,3.2112,3.1749,3.1447,3.1488,3.1189,3.0559,3.0598,3.0317,2.9845,2.8541,2.7847,2.7531,2.7519,2.7087,2.6259,2.5415,2.4173,2.2421,0.0,0.0,0.0,0.0,0.0,0.0,0.0,-0.1374,-0.1875,-0.286,-0.3577,-0.4297,-0.5149,-0.5817,-0.6281,-0.6502,-0.6471,-0.6337,-0.6061,-0.5647,-0.5303,-0.5143,-0.5306,-0.5839,-0.6823,-0.7164,-0.76,-0.8265,-0.8815,-0.9117,-0.9122,-0.913,-0.9097,-0.9092,-0.8385,-0.8016,-0.7822,-0.6908,-0.6129,-0.5514,-0.4284,-0.3551,-0.3094,0.0,0.0,0.0,0.0,0.0,0.0,0.0,0.0,0.0,0.0,0.0,0.0,0.0,0.0,0.0,0.0,0.0,0.0,0.0,0.0,0.0,0.0,0.0,0.0,0.0,0.0,0.0,0.0,0.0,0.0,0.0,1.6672,1.8157,1.9636,2.1164,2.2498,2.3436,2.4622,2.5555,2.5952,2.6649,2.7223,2.7645,2.7838,2.8183,2.8568,2.9078,2.9643,3.0358,3.092,3.1318,3.1553,3.1659,3.1905,3.2143,3.1914,3.1792,3.1684,3.1441,3.1022,3.0426,2.9961,2.9406,2.8846,2.8001,2.7209,2.654,2.6236,2.5954,2.5462,2.4487,2.2685,2.0448,0.0,0.0,0.0,0.0,0.0,0.0,0.0,-0.1534,-0.2103,-0.3226,-0.394,-0.4703,-0.5731,-0.6336,-0.6834,-0.726,-0.7094,-0.6911,-0.6687,-0.6129,-0.5829,-0.5818,-0.6092,-0.6639,-0.74,-0.7908,-0.852,-0.9056,-0.9527,-0.972,-0.969,-0.9627,-0.9491,-0.928,-0.8664,-0.8276,-0.8047,-0.7209,-0.6655,-0.6217,-0.5235,-0.4381,-0.3682,-0.3156,-0.2833,-0.2721,-0.2231,-0.1887,-0.1633,-0.1248,0.0,0.0,0.0,0.0,0.0,0.0,0.0,0.0,0.0,0.0,0.0,0.0,0.0,0.0,0.0,0.0,0.0,0.0,0.0,0.0,0.0,0.0,0.0,0.0,1.7376,1.872,2.0412,2.1827,2.3013,2.3933,2.5021,2.5911,2.6343,2.6884,2.7353,2.7654,2.8091,2.8547,2.8969,2.9435,2.9931,3.0436,3.1031,3.1349,3.1349,3.1461,3.1694,3.1897,3.1697,3.15,3.1267,3.0934,3.0432,2.9819,2.9197,2.8554,2.7903,2.7174,2.6351,2.563,0.0,0.0,0.0,0.0,2.1159,1.9212,0.0,0.0,0.0,0.0,0.0,0.0,0.0,-0.1653,-0.2235,-0.3402,-0.4138,-0.5002,-0.6084,-0.6667,-0.7294,-0.7983,-0.7681,-0.7418,-0.7276,-0.6498,-0.6176,-0.6391,-0.6951,-0.7472,-0.792,-0.8867,-0.9494,-0.9829,-1.0205,-1.0356,-1.0311,-1.0242,-1.0038,-0.9617,-0.9227,-0.8816,-0.8346,-0.7669,-0.7162,-0.6721,-0.6085,-0.5192,-0.4197,-0.3838,-0.3611,-0.3548,-0.3254,-0.2941,-0.2567,-0.1965,0.0,0.0,0.0,0.0,0.0,0.0,0.0,0.0,0.0,0.0,0.0,0.0,0.0,0.0,0.0,0.0,0.0,0.0,0.0,0.0,0.0,0.0,0.0,0.0,1.8143,1.9183,2.1047,2.2188,2.3277,2.4411,2.5366,2.6038,2.6272,2.6781,2.7101,2.7154,2.8186,2.8877,2.9093,2.9653,0.0,0.0,0.0,3.1128,3.1128,3.1489,3.1723,3.1649,3.1391,3.1042,3.0573,3.0214,2.9761,2.9077,2.8506,2.7848,2.7099,2.6267,2.5413,2.4633,2.4859,2.4313,2.33,2.1274,1.9738,1.8356,0.0,0.0,0.0,0.0,0.0,0.0,0.0,-0.1792,-0.2442,-0.3807,-0.4566,-0.532,-0.6263,-0.7055,-0.7586,-0.7676,-0.7758,-0.7581,-0.7,-0.6707,-0.6707,-0.7094,-0.7571,-0.8321,-0.9269,-1.0027,-1.0665,-1.1235,-1.1648,-1.173,-1.1571,-1.1081,-1.0796,-1.0504,-0.965,-0.9114,-0.8798,-0.8229,-0.7724,-0.7399,-0.6929,-0.6106,-0.5099,-0.482,-0.4684,-0.4624,-0.4249,-0.3923,-0.3604,-0.289,-0.2264,-0.1694,-0.1174,-0.0588,0.0,0.0,0.0,0.0,0.0,0.0,0.0,0.0,0.0,0.0,0.0,0.0,0.0,0.0,0.0,0.0,0.0,0.0,0.0,1.7644,1.8599,1.9468,1.9955,2.1386,2.2775,2.406,2.48,2.5319,2.5648,2.6368,2.6973,2.7352,2.7816,2.8208,2.8647,2.9228,2.9551,2.9551,3.0167,3.0465,3.0465,3.0945,3.1164,3.1022,3.1312,0.0,3.0666,3.0585,3.0092,2.9272,2.873,2.8037,2.7097,2.6207,2.4756,2.3176,2.33,2.2616,2.1467,2.0355,1.8844,1.709,0.0,0.0,0.0,0.0,0.0,0.0,0.0,-0.182,-0.2448,-0.3676,-0.4436,-0.5218,-0.6141,-0.6842,-0.736,-0.76,-0.7547,-0.7433,-0.7274,-0.7068,-0.7242,-0.7827,-0.8496,-0.9298,-1.0261,-1.1399,-1.2191,-1.2608,-1.3089,-1.3138,-1.2799,-1.2229,-1.1728,-1.1205,-1.0417,-0.9791,-0.9257,-0.8744,-0.8322,-0.8004,-0.7696,-0.7133,-0.6449,-0.586,-0.5577,-0.5544,-0.5291,-0.4976,-0.4604,-0.4066,-0.3451,-0.2929,-0.2472,-0.205,-0.1592,0.0,0.0,0.0,0.0,0.0,0.0,0.0,0.0,0.0,0.0,0.0,0.0,0.0,0.0,1.7668,1.8069,0.0,1.7263,1.7823,1.8338,1.8944,1.9685,2.0648,2.1779,2.3293,2.406,2.4588,2.4936,2.5572,2.608,2.6492,2.7164,2.7718,2.8052,2.8686,2.9149,2.9213,2.9764,3.0143,3.0143,3.0523,3.0636,3.0567,3.0745,3.055,3.0157,3.0074,2.9567,2.8798,2.8158,2.736,2.6383,2.4915,2.3439,2.2046,2.1752,2.106,2.0085,1.9072,1.7795,1.6202,0.0,0.0,0.0,0.0,0.0,0.0,0.0,-0.1841,-0.241,-0.347,-0.4137,-0.4866,-0.5807,-0.6395,-0.6972,-0.749,-0.7289,-0.7265,-0.7576,-0.7503,-0.7835,-0.8701,-0.9519,-1.0392,-1.1361,-1.2891,-1.3793,-1.404,-1.4595,-1.4533,-1.4034,-1.3462,-1.2739,-1.1929,-1.1335,-1.0553,-0.9789,-0.9411,-0.901,-0.8623,-0.8445,-0.8089,-0.7655,-0.6763,-0.6421,-0.6303,-0.6178,-0.593,-0.5533,-0.515,-0.4772,-0.4316,-0.4089,-0.3974,-0.3916,-0.3538,-0.1921,0.0,0.0,0.0,0.0,0.0,0.0,0.0,0.0,0.0,2.0763,2.0879,1.969,1.8585,1.8423,1.775,1.7375,1.7872,1.7944,1.8295,1.9391,1.9829,2.0537,2.2005,2.2937,2.3621,2.3986,2.4539,2.5044,2.5298,2.6375,2.716,2.7489,2.8076,2.859,2.8846,2.9282,2.9573,2.9682,2.9953,3.0133,3.0133,3.0059,2.9948,2.9715,2.9444,2.901,2.8298,2.7288,2.6375,2.538,2.3504,2.2171,2.1151,2.0353,1.9591,1.8781,1.7932,1.6685,1.5362,0.0,0.0,0.0,0.0,0.0,0.0,0.0,0.0,-0.247,-0.3546,-0.4019,-0.4504,-0.515,-0.6,-0.6763,-0.728,-0.7281,-0.7378,-0.7571,-0.7869,-0.8625,-0.9945,-1.06,-1.165,-1.3211,-1.4523,-1.5331,-1.5643,-1.6134,-1.5965,-1.5251,-1.4522,-1.3673,-1.2746,-1.215,-1.1391,-1.0622,-1.0398,-1.0013,-0.9451,-0.9097,-0.8667,-0.8248,-0.7601,-0.7132,-0.6824,-0.6691,-0.6489,-0.6232,-0.6009,-0.5862,-0.5828,-0.6056,-0.6581,-0.7102,-0.7188,-0.5202,-0.1841,0.3572,1.2347,2.0215,2.1276,2.2077,2.2734,0.0,0.0,2.1278,2.1522,2.009,1.8748,1.8754,1.7922,1.7273,1.7633,1.7863,1.8073,1.8457,1.9008,1.9534,1.9915,2.1181,2.222,2.2617,2.3362,2.4051,2.4558,2.5407,2.6232,2.6942,2.7103,2.7415,2.8006,2.8076,2.833,2.8706,2.9213,2.9466,2.9466,2.9915,3.0055,2.9897,2.9602,2.9054,2.8326,2.6601,2.5247,2.4184,2.2988,2.1887,2.0875,1.9781,1.8525,1.7246,1.6957,1.5913,1.4539,0.0,0.0,0.0,0.0,0.0,0.0,0.0,0.0,0.0,-0.3062,-0.3712,-0.4264,-0.47,-0.5553,-0.6225,-0.6526,-0.6843,-0.7168,-0.7531,-0.8203,-0.9107,-1.028,-1.1562,-1.2858,-1.4163,-1.565,-1.6654,-1.7089,-1.7386,-1.7283,-1.6793,-1.579,-1.4736,-1.3673,-1.2886,-1.2077,-1.1335,-1.0962,-1.0594,-1.0062,-0.959,-0.8817,-0.807,-0.7421,-0.6726,-0.6049,-0.6552,-0.6524,0.0,-0.6534,-0.6854,-0.737,-0.8423,-0.9681,-1.0867,-1.1508,-0.9481,-0.484,0.5278,1.4333,2.1304,2.2862,2.3181,2.3187,2.3446,2.2239,2.0908,2.0476,1.9183,1.7947,1.7369,1.6711,1.6293,1.6528,1.6793,1.7054,1.7342,1.7823,1.8327,1.8638,1.9177,2.0041,2.1155,2.2193,2.3016,2.3444,2.4466,2.5228,2.5695,2.5957,2.6345,2.6915,2.7289,2.7765,2.8266,2.8745,2.8978,2.899,2.919,2.929,2.9209,2.8839,2.8081,2.6955,2.5596,2.452,2.3529,2.2325,2.1208,2.0078,1.8722,1.7463,1.6405,1.608,1.5001,1.3393,0.0,0.0,0.0,0.0,0.0,0.0,0.0,0.0,0.0,0.0,-0.331,-0.3903,-0.4417,-0.5004,-0.5502,-0.5755,-0.6212,-0.6746,-0.7407,-0.8303,-0.9447,-1.083,-1.2355,-1.3854,-1.5304,-1.6782,-1.7791,-1.8257,-1.8403,-1.8243,-1.7783,-1.6679,-1.5556,-1.4458,-1.3542,-1.2666,-1.1855,-1.1409,-1.0887,-1.0363,-0.9622,-0.8617,-0.742,-0.6655,-0.5666,-0.4795,-0.588,-0.6178,-0.6079,-0.6673,-0.7543,-0.8779,-1.0628,-1.2573,-1.4319,-1.5312,-1.1628,-0.4724,0.6713,1.5105,2.1066,2.2979,2.3189,2.2889,2.2733,2.143,1.9956,1.8933,1.7775,1.6701,1.5824,1.5438,1.5224,1.5359,1.5629,1.5944,1.6257,1.6617,1.7033,1.7521,1.7594,1.8149,1.9511,2.0914,2.1899,2.2309,2.3392,2.4166,2.4519,2.4861,2.5295,2.5985,2.659,2.7151,2.7764,2.8097,2.8258,2.8258,2.8258,2.8258,2.8258,2.7704,2.6849,2.5606,2.4627,2.3628,2.2728,2.1514,2.0292,1.9153,1.7786,1.6624,1.5571,1.4917,1.3835,1.2427,0.0,0.0,0.0,0.0,0.0,0.0,0.0,0.0,0.0,0.0,0.0,0.0,0.0,-0.4369,-0.4585,-0.5182,-0.546,-0.6118,-0.724,-0.8126,-0.9632,-1.1966,-1.2957,-1.4556,-1.6796,-1.784,-1.8643,-1.9156,-1.9181,-1.8812,-1.8148,-1.7062,-1.5934,-1.4832,-1.4114,-1.3251,-1.2224,-1.1632,-1.0962,-1.0121,-0.8995,-0.7753,-0.6414,-0.5123,-0.403,-0.3259,-0.4728,-0.5232,-0.537,-0.6388,-0.7997,-0.9976,-1.2499,-1.5018,-1.7173,-1.811,-1.0253,0.0218,0.7003,1.4362,2.036,2.1338,2.1806,2.1812,2.0966,1.9618,1.8312,1.7254,1.6095,1.4991,1.4342,1.4165,1.4195,1.4356,1.4599,1.4887,1.5394,1.5477,1.5726,1.6394,1.6624,1.6952,1.7465,1.9357,2.0736,2.1172,2.2227,2.3057,2.3503,2.3754,2.4398,2.5451,2.5774,2.6401,2.721,2.722,2.7231,2.7231,2.7231,2.7231,2.7231,2.6476,2.5606,2.4529,2.3728,2.2728,2.1623,2.0593,1.9457,1.8318,1.6929,1.5773,1.4821,1.3527,1.255,1.1787,0.0,0.0,0.0,0.0,0.0,0.0,0.0,0.0,0.0,0.0,0.0,0.0,0.0,0.0,0.0,0.0,-0.4899,-0.5591,-0.6193,-0.7837,-0.9409,-1.077,-1.3007,-1.4829,-1.6139,-1.7496,-1.8605,-1.94,-1.8971,-1.8621,-1.832,-1.7066,-1.5713,-1.4318,-1.3363,-1.2409,-1.1512,-1.0657,-0.9862,-0.9062,-0.8524,-0.6844,-0.441,-0.2863,-0.1564,-0.0618,0.0,-0.2071,-0.3719,-0.4808,-0.6951,-0.9813,-1.3242,-1.5832,-1.7278,-1.5767,-0.9043,-0.0859,0.4857,1.1391,1.7003,1.8737,1.9086,1.8918,1.8458,1.7338,1.6038,1.4836,1.3894,1.3075,1.25,1.2261,1.2264,1.2548,1.2908,1.3265,1.3609,1.4025,1.4398,1.481,1.5137,1.556,1.6064,1.8095,1.9563,1.9996,2.0992,2.1713,2.2069,2.2608,2.3347,2.4293,2.469,2.5292,2.6167,2.6177,2.6177,2.6177,2.6177,2.5984,2.5703,2.5216,2.452,2.3628,2.2828,2.2021,2.1097,1.9761,1.861,1.7351,1.5986,1.4821,1.3743,1.2441,1.135,1.0378,0.0,0.0,0.0,0.0,0.0,0.0,0.0,0.0,0.0,0.0,0.0,0.0,0.0,0.0,0.0,0.0,0.0,-0.4746,-0.5463,-0.7094,-0.8716,-1.0195,-1.2503,-1.4375,-1.566,-1.6867,-1.7932,-1.8846,-1.8184,-1.7699,-1.7509,-1.6068,-1.4684,-1.3308,-1.2204,-1.1295,-1.0373,-0.9417,-0.8743,-0.827,-0.7027,-0.4857,-0.2278,-0.0586,0.0751,0.0,0.2282,0.138,-0.0396,-0.2321,-0.4616,-0.7249,-1.0683,-1.3335,-1.4702,-1.2202,-0.7246,-0.1337,0.4009,0.9338,1.3878,1.6026,1.6446,1.6183,1.5756,1.4767,1.3584,1.2378,1.1586,1.1021,1.0696,1.0517,1.06,1.0931,1.1415,1.1887,1.2058,1.2704,1.3215,1.3548,1.3977,1.4398,1.4894,1.6574,1.8016,1.8801,1.9847,2.0628,2.0808,2.1535,2.227,2.3177,2.3579,2.4354,2.5304,2.5304,2.5304,2.5304,2.5304,2.5011,2.443,2.4233,2.3628,2.2828,2.2013,2.1191,2.0158,1.8923,1.7674,1.6511,1.5131,1.3846,1.2881,1.1568,1.0398,0.9468,0.0,0.0,0.0,0.0,0.0,0.0,0.0,0.0,0.0,0.0,0.0,0.0,0.0,0.0,0.0,0.0,0.0,0.0,-0.502,-0.5968,-0.7617,-1.0133,-1.1505,-1.3213,-1.5306,-1.5954,-1.671,-1.7549,-1.6694,-1.6147,-1.5807,-1.4258,-1.2939,-1.1744,-1.0705,-0.9711,-0.889,-0.7857,-0.7562,-0.7512,-0.4374,-0.1969,-0.0063,0.1717,0.3093,0.4119,0.464,0.4818,0.4277,0.0983,-0.1101,-0.2735,-0.5153,-0.7832,-0.9679,-0.7767,-0.4734,-0.0837,0.4474,0.8164,1.1079,1.3326,1.3863,1.3626,1.2886,1.199,1.0983,0.9948,0.9395,0.8935,0.0,0.0,0.9204,0.9501,1.0141,1.0684,1.0945,1.1494,1.2083,0.0,0.0,0.0,0.0,1.4959,1.6197,1.7533,1.8791,1.9637,1.9803,2.0555,2.1287,2.215,2.2659,2.3327,2.443,2.443,2.443,2.443,2.443,2.4134,2.3628,2.3329,2.2828,2.2021,2.1191,2.0158,1.902,1.7989,1.6842,1.5672,1.4266,1.3192,1.2219,1.0688,0.969,0.8927,0.0,0.0,0.0,0.0,0.0,0.0,0.0,0.0,0.0,0.0,0.0,0.0,0.0,0.0,0.0,0.0,0.0,0.0,-0.3649,-0.5189,-0.6713,-0.8178,-1.0187,-1.1838,-1.3035,-1.4158,-1.5006,-1.5545,-1.5017,-1.4415,-1.3729,-1.2142,-1.0663,-0.9328,-0.83,-0.7344,-0.6528,-0.5475,-0.4547,-0.3616,-0.1667,0.0369,0.2453,0.4883,0.5966,0.6285,0.6644,0.682,0.6518,0.4056,0.1967,0.0273,-0.0475,-0.2373,-0.4182,-0.3566,-0.1688,0.098,0.407,0.6734,0.8894,1.0455,1.0864,1.0827,1.0684,0.983,0.8886,0.8305,0.7784,0.7309,0.7146,0.7155,0.7363,0.7842,0.8227,0.0,0.9437,1.0163,0.0,1.1133,0.0,1.2525,1.2814,1.3932,1.4947,1.57,1.746,1.8635,1.9096,1.9895,2.0636,2.1318,2.2075,2.2743,2.3329,2.3538,2.3646,2.3646,2.3438,2.3129,2.2828,2.2325,2.1717,2.0893,1.9952,1.9027,1.7891,1.7054,1.5998,1.4815,1.3851,1.2762,1.1678,1.0363,0.9248,0.8262,0.0,0.0,0.0,0.0,0.0,0.0,0.0,0.0,0.0,0.0,0.0,0.0,0.0,0.0,0.0,0.0,0.0,0.0,0.0,-0.4204,-0.5623,-0.7114,-0.8808,-1.0271,-1.1451,-1.2386,-1.3,-1.3338,-1.2696,-1.209,-1.1423,-0.9825,-0.8644,-0.7757,-0.6187,-0.4942,-0.403,-0.3137,-0.2074,0.0,0.0,0.2683,0.4978,0.6616,0.7494,0.7833,0.8133,0.8679,0.927,0.0,0.0,0.6369,0.5415,0.3627,0.1579,-0.007,0.0153,0.1448,0.3575,0.5391,0.6927,0.8184,0.8539,0.8511,0.842,0.769,0.6853,0.6425,0.5983,0.5599,0.5534,0.5606,0.5794,0.0,0.0,0.0,0.8104,0.8949,0.9625,0.0,1.0809,0.0,1.1766,1.2901,1.389,1.444,1.6306,1.7613,1.8079,1.8965,1.9797,2.0539,2.1293,2.1951,2.2526,2.2837,2.2946,2.2837,2.2627,2.2325,2.1928,2.1412,2.0688,1.9857,1.9034,1.8101,1.6955,1.6105,1.5035,1.3959,1.2985,1.1787,1.07,0.9561,0.8445,0.7316,0.0,0.0,0.0,0.0,0.0,0.0,0.0,0.0,0.0,0.0,0.0,0.0,0.0,0.0,0.0,0.0,0.0,0.0,0.0,0.0,-0.4491,-0.641,-0.7375,-0.8588,-1.0076,-1.0532,-1.0876,-1.1097,-1.0289,-0.9638,-0.9123,-0.7502,-0.666,-0.6373,-0.4274,-0.2763,-0.1685,-0.0947,-0.005,0.0952,0.2624,0.4694,0.6888,0.0,0.8097,0.894,0.9197,1.0113,1.1657,0.0,1.4587,1.2837,1.0918,0.8749,0.6113,0.2083,0.073,0.0845,0.2492,0.3804,0.5016,0.6208,0.6528,0.6515,0.6298,0.5635,0.5003,0.456,0.4198,0.3972,0.404,0.4175,0.442,0.4974,0.0,0.63,0.6893,0.7859,0.8572,0.9022,0.9845,1.0567,1.0826,1.193,1.29,1.3655,1.5302,1.648,1.7138,1.797,1.8924,1.9889,2.0496,2.1102,2.192,2.2123,2.2123,2.1928,2.1928,2.1623,2.1113,2.0585,1.9857,1.9027,1.8108,1.7173,1.6111,1.5143,1.4175,1.3098,1.2032,1.0839,0.9643,0.8678,0.7552,0.638,0.0,0.0,0.0,0.0,0.0,0.0,0.0,0.0,0.0,0.0,-0.2322,-0.1982,0.0,0.0,0.0,0.0,0.0,0.0,0.0,0.0,0.0,-0.478,-0.5717,-0.6629,-0.7532,-0.8535,-0.8976,-0.8858,-0.8822,-0.8246,-0.7233,-0.5724,-0.4498,-0.3488,-0.2241,-0.1209,-0.0288,0.0496,0.1452,0.2498,0.381,0.5215,0.6569,0.7437,0.0,0.0,0.9746,1.0447,1.1279,1.1644,1.2549,1.3277,1.1872,0.8688,0.4627,0.0234,-0.1318,-0.1457,-0.0344,0.096,0.238,0.3554,0.4079,0.4385,0.4653,0.4008,0.0,0.3258,0.2785,0.2496,0.2684,0.2808,0.3113,0.3616,0.4112,0.4748,0.5684,0.6539,0.737,0.0,0.8896,0.966,1.003,1.1017,1.1947,1.2855,1.359,1.4854,1.6676,1.7315,1.8382,1.999,2.0389,2.0759,2.1121,2.1121,2.1121,2.1121,2.0925,2.0609,2.0285,1.945,1.8729,1.8115,1.706,1.6105,1.5143,1.4272,1.3408,1.246,1.1633,1.0795,0.98,0.8816,0.7674,0.6476,0.0,0.0,0.0,0.0,0.0,0.0,0.0,0.0,-0.3025,-0.3205,-0.2848,-0.2404,-0.1957,-0.1488,0.0,0.0,0.0,0.0,0.0,0.0,0.0,0.0,0.0,0.0,-0.6517,-0.7374,-0.7722,-0.7482,0.0,-0.7008,-0.5999,-0.4685,-0.3592,-0.2703,-0.1445,-0.0211,0.0995,0.1578,0.2381,0.3391,0.4572,0.5689,0.6696,0.0,0.0,0.0,0.0,0.0,0.9967,0.8897,0.7388,0.5919,0.6038,0.2496,-0.2224,-0.4938,-0.5731,-0.5339,-0.3905,-0.237,-0.0792,0.0512,0.1335,0.1857,0.2175,0.0,0.0,0.1585,0.1331,0.1114,0.1231,0.1525,0.1856,0.2353,0.293,0.3589,0.4629,0.5454,0.6247,0.6878,0.7759,0.8504,0.9043,0.9921,1.074,1.1648,1.236,1.367,1.5956,1.7004,1.8041,1.9131,1.9465,1.9776,2.0101,2.0101,2.0101,2.0101,1.9894,1.968,1.9153,1.8569,1.7909,1.7294,1.6344,1.5528,1.4872,1.3871,1.2981,1.21,1.1179,1.0063,0.905,0.8146,0.7047,0.5784,0.0,0.0,0.0,0.0,0.0,0.0,0.0,-0.3271,-0.3495,-0.3743,-0.3507,-0.3087,-0.2508,-0.1796,-0.1308,0.0,0.0,0.0,0.0,0.0,0.0,0.0,0.0,0.0,0.0,0.0,0.0,-0.6572,-0.6574,0.0,0.0,0.0,0.0,0.0,-0.1109,0.0307,0.1665,0.2211,0.2927,0.0,0.0,0.5933,0.0,0.0,0.0,0.0,0.0,0.0,0.8402,0.0,0.1332,-0.3493,-0.3202,-0.6054,-0.9857,-1.1369,-1.1117,-0.9966,-0.7994,-0.6121,-0.426,-0.2769,-0.1552,-0.0627,-0.0214,-0.0068,0.0,0.0,-0.0057,-0.0111,-0.0055,0.0331,0.0791,0.0,0.1916,0.2666,0.3601,0.4363,0.5129,0.5887,0.6557,0.0,0.8009,0.8703,0.951,1.0378,1.1373,1.2881,1.5171,1.6436,1.7365,1.7884,1.8304,1.8624,1.8848,1.8959,1.8959,1.8959,1.8848,1.8534,1.801,1.7655,1.7143,1.6411,1.5775,1.5095,1.4427,1.3517,1.2598,1.1799,1.057,0.9422,0.8383,0.7446,0.6286,0.509,0.0,0.0,0.0,0.0,0.0,0.0,0.0,-0.3817,-0.4086,-0.4285,-0.4147,-0.3879,-0.3589,-0.2526,-0.1763,0.0,0.0,0.0,0.0,0.0,0.0,0.0,0.0,0.0,0.0,0.0,0.0,-0.6154,-0.6379,0.0,0.0,0.0,0.0,0.0,0.0,0.0146,0.1139,0.2098,0.0,0.0,0.0,0.0,0.0,0.0,0.0,0.0,0.0,0.0,0.6677,0.0,0.0,-1.1781,-1.5042,-1.537,-1.5074,-1.7796,0.0,0.0,-1.294,-1.035,-0.7792,-0.6068,-0.4419,-0.2984,-0.2129,0.0,-0.1573,-0.1203,-0.1202,-0.1163,-0.0871,-0.0471,-0.0054,0.045,0.11,0.1782,0.2446,0.3226,0.3991,0.4772,0.0,0.0,0.6976,0.767,0.8463,0.9288,1.0918,1.2572,1.4343,1.5209,1.5897,1.6499,1.7041,1.7358,1.7358,1.7582,1.7793,1.7793,1.747,1.7147,1.6842,1.6476,1.6053,1.5412,1.4997,1.4421,1.3517,1.2602,1.1799,1.1125,1.0119,0.9229,0.8405,0.7322,0.6265,0.5165,0.0,0.0,0.0,0.0,0.0,0.0,-0.4023,-0.4264,-0.4501,-0.4933,-0.4784,-0.4512,-0.4221,-0.3368,-0.2595,0.0,0.0,0.0,0.0,0.0,0.0,0.0,0.0,0.0,0.0,0.0,-0.6285,-0.6163,-0.6616,0.0,0.0,0.0,0.0,0.0,0.0,-0.0311,0.0695,0.1696,0.0,0.0,0.0,0.0,0.0,0.0,0.0,0.0,0.0,0.0,0.5945,0.0,0.0,0.0,-1.7143,-2.0086,0.0,0.0,-2.1616,-1.9379,-1.6471,-1.359,-1.0976,-0.8838,-0.7046,-0.5558,-0.426,0.0,-0.3093,-0.2534,-0.2228,-0.2045,-0.1709,-0.1276,-0.084,-0.0333,0.0239,0.0897,0.1626,0.2309,0.2994,0.384,0.4195,0.4821,0.5852,0.6455,0.726,0.8732,0.9792,1.0919,1.2083,1.3562,1.4697,1.5232,1.5666,1.5986,1.6193,1.6411,1.663,1.6524,1.6305,1.6065,1.5802,1.5509,1.5148,1.4614,1.4275,1.3668,1.2963,1.2255,1.1422,1.0599,0.9463,0.8521,0.7438,0.6632,0.5542,0.4436,0.0,0.0,0.0,0.0,0.0,-0.3564,-0.4482,-0.4651,-0.4898,-0.5493,-0.5365,-0.508,-0.4647,-0.4009,-0.334,-0.2688,0.0,0.0,0.0,0.0,0.0,0.0,0.0,0.0,0.0,0.0,-0.6587,-0.6642,-0.712,-0.6952,0.0,0.0,-0.4199,-0.3001,0.0,0.0,0.0,0.0,0.0,0.0,0.0,0.0,0.0,0.0,0.0,0.0,0.0,0.0,0.0,0.0,0.0,0.0,0.0,-2.154,-2.5089,0.0,-2.5003,-2.2739,-1.9676,-1.658,-1.3711,-1.1575,-0.9635,-0.7826,0.0,0.0,-0.4468,-0.3758,-0.3279,-0.2865,-0.2472,-0.2084,-0.1642,-0.1079,-0.0526,0.0063,0.0791,0.1331,0.1947,0.2817,0.0,0.3653,0.4817,0.5477,0.6401,0.8014,0.8595,0.9279,1.0079,1.1657,1.2856,1.3846,1.4175,1.4493,1.4815,1.5131,1.5351,1.5351,1.503,1.4836,1.4746,1.443,1.4093,1.3615,1.3475,1.2964,1.2238,1.1635,1.0789,0.994,0.8842,0.7744,0.6646,0.5792,0.4807,0.3821,0.0,0.0,0.0,0.0,0.0,0.0,0.0,-0.4996,-0.532,-0.5907,-0.5874,-0.5533,-0.4876,-0.4383,-0.3901,-0.3439,0.0,0.0,0.0,0.0,0.0,0.0,0.0,0.0,0.0,0.0,-0.7223,-0.7695,-0.7807,-0.7618,-0.705,-0.606,-0.4985,-0.3837,0.0,0.0,0.0,0.0,0.0,0.0,0.0,0.0,0.0,0.0,0.0,0.0,0.0,0.0,0.0,0.0,0.0,0.0,0.0,-1.9578,-2.4418,-2.7942,-2.7114,-2.466,-2.2695,-1.9383,-1.6117,-1.4536,-1.2006,-0.9536,0.0,-0.6818,-0.5672,-0.4931,-0.4282,-0.3748,-0.3286,-0.282,-0.2317,-0.1763,-0.1246,-0.0684,-0.0192,0.0346,0.0899,0.0,0.199,0.261,0.3777,0.4922,0.5979,0.691,0.7455,0.8011,0.8686,0.9163,1.0241,1.2001,1.2659,1.3098,1.3315,1.3624,1.3835,1.4169,1.3635,1.3426,1.3644,1.331,1.2832,1.2451,1.264,1.2238,1.1273,1.0547,0.9943,0.9214,0.7875,0.7018,0.628,0.493,0.4192,0.3697,0.0,0.0,0.0,0.0,0.0,0.0,0.0,-0.4702,-0.4913,-0.5335,-0.526,-0.5058,-0.4705,-0.4192,-0.3817,-0.3615,0.0,0.0,0.0,0.0,0.0,0.0,0.0,0.0,0.0,0.0,-0.7654,-0.825,-0.8945,-0.8947,-0.8309,-0.7646,-0.6587,-0.52,-0.3855,-0.2571,0.0,0.0,0.0,0.0,0.0,0.0,0.0,0.0,0.0,0.0,0.0,0.0,0.0,0.0,0.0,0.0,0.0,0.0,0.0,-2.5488,-2.6124,-2.5249,-2.2725,-2.0139,-1.7554,-1.5184,-1.3194,-1.1202,-0.9071,-0.7783,-0.6737,-0.5605,-0.4846,-0.4248,-0.3755,-0.3384,-0.2963,-0.2365,-0.2095,-0.1678,-0.1026,0.0,0.0,0.0725,0.166,0.2501,0.304,0.3942,0.4796,0.5679,0.625,0.6778,0.7306,0.7904,0.892,1.0688,1.1227,1.1555,1.1782,1.2327,1.254,1.2436,1.2367,1.2315,1.2284,1.2022,1.1858,1.1675,1.1491,1.0962,1.0148,0.9529,0.8666,0.7758,0.6987,0.6035,0.493,0.4066,0.3328,0.2466,0.0,0.0,0.0,0.0,0.0,0.0,0.0,-0.4595,-0.4759,-0.5129,-0.5047,-0.4848,-0.452,-0.411,-0.3767,-0.3602,0.0,0.0,0.0,0.0,0.0,0.0,0.0,0.0,0.0,-0.7599,-0.849,-0.9412,-0.996,-1.005,-0.971,-0.899,-0.7918,-0.6522,-0.5057,-0.3529,0.0,0.0,0.0,0.0,0.0,0.0,0.4172,0.0,0.0,0.0,0.0,0.0,0.0,0.0,0.0,0.0,0.0,0.0,0.0,0.0,-2.3942,-2.411,-2.2619,-2.0489,-1.8205,-1.5976,-1.4007,0.0,0.0,-0.8699,-0.7503,-0.639,-0.5553,-0.4946,-0.4495,-0.4131,-0.3695,-0.3131,-0.2932,-0.2556,-0.1886,0.0,0.0,0.0,0.109,0.1911,0.2405,0.2971,0.3788,0.4565,0.5106,0.5506,0.6033,0.6596,0.7482,0.8699,0.9467,1.0017,1.0464,1.0794,1.1013,1.0903,1.0982,1.0936,1.0997,1.0824,1.0632,1.0543,1.0119,0.968,0.0,0.8368,0.7512,0.6623,0.5876,0.493,0.3822,0.3081,0.2218,0.148,0.0,0.0,0.0,0.0,0.0,0.0,0.0,0.0,-0.479,-0.5158,-0.5105,-0.4831,-0.4324,-0.4015,-0.3746,-0.3413,0.0,0.0,0.0,0.0,0.0,0.0,0.0,0.0,0.0,-0.8464,-0.9567,-1.0903,-1.0898,-1.099,-1.1191,-1.0221,-0.909,-0.7747,-0.6231,-0.4484,0.0,0.0,0.0,0.0,0.0,0.0,0.0,0.0,0.0,0.0,0.0,0.0,0.0,0.0,0.0,0.0,0.0,0.0,0.0,0.0,0.0,0.0,0.0,-2.0399,-1.8025,-1.6718,-1.4508,-1.2368,-1.1254,0.0,0.0,-0.7288,-0.6481,-0.5755,-0.5433,-0.4939,-0.4485,-0.4142,-0.372,-0.3335,-0.2806,-0.2391,0.0,-0.062,0.0186,0.1056,0.1761,0.2197,0.2769,0.3717,0.4047,0.4433,0.481,0.5375,0.5819,0.6151,0.7595,0.8592,0.9251,0.9251,0.9357,0.9581,0.9409,0.9453,0.9613,0.9513,0.93,0.9191,0.8692,0.8396,0.8042,0.7088,0.625,0.554,0.4655,0.3699,0.2714,0.1726,0.1233,0.0616,0.0,0.0,0.0,0.0,0.0,0.0,0.0,0.0,0.0,0.0,-0.4229,-0.409,-0.3865,-0.3642,-0.3458,0.0,0.0,0.0,0.0,0.0,0.0,0.0,0.0,0.0,0.0,-0.8522,-0.9679,-1.112,-1.1688,-1.204,-1.2228,-1.1697,-1.0623,-0.9097,-0.761,-0.5336,-0.2571,0.0,0.0,0.0,0.0,0.0,0.0,0.0,0.0,0.0,0.3577,0.3112,0.0,0.0,0.0,0.0,0.0,0.0,0.0,0.0,-2.0898,-2.1081,-2.0348,0.0,-1.7523,-1.5728,-1.4182,-1.265,0.0,0.0,0.0,0.0,0.0,-0.649,-0.5917,-0.5629,-0.5236,-0.4758,-0.4449,-0.4022,-0.3434,-0.276,0.0,-0.1514,-0.0651,0.0192,0.0686,0.1415,0.208,0.2552,0.3017,0.3506,0.3918,0.4258,0.4706,0.5264,0.5817,0.6594,0.7706,0.7925,0.7925,0.7817,0.8063,0.8199,0.7982,0.8005,0.8089,0.8085,0.749,0.7087,0.686,0.5743,0.4932,0.4219,0.3554,0.259,0.1356,0.0863,0.0247,-0.0616,0.0,0.0,0.0,0.0,0.0,0.0,0.0,0.0,0.0,0.0,0.0,0.0,0.0,0.0,0.0,0.0,0.0,0.0,0.0,0.0,0.0,0.0,0.0,0.0,-0.7993,-0.9206,-1.0469,-1.1815,-1.2488,-1.3138,-1.3677,-1.2832,-1.1832,-1.0644,-0.8133,-0.5773,-0.3577,-0.2641,-0.1798,-0.0983,-0.0268,0.0,0.0,0.0,0.0,0.0,0.1914,0.1307,0.0,-0.1364,-0.4402,-0.8068,0.0,0.0,0.0,0.0,-1.9875,-1.9875,-1.8898,-1.8047,-1.7023,-1.5383,-1.4035,-1.2708,-1.1368,0.0,0.0,0.0,0.0,-0.7185,-0.6776,-0.6436,-0.6067,-0.5595,-0.5278,-0.4806,0.0,0.0,-0.264,-0.2019,-0.1328,-0.0584,0.0099,0.0612,0.115,0.1702,0.2164,0.2532,0.2913,0.3363,0.3811,0.4258,0.4594,0.5373,0.6599,0.6824,0.6824,0.6601,0.6825,0.6797,0.6626,0.6672,0.6725,0.6773,0.6087,0.5722,0.5647,0.4391,0.3469,0.2774,0.2329,0.1233,0.0,-0.0247,-0.1109,-0.1973,0.0,0.0,0.0,0.0,0.0,0.0,0.0,0.0,0.0,0.0,0.0,0.0,0.0,0.0,0.0,0.0,0.0,0.0,0.0,0.0,0.0,0.0,0.0,-0.7419,-0.8456,-0.9995,-1.1456,-1.2765,-1.3386,-1.4201,-1.5194,-1.395,-1.2878,-1.1812,-0.8403,-0.6241,-0.5053,-0.3784,-0.2836,-0.2186,-0.1518,0.0,0.0,0.0,0.0,0.0,0.0,0.0,0.0,-0.3594,-0.6713,-1.0021,-1.1651,0.0,0.0,0.0,0.0,0.0,-1.7948,-1.7321,-1.658,-1.5375,-1.4011,-1.2758,-1.1978,0.0,0.0,0.0,0.0,0.0,-0.7709,-0.7351,0.0,-0.655,-0.6075,-0.5451,-0.4681,-0.3974,-0.3278,-0.2464,-0.194,-0.1286,-0.0302,-0.0103,0.0315,0.1064,0.1411,0.1767,0.213,0.2579,0.3026,0.3477,0.3701,0.437,0.5373,0.5824,0.5938,0.5599,0.5681,0.5612,0.5396,0.5342,0.5377,0.5268,0.4723,0.4394,0.4236,0.3059,0.2142,0.1453,0.0858,-0.0123,-0.1233,-0.1603,-0.2343,-0.3208,0.0,0.0,0.0,0.0,0.0,0.0,0.0,0.0,0.0,0.0,0.0,0.0,0.0,0.0,0.0,0.0,0.0,0.0,0.0,0.0,0.0,0.0,-0.6438,-0.7592,-0.8702,-1.0043,-1.1816,-1.4015,-1.4363,-1.5124,-1.6235,-1.5468,-1.3772,-1.1227,-0.9041,-0.7355,-0.6186,-0.5134,-0.4144,-0.3296,-0.2583,0.0,0.0,0.0,0.0,0.0,0.0,0.0,0.0,-0.679,-0.8696,-1.0301,-1.2673,0.0,0.0,0.0,0.0,0.0,-1.8093,-1.7107,-1.6098,-1.5175,-1.4121,-1.3235,-1.2877,-1.2016,0.0,0.0,0.0,0.0,0.0,-0.8399,-0.8131,0.0,-0.6324,-0.55,-0.5096,-0.4575,-0.3912,-0.332,-0.2617,-0.1977,-0.1412,-0.0521,0.0106,0.0213,0.0659,0.123,0.1795,0.1907,0.2243,0.2806,0.3139,0.3362,0.3473,0.4367,0.4704,0.4704,0.4382,0.4307,0.436,0.4085,0.3869,0.3687,0.3172,0.2861,0.2588,0.1649,0.0838,0.0246,-0.0493,-0.1356,-0.2343,-0.259,-0.3206,-0.3944,0.0,0.0,0.0,0.0,0.0,0.0,0.0,0.0,0.0,0.0,0.0,0.0,0.0,0.0,0.0,0.0,0.0,0.0,0.0,0.0,0.0,-0.515,-0.6542,-0.7891,-0.9089,-1.0954,-1.2673,-1.43,-1.5239,-1.6152,-1.7068,-1.5691,-1.3903,-1.1718,-0.9747,-0.8302,-0.7238,-0.6234,-0.5222,-0.4232,0.0,0.0,0.0,0.0,0.0,0.0,0.0,0.0,0.0,0.0,-0.9933,-1.1812,-1.4113,0.0,0.0,0.0,0.0,0.0,-1.8324,-1.7542,-1.6805,-1.6132,-1.4862,-1.3703,-1.3403,-1.2776,0.0,0.0,0.0,0.0,0.0,0.0,-0.8781,-0.7901,-0.7196,-0.6456,-0.5953,-0.526,-0.4493,-0.3761,-0.315,-0.25,-0.1716,-0.1148,-0.0746,-0.0213,0.022,0.0561,0.1009,0.1346,0.1795,0.2244,0.2467,0.2691,0.2915,0.3138,0.3474,0.3696,0.3586,0.3376,0.3061,0.2925,0.2703,0.2494,0.1912,0.1705,0.1511,0.0352,-0.0358,-0.0853,-0.1721,-0.259,-0.3329,-0.4192,-0.4807,-0.5419,0.0,0.0,0.0,0.0,0.0,0.0,0.0,0.0,0.0,0.0,0.0,0.0,0.0,0.0,0.0,0.0,0.0,0.0,0.0,0.0,-0.4326,-0.5083,-0.6773,-0.8245,-0.9508,-1.1778,-1.3536,-1.474,-1.6139,-1.7146,-1.7712,-1.5824,-1.413,-1.2603,-1.0616,-0.9217,-0.8309,-0.7321,-0.6358,-0.5468,0.0,0.0,0.0,0.0,0.0,0.0,0.0,0.0,0.0,0.0,0.0,0.0,0.0,0.0,0.0,-1.9374,-1.9491,-1.9201,-1.8501,-1.803,-1.7613,-1.7155,-1.5905,-1.4739,-1.4364,-1.3928,-1.3439,0.0,0.0,0.0,0.0,-1.0264,-0.9247,-0.8562,-0.7966,-0.7368,-0.6548,-0.5879,-0.5106,-0.4206,-0.369,-0.3027,-0.202,-0.1767,-0.1379,-0.0746,-0.0329,0.0,0.0336,0.0785,0.1234,0.157,0.1795,0.202,0.2244,0.202,0.2243,0.2914,0.2801,0.2354,0.1907,0.1795,0.157,0.1234,0.0673,0.0453,0.0345,-0.0932,-0.154,-0.193,-0.2931,-0.3688,-0.4559,-0.5667,-0.6405,-0.6891,0.0,0.0,0.0,0.0,0.0,0.0,0.0,0.0,0.0,0.0,0.0,0.0,0.0,0.0,0.0,0.0,0.0,0.0,0.0,0.0,-0.4292,-0.5147,-0.7088,-0.8718,-0.9939,-1.2013,-1.4046,-1.605,-1.7241,-1.795,-1.8221,-1.6378,-1.4942,-1.3792,-1.1664,-1.0244,-0.9421,-0.8561,-0.7844,-0.7217,-0.6407,0.0,0.0,0.0,0.0,0.0,0.0,0.0,0.0,0.0,0.0,0.0,0.0,0.0,-1.9224,-1.9722,-1.9688,-1.9336,-1.8591,-1.8228,-1.7957,-1.7556,-1.7204,-1.686,-1.6426,-1.5918,0.0,-1.473,0.0,0.0,0.0,-1.088,-0.974,-0.9537,-0.8566,-0.7535,-0.669,-0.6384,-0.5869,-0.4806,-0.4187,-0.3732,-0.313,-0.2158,-0.1569,-0.1596,-0.0868,-0.0221,0.0,0.0336,0.0673,0.1009,0.1009,0.1009,0.1009,0.1009,0.1458,0.2244,0.1683,0.1234,0.1009,0.0673,0.0224,-0.0224,-0.0561,-0.0906,-0.1265,-0.2186,-0.2814,-0.3376,-0.398,-0.4868,-0.5794,-0.6523,-0.7258,-0.7869,0.0,0.0,0.0,0.0,0.0,0.0,0.0,0.0,0.0,0.0,0.0,0.0,0.0,0.0,0.0,0.0,0.0,0.0,0.0,0.0,-0.4424,-0.5479,-0.7322,-0.8936,-1.023,-1.2792,-1.4818,-1.6253,-1.7963,-1.8668,-1.8447,-1.7112,-1.5799,-1.4545,-1.2866,-1.1507,-1.0446,-0.9778,-0.9085,-0.837,-0.7653,-0.7165,0.0,0.0,0.0,0.0,0.0,0.0,0.0,0.0,-1.3531,-1.5572,-1.7126,-1.8534,-1.9699,-1.994,-1.9774,-1.947,-1.9255,-1.9098,-1.8984,-1.9035,-1.9142,0.0,0.0,-1.7302,-1.6992,-1.6316,-1.5518,0.0,0.0,-1.1834,-1.107,-1.0183,-0.9392,-0.8595,-0.7756,-0.7108,-0.6385,-0.5374,-0.4814,-0.4133,-0.3331,-0.2874,-0.2392,-0.1675,-0.1399,-0.0987,-0.0552,-0.0112,0.0224,0.0336,0.0673,0.0897,0.0897,0.0561,0.0561,0.0785,0.0785,0.0561,0.0336,0.0,-0.0449,-0.1009,-0.1346,-0.1688,-0.2264,-0.2975,-0.3703,-0.422,-0.5136,-0.6194,-0.7138,-0.738,-0.7991,-0.8836,0.0,0.0,0.0,0.0,0.0,0.0,0.0,0.0,0.0,0.0,0.0,0.0,0.0,0.0,0.0,0.0,0.0,0.0,-0.3398,-0.3859,-0.4615,-0.5776,-0.7598,-0.9137,-1.04,-1.3142,-1.5151,-1.6346,-1.8353,-1.9139,-1.8731,-1.7688,-1.6599,-1.5466,-1.4,-1.2747,-1.1771,-1.1094,-1.047,-0.9817,-0.9252,-0.868,0.0,0.0,0.0,0.0,0.0,0.0,0.0,0.0,-1.3971,-1.5917,-1.739,-1.8636,-1.9656,-2.0018,-1.9853,-1.9582,-1.9705,-1.9659,-1.9668,-2.0075,0.0,0.0,-1.9556,-1.8909,-1.8429,-1.7956,-1.6812,-1.5297,-1.3508,-1.2651,-1.1922,-1.0742,-0.9995,-0.9213,-0.8318,-0.7654,-0.6833,-0.5927,-0.5336,-0.4535,-0.3633,-0.337,-0.2887,-0.2073,-0.1804,-0.1509,-0.1192,-0.0551,-0.0334,-0.0334,0.0112,0.0336,0.0336,-0.0112,-0.0336,-0.0336,-0.0224,-0.0336,-0.0561,-0.0785,-0.1121,-0.1795,-0.2131,-0.2578,-0.3027,-0.3857,-0.4686,-0.541,-0.6264,-0.7088,-0.7878,-0.8239,-0.872,-0.943,0.0,0.0,0.0,0.0,0.0,0.0,0.0,0.0,0.0,0.0,0.0,0.0,0.0,0.0,0.0,0.0,0.0,0.0,-0.3441,-0.4012,-0.4844,-0.6067,-0.7894,-0.9394,-1.0484,-1.2926,-1.4967,-1.6494,-1.8426,-1.9288,-1.9072,-1.8061,-1.7283,-1.6621,-1.4972,-1.3973,-1.3545,-1.2615,-1.2069,-1.1784,-1.1215,-1.0598,-0.9971,0.0,0.0,0.0,0.0,0.0,0.0,0.0,-1.4106,-1.5314,-1.7651,-1.8613,-1.9074,-1.9924,-1.9956,-1.9732,-1.9795,-1.975,-1.9826,-2.0383,0.0,0.0,-2.1943,-2.0762,-1.9747,-1.9715,-1.7906,-1.5923,-1.475,-1.3281,-1.2063,-1.1117,-1.0291,-0.9359,-0.8333,-0.7838,-0.7332,-0.6534,-0.5739,-0.5041,-0.4438,-0.3633,-0.3153,-0.29,-0.2074,-0.1672,-0.1702,-0.1191,-0.0874,-0.0874,-0.0889,-0.0897,-0.0897,-0.0897,-0.0897,-0.0897,-0.1234,-0.1458,-0.1795,-0.1795,-0.2132,-0.2693,-0.3365,-0.3587,-0.3699,-0.4925,-0.5989,-0.6896,-0.7354,-0.7633,-0.7979,-0.8913,-0.9262,-0.9494,0.0,0.0,0.0,0.0,0.0,0.0,0.0,0.0,0.0,0.0,0.0,0.0,0.0,0.0,0.0,0.0,0.0,0.0,-0.3643,-0.4204,-0.5092,-0.6403,-0.7841,-0.9287,-1.0759,-1.3657,-1.5771,-1.6996,-1.7817,-1.8332,-1.8584,-1.8251,-1.7827,-1.7279,-1.6213,-1.5296,-1.4445,-1.3668,-1.3187,-1.2942,-1.2472,-1.1796,-1.1082,0.0,0.0,0.0,0.0,0.0,0.0,0.0,0.0,0.0,-1.6517,-1.7834,-1.9004,-1.9225,-1.9468,-1.9856,-2.059,-2.0743,0.0,-2.1933,0.0,0.0,0.0,-2.2386,0.0,0.0,-1.8563,-1.6993,-1.5507,-1.4351,-1.3199,-1.1918,-1.1056,-1.0218,-0.9343,-0.871,-0.7916,-0.7027,-0.6239,-0.5441,-0.4736,-0.4336,-0.3742,-0.3153,-0.2884,-0.2599,-0.23,-0.1701,-0.1503,-0.1503,-0.108,-0.0866,-0.0866,-0.1083,-0.1198,-0.1212,-0.1653,-0.1885,-0.1795,-0.202,-0.2579,-0.3365,-0.3475,-0.4033,-0.4925,-0.6151,-0.6888,-0.7225,-0.8064,-0.8596,-0.8913,-0.9494,-1.0069,-1.0632,0.0,0.0,0.0,0.0,0.0,0.0,0.0,0.0,0.0,0.0,0.0,0.0,0.0,0.0,0.0,0.0,0.0,0.0,0.0,-0.4422,-0.5331,-0.6674,-0.7975,-0.9482,-1.1204,-1.365,-1.5272,-1.605,-1.7116,-1.7825,-1.8144,-1.8322,-1.825,-1.787,-1.71,-1.6416,-1.5811,-1.4773,-1.4319,-1.4142,-1.3557,-1.2871,-1.2165,0.0,0.0,0.0,0.0,0.0,0.0,0.0,0.0,0.0,-1.5971,-1.7291,-1.8573,-1.8869,-1.9325,-1.9964,-2.097,-2.1228,0.0,-2.3121,-2.3714,-2.3963,-2.4164,0.0,0.0,0.0,-1.9231,-1.7734,-1.6139,-1.4918,-1.3626,-1.2357,-1.1444,-1.0576,-0.9784,-0.9035,-0.8236,-0.7459,-0.6637,-0.5973,-0.5277,-0.4816,-0.4336,-0.3734,-0.3468,-0.308,-0.2771,-0.2297,-0.2002,-0.1897,-0.1487,-0.1279,-0.1173,-0.1386,-0.15,-0.1623,-0.1948,-0.2294,-0.2443,-0.2683,-0.3139,-0.3813,-0.4145,-0.5037,-0.6151,-0.693,-0.753,-0.7936,-0.8613,-0.912,-0.977,-0.9993,-1.0556,-1.1222,0.0,0.0,0.0,0.0,0.0,0.0,0.0,0.0,0.0,0.0,0.0,0.0,0.0,0.0,0.0,0.0,0.0,0.0,0.0,0.0,-0.5505,-0.6836,-0.8269,-0.9879,-1.1695,-1.3013,-1.3884,-1.4298,-1.6391,-1.7468,-1.7655,-1.8261,-1.8515,-1.8425,-1.7699,-1.7357,-1.7283,-1.5886,-1.5301,-1.5228,-1.4485,-1.3778,-1.3139,-1.2445,0.0,0.0,0.0,0.0,0.0,0.0,0.0,0.0,-1.5788,-1.6875,-1.7831,-1.8644,-1.9262,-1.9929,-2.1019,-2.1419,-2.1973,-2.3865,-2.448,0.0,-2.5208,-2.3891,-2.225,-2.1282,-1.9841,-1.8238,-1.6796,-1.522,-1.3802,-1.2705,-1.169,-1.0686,-0.98,-0.9042,-0.8411,-0.7688,-0.704,-0.6443,-0.5968,-0.5271,-0.4726,-0.4437,-0.3734,-0.3331,-0.323,-0.2769,-0.2483,-0.2172,-0.2103,-0.2014,-0.1802,-0.1802,-0.1909,-0.2126,-0.2232,-0.2681,-0.3491,-0.355,-0.3807,-0.4148,-0.515,-0.6151,-0.7154,-0.7265,-0.7928,-0.8923,-0.9034,-0.9588,-1.0366,-1.0692,-1.1021,-1.1345,0.0,0.0,0.0,0.0,0.0,0.0,0.0,0.0,0.0,0.0,0.0,0.0,0.0,0.0,0.0,0.0,0.0,0.0,0.0,0.0,-0.5513,-0.6913,-0.8816,-1.0281,-1.1221,-1.2304,-1.3347,-1.4298,-1.5463,-1.6383,-1.7075,-1.7736,-1.8338,-1.8838,-1.821,-1.794,-1.7849,-1.6601,-1.5744,-1.5228,-1.5023,-1.4222,-1.3083,-1.2885,-1.2456,0.0,0.0,0.0,0.0,0.0,0.0,0.0,-1.5109,-1.5979,-1.6953,-1.7806,-1.8434,-1.9246,-2.1039,-2.1921,0.0,0.0,-2.3895,-2.4418,-2.5461,-2.436,-2.2914,-2.2241,-2.0748,-1.9107,-1.7423,-1.6041,-1.4727,-1.3392,-1.241,-1.1467,-1.0682,-0.984,-0.91,-0.8411,-0.7516,-0.6825,-0.6446,-0.5892,-0.5351,-0.473,-0.4533,-0.4133,-0.3534,-0.3243,-0.2944,-0.264,-0.2445,-0.2348,-0.2246,-0.2246,-0.2262,-0.2399,-0.2818,-0.3159,-0.3427,-0.3488,-0.4093,-0.515,-0.6262,-0.6932,-0.7265,-0.8149,-0.8702,-0.903,-0.9919,-1.0472,-1.0692,-1.124,-1.1678,-1.2114,0.0,0.0,0.0,0.0,0.0,0.0,0.0,0.0,0.0,0.0,0.0,0.0,0.0,0.0,0.0,0.0,0.0,0.0,0.0,0.0,-0.5792,-0.7589,-0.8995,-1.0009,-1.0599,-1.1629,-1.2718,-1.3766,-1.4684,-1.5591,-1.65,-1.7593,-1.8343,-1.8761,-1.8517,-1.8438,-1.8435,-1.7164,-1.6247,-1.559,-1.5249,-1.4449,-1.3441,-1.3052,-1.2711,-1.2475,-1.2633,0.0,0.0,0.0,0.0,0.0,0.0,0.0,-1.6676,-1.7538,-1.8236,-1.9133,-2.1142,0.0,0.0,-2.4007,0.0,-2.5247,-2.5382,-2.4643,-2.3661,-2.2644,-2.1126,-1.9423,-1.7908,-1.6453,-1.5151,-1.4062,-1.3039,-1.206,-1.1237,-1.0372,-0.9611,-0.8816,-0.8169,-0.7512,-0.7026,-0.6426,-0.5932,-0.5457,-0.507,-0.4595,-0.4234,-0.3633,-0.323,-0.3027,-0.2725,-0.2522,-0.2422,-0.2422,-0.2434,-0.2662,-0.3072,-0.3618,-0.4205,-0.4319,-0.5068,-0.6262,-0.6932,-0.7487,-0.8039,-0.8699,-0.9254,-0.9809,-1.0468,-1.0911,-1.1345,-1.1787,-1.2223,-1.2659,0.0,0.0,0.0,0.0,0.0,0.0,0.0,0.0,0.0,0.0,0.0,0.0,0.0,0.0,0.0,0.0,0.0,0.0,0.0,0.0,0.0,-0.834,-0.8992,-0.9555,-1.0097,-1.1053,-1.208,-1.3195,-1.4041,-1.4992,0.0,-1.7607,-1.8392,-1.8575,-1.8708,-1.8885,-1.9006,-1.7685,-1.67,-1.5956,-1.5364,-1.4599,-1.372,-1.3116,-1.2889,-1.2928,-1.3053,-1.3312,-1.363,-1.3948,0.0,0.0,0.0,0.0,-1.6457,-1.7333,-1.8065,-1.9001,-2.09,0.0,-2.263,-2.4697,-2.5734,0.0,-2.5132,-2.4646,-2.4002,-2.2652,-2.1128,-1.9659,-1.8399,-1.6944,-1.556,-1.4643,-1.3548,-1.2534,-1.1585,-1.0809,-1.012,-0.917,-0.8775,-0.8249,-0.7549,-0.6919,-0.6478,-0.6225,-0.546,-0.491,-0.4785,-0.4111,-0.3618,-0.3314,-0.3024,-0.2826,-0.2623,-0.2522,-0.2623,-0.2927,-0.333,-0.4073,-0.5184,-0.5339,-0.6124,-0.7124,-0.7346,-0.8017,-0.8923,-0.9034,-0.9805,-1.0692,-1.0802,-1.135,-1.211,-1.2332,-1.2767,-1.3202,0.0,0.0,0.0,0.0,0.0,0.0,0.0,0.0,0.0,0.0,0.0,0.0,0.0,0.0,0.0,0.0,0.0,0.0,-0.3859,0.0,0.0,-0.8434,-0.9074,-0.9607,-1.0097,-1.0576,-1.1624,-1.3195,-1.3679,0.0,0.0,0.0,0.0,-1.8858,-1.9001,-1.92,-1.934,-1.8135,-1.6836,-1.5583,-1.5595,-1.4714,-1.3362,-1.3261,-1.3278,-1.3329,-1.3477,-1.3696,-1.3959,-1.419,-1.4489,0.0,0.0,0.0,-1.5631,-1.6493,-1.7238,-1.8059,-1.9438,0.0,-2.324,0.0,-2.4956,-2.4998,0.0,0.0,-2.3232,-2.2252,-2.1356,-2.0294,-1.9116,-1.7585,-1.6206,-1.5137,-1.4062,-1.296,-1.2015,-1.1327,-1.0636,-0.9951,-0.9279,-0.8653,-0.8265,-0.757,-0.6996,-0.6378,-0.601,-0.5451,-0.4606,-0.4586,-0.4332,-0.3837,-0.3603,-0.3433,-0.3433,-0.323,-0.323,-0.3534,-0.4234,-0.4983,-0.5693,-0.6238,-0.6687,-0.7116,-0.809,-0.8699,-0.8923,-0.9809,-1.0363,-1.0802,-1.124,-1.1787,-1.2441,-1.2659,-1.331,-1.4062,0.0,0.0,0.0,0.0,0.0,0.0,0.0,0.0,0.0,0.0,0.0,0.0,0.0,0.0,0.0,-0.3408,-0.358,-0.4042,-0.4849,-0.6054,-0.7297,-0.8563,-0.9143,-0.9686,-1.0135,-1.0496,-1.1349,-1.2704,0.0,0.0,0.0,-1.7827,-1.8885,0.0,0.0,0.0,-1.9729,-1.8883,-1.7714,-1.6411,-1.6503,-1.5867,-1.4865,-1.4865,-1.4917,-1.4984,-1.5114,-1.5033,-1.4882,-1.5068,-1.5036,-1.4938,-1.5101,0.0,0.0,0.0,-1.6766,-1.7248,-1.8717,-2.0855,-2.2845,0.0,-2.3766,-2.3952,-2.4218,-2.3605,-2.272,-2.1966,-2.1115,-2.0192,-1.8985,-1.7869,-1.6804,-1.5824,-1.4817,-1.3808,-1.2875,-1.21,-1.1241,-1.0467,-0.9864,-0.9288,-0.8573,-0.8046,-0.7573,-0.699,-0.6447,-0.5919,-0.5325,-0.4895,-0.4438,-0.4244,-0.3895,-0.3718,-0.3718,-0.3655,-0.3794,-0.4036,-0.4535,-0.5157,-0.5705,-0.6417,-0.6964,-0.7419,-0.8156,-0.8773,-0.9345,-1.0105,-1.0707,-1.124,-1.1678,-1.2223,-1.2772,-1.2989,-1.3527,-1.4277,0.0,0.0,0.0,0.0,0.0,0.0,0.0,0.0,0.0,0.0,0.0,0.0,0.0,0.0,0.0,0.0,-0.4254,-0.481,-0.5916,-0.6612,-0.7521,-0.8739,-0.9289,-0.9764,-1.0223,-1.0559,-1.1235,-1.2337,0.0,0.0,-1.5521,-1.8055,-1.9323,0.0,-2.0412,-2.0572,0.0,0.0,0.0,-1.7236,-1.7309,-1.6888,-1.6236,-1.6447,-1.6445,-1.637,-1.6693,-1.6425,-1.5918,-1.6116,-1.5819,-1.5379,-1.5482,-1.5446,0.0,0.0,0.0,0.0,0.0,0.0,-2.1667,-2.2162,-2.2653,-2.3051,0.0,0.0,-2.2273,-2.1475,-2.0714,-1.9849,-1.8826,-1.7942,-1.7064,-1.6261,-1.5284,-1.4393,-1.3548,-1.2699,-1.1843,-1.0895,-1.0381,-0.9859,-0.9074,-0.8548,-0.8074,-0.7573,-0.6859,-0.6265,-0.6081,-0.5272,-0.4819,-0.4631,-0.4182,-0.4003,-0.4003,-0.3962,-0.4126,-0.4508,-0.4804,-0.5214,-0.5737,-0.6539,-0.7152,-0.7547,-0.8304,-0.893,-0.961,-1.0138,-1.0856,-1.1531,-1.185,-1.2313,-1.3009,-1.3337,-1.3798,-1.4493,0.0,0.0,0.0,0.0,0.0,0.0,0.0,0.0,0.0,0.0,0.0,0.0,-0.4145,-0.4494,-0.4766,-0.4843,-0.5068,-0.5684,-0.6772,-0.7353,-0.8082,-0.9031,-0.9473,0.0,-1.0274,-1.0608,-1.1332,0.0,0.0,0.0,-1.5743,-1.8414,-1.9848,-2.0178,-2.0866,-2.0917,-2.0449,0.0,0.0,0.0,-1.7644,-1.7175,-1.6561,-1.7397,-1.7266,-1.6769,-1.7617,-1.7527,0.0,0.0,0.0,0.0,0.0,-1.5947,-1.5389,0.0,0.0,0.0,0.0,-1.9131,0.0,-2.0852,-2.1873,-2.2407,0.0,-2.1785,-2.16,-2.084,-2.009,-1.9442,-1.8864,-1.7853,-1.6988,-1.649,-1.5343,-1.4316,-1.3749,-1.3124,-1.2357,-1.1413,-1.0809,-1.0376,-0.9951,-0.9074,-0.8464,-0.8212,-0.7507,-0.6802,-0.6103,-0.5943,-0.5637,-0.5085,-0.4714,-0.4476,-0.4476,-0.4288,-0.4334,-0.4716,-0.5203,-0.5647,-0.6042,-0.6839,-0.7144,-0.7266,-0.8512,-0.9186,-0.9343,-1.0277,-1.0802,-1.1123,-1.1643,-1.2282,-1.3097,-1.3625,-1.43,-1.5035,0.0,0.0,0.0,0.0,0.0,0.0,0.0,0.0,0.0,0.0,0.0,0.0,0.0,-0.5239,-0.5536,-0.5786,-0.6083,-0.6539,-0.7253,-0.7747,-0.8416,-0.9331,-0.9686,-1.0059,-1.0424,-1.0753,-1.1221,0.0,0.0,-1.4491,-1.5181,-1.7774,-1.9251,-1.9763,-2.1505,-2.1722,-2.0736,-2.0684,0.0,0.0,0.0,0.0,0.0,0.0,0.0,0.0,0.0,0.0,0.0,0.0,0.0,0.0,0.0,0.0,0.0,0.0,0.0,0.0,0.0,0.0,0.0,-1.8947,-1.9847,-2.0637,-2.0622,-2.0656,-2.0473,-1.993,-1.9704,-1.9297,-1.8487,-1.7868,-1.722,-1.6613,-1.5545,-1.4569,-1.3877,-1.3095,-1.228,-1.1535,-1.0963,-1.0383,-0.9795,-0.9294,-0.8791,-0.8123,-0.7804,-0.735,-0.6657,-0.6346,-0.5964,-0.5515,-0.5196,-0.4977,-0.4853,-0.4853,-0.4904,-0.5099,-0.5485,-0.583,-0.6232,-0.6816,-0.7353,-0.7739,-0.8592,-0.9011,-0.9271,-1.0297,-1.078,-1.1092,-1.1817,-1.2383,-1.2779,-1.3551,-1.4295,-1.5135,0.0,0.0,0.0,0.0,0.0,0.0,0.0,0.0,0.0,-0.5184,0.0,0.0,0.0,0.0,-0.6666,-0.6983,-0.7346,-0.767,-0.7957,-0.8361,-0.8924,-0.9635,-0.9944,-1.0261,-1.0597,-1.0897,-1.1247,0.0,0.0,0.0,0.0,-1.7303,-1.8802,-1.959,-2.1527,-2.1755,0.0,0.0,0.0,-2.0506,0.0,0.0,-2.2337,0.0,0.0,0.0,0.0,0.0,0.0,0.0,0.0,0.0,0.0,0.0,0.0,0.0,0.0,0.0,-1.5444,0.0,0.0,0.0,-1.8284,-1.9066,-1.9374,-1.9394,-1.9308,-1.9203,-1.9149,-1.8874,-1.827,-1.792,-1.7487,-1.6727,-1.5794,-1.4919,-1.4187,-1.3338,-1.2552,-1.1834,-1.1272,-1.0627,-0.9974,-0.9648,-0.9246,-0.8505,-0.8213,-0.7781,-0.719,-0.6767,-0.6315,-0.5747,-0.5614,-0.5405,-0.5208,-0.5115,-0.517,-0.5371,-0.5652,-0.5994,-0.6398,-0.6969,-0.7527,-0.7963,-0.855,-0.9038,-0.9299,-1.0209,-1.0685,-1.0999,-1.1812,-1.2364,-1.2761,-1.361,-1.448,-1.5321,0.0,0.0,0.0,0.0,0.0,0.0,0.0,0.0,-0.6345,-0.6615,0.0,0.0,0.0,0.0,0.0,-0.842,-0.8808,-0.9031,-0.8933,-0.9247,-0.9632,-0.9995,-1.0224,-1.0474,-1.0801,-1.1062,-1.1407,0.0,0.0,0.0,0.0,0.0,-1.8541,-1.9694,-2.0801,-2.0916,-2.0353,0.0,-2.1387,-2.0927,0.0,-2.2705,-2.3671,0.0,0.0,0.0,-2.6018,-2.59,0.0,-2.4482,0.0,0.0,0.0,0.0,0.0,0.0,0.0,0.0,0.0,0.0,0.0,0.0,0.0,-1.7837,-1.8092,-1.8112,-1.8183,-1.8645,-1.8328,-1.8081,-1.8349,-1.805,-1.7598,-1.7018,-1.6074,-1.5245,-1.4742,-1.3931,-1.3146,-1.2295,-1.1816,-1.1249,-1.0692,-1.0212,-0.972,-0.9308,-0.8664,-0.8094,-0.7679,-0.7026,-0.6515,-0.5972,-0.5832,-0.563,-0.546,-0.5188,-0.5243,-0.5629,-0.5807,-0.6051,-0.6449,-0.7211,-0.7573,-0.7901,-0.8675,-0.9259,-0.962,-1.0212,-1.0609,-1.0904,-1.1688,-1.2304,-1.282,-1.3869,-1.4841,-1.5627,0.0,0.0,0.0,0.0,0.0,0.0,-0.6414,-0.6837,-0.7221,0.0,0.0,0.0,-0.8262,-0.8863,-0.935,-0.9659,-1.0082,-1.0193,-0.9996,-1.0331,-1.0466,-1.0312,-1.0534,-1.0777,-1.1015,-1.1285,-1.1578,-1.1869,-1.2892,-1.3743,-1.442,-1.5719,-1.7002,0.0,-1.8756,-1.9331,-1.995,-2.1395,0.0,-2.2018,-2.3558,-2.4718,0.0,0.0,0.0,0.0,0.0,-2.9156,-2.8818,0.0,-2.6468,-2.5197,0.0,0.0,0.0,0.0,0.0,0.0,-1.6077,0.0,0.0,0.0,0.0,0.0,-1.6714,-1.7063,-1.744,-1.7144,-1.7766,-1.8262,-1.7789,-1.7899,-1.7789,-1.7122,-1.6378,-1.5521,-1.4757,-1.3955,-1.3212,-1.2552,-1.1866,-1.1258,-1.0801,-1.0269,-0.973,-0.9349,-0.9025,-0.8626,-0.8138,-0.7457,-0.6937,-0.6665,-0.6442,-0.6246,-0.6166,-0.6077,-0.6094,-0.6218,-0.6218,-0.656,-0.7155,-0.7342,-0.7887,-0.8694,-0.8883,-0.9457,-1.0219,-1.0356,-1.0703,-1.1194,-1.178,-1.2309,-1.2883,-1.3922,-1.4879,-1.5757,0.0,0.0,0.0,0.0,0.0,-0.7278,-0.7589,-0.8253,-0.877,0.0,0.0,0.0,-1.0416,-1.0972,-1.1242,-1.1228,-1.1515,-1.1546,-1.1111,-1.1399,-1.1533,-1.1439,-1.1408,-1.1489,-1.168,-1.1673,-1.1798,-1.206,-1.2801,-1.352,-1.4295,-1.5052,-1.6044,0.0,0.0,0.0,0.0,0.0,0.0,0.0,-2.4745,0.0,0.0,-2.9006,-3.0029,0.0,0.0,0.0,-3.1475,-3.018,-2.8455,0.0,0.0,0.0,0.0,0.0,0.0,0.0,0.0,0.0,0.0,0.0,0.0,0.0,-1.614,-1.6228,-1.6415,-1.6498,-1.7032,-1.7396,-1.7276,-1.7645,-1.7793,-1.7059,-1.6728,-1.6152,-1.5096,-1.4395,-1.368,-1.3032,-1.2372,-1.1706,-1.1186,-1.0738,-1.0218,-0.9846,-0.9438,-0.8966,-0.8264,-0.7809,-0.7464,-0.7148,-0.7024,-0.687,-0.6695,-0.6669,-0.6697,-0.6697,-0.6782,-0.7094,-0.7545,-0.7814,-0.8355,-0.907,-0.9167,-0.9736,-1.049,-1.0601,-1.0923,-1.1389,-1.2078,-1.2565,-1.3083,-1.4109,-1.5065,-1.6042,0.0,0.0,-0.6819,-0.7372,-0.8003,-0.8536,-0.8916,-0.9932,-1.0694,0.0,-1.1721,-1.2573,-1.3304,-1.3591,-1.356,-1.3011,-1.3163,-1.3019,-1.2328,-1.2526,-1.2759,-1.2953,-1.2587,-1.2487,-1.2677,-1.2261,-1.2188,-1.2452,-1.271,-1.3363,-1.4397,-1.4722,-1.5475,-1.6555,0.0,0.0,0.0,0.0,0.0,-2.3025,-2.5618,-2.7729,0.0,0.0,-3.1835,-3.3425,-3.3594,-3.3686,-3.3571,-3.2495,-2.9947,0.0,0.0,0.0,0.0,0.0,-1.8683,0.0,0.0,0.0,0.0,0.0,-1.6225,0.0,-1.606,-1.5571,-1.5417,-1.6301,-1.6206,-1.6118,-1.6692,-1.7272,-1.7454,-1.6883,-1.6999,-1.6766,-1.5615,-1.5022,-1.4371,-1.3641,-1.2998,-1.2424,-1.1832,-1.1316,-1.0947,-1.0582,-0.9938,-0.9216,-0.8255,-0.8104,-0.7886,-0.7501,-0.7556,-0.7477,-0.735,-0.7225,-0.721,-0.7228,-0.7489,-0.7757,-0.794,-0.8464,-0.8903,-0.9328,-0.9516,-0.999,-1.0546,-1.0839,-1.1245,-1.175,-1.2554,-1.2953,-1.3363,-1.4362,-1.5413,-1.65,0.0,0.0,-0.833,-0.8638,-0.9509,-1.0321,-1.0645,-1.1459,-1.2067,-1.2268,-1.3353,-1.4402,-1.5211,-1.5271,-1.5309,-1.54,-1.5283,-1.4814,-1.3988,-1.4218,-1.4068,-1.3342,-1.3469,-1.365,-1.387,-1.332,-1.3161,-1.3425,-1.3179,-1.3275,-1.3698,-1.4038,-1.4801,-1.5919,0.0,0.0,0.0,0.0,0.0,-2.4199,-2.6707,0.0,-3.0559,-3.2081,-3.3782,-3.5451,-3.6161,-3.6426,-3.6074,-3.375,-3.1545,-2.9359,0.0,0.0,0.0,-2.1965,0.0,0.0,0.0,0.0,0.0,0.0,0.0,0.0,-1.5728,-1.5503,-1.5346,-1.5141,-1.5438,-1.5847,-1.6207,-1.6421,-1.6576,-1.6565,-1.6428,-1.6273,-1.5972,-1.534,-1.4647,-1.3977,-1.3241,-1.2626,-1.2075,-1.1444,-1.0956,-1.0752,-1.0102,-0.9575,-0.9084,-0.8746,-0.8449,-0.8132,-0.7973,-0.791,-0.8029,-0.7979,-0.806,-0.8285,-0.8372,-0.8464,-0.8736,-0.8995,-0.945,-0.9837,-1.01,-1.0396,-1.096,-1.1367,-1.1815,-1.231,-1.2689,-1.334,-1.4112,-1.4551,-1.5422,-1.64,0.0,-0.8645,-0.9457,-0.9855,-1.0705,-1.146,-1.1831,-1.2497,-1.3033,-1.3277,-1.4339,-1.5496,-1.6739,-1.6908,-1.714,-1.7567,-1.7208,-1.6725,-1.6185,-1.6178,-1.5901,-1.5233,-1.516,-1.5072,-1.4954,-1.4415,-1.4084,-1.3949,-1.3891,-1.3803,-1.3724,-1.4034,-1.4788,-1.5908,0.0,0.0,0.0,0.0,-2.3972,-2.574,-2.7408,0.0,-3.1578,-3.3268,-3.5002,-3.6653,-3.75,-3.7494,-3.6813,-3.4967,-3.2838,0.0,-2.8739,-2.6835,-2.4992,0.0,-2.1899,-2.0639,0.0,0.0,0.0,-1.7733,0.0,0.0,0.0,-1.5379,-1.5152,-1.4998,-1.5092,-1.5338,-1.5552,-1.5807,-1.6025,-1.6197,-1.6109,-1.6057,-1.6074,-1.5524,-1.4987,-1.4541,-1.3908,-1.3243,-1.2714,-1.1955,-1.1341,-1.0867,-1.0377,-0.9996,-0.9733,-0.9447,-0.9095,-0.8777,-0.8802,-0.8715,-0.8591,-0.8787,-0.8926,-0.9108,-0.9205,-0.9423,-0.9602,-0.9777,-1.0038,-1.0386,-1.0554,-1.0876,-1.117,-1.1645,-1.2198,-1.2825,-1.3202,-1.3706,-1.4394,-1.4968,-1.582,-1.6579,-0.8955,0.0,-1.0396,-1.0993,-1.1783,-1.2479,-1.2883,-1.3501,-1.4012,-1.4227,-1.5325,-1.6739,-1.8415,-1.8719,-1.9001,-1.951,-1.899,-1.8609,-1.8564,-1.8209,-1.7872,-1.7592,-1.7171,-1.6733,-1.6257,-1.5772,-1.5267,-1.4699,-1.4689,-1.4499,-1.4168,-1.4507,-1.5169,-1.6092,0.0,0.0,0.0,0.0,0.0,-2.7015,0.0,-3.0178,-3.2539,-3.4217,-3.5917,-3.753,-3.8335,-3.8,-3.7032,-3.6023,-3.3967,-3.1607,-3.0416,-2.8331,0.0,0.0,0.0,0.0,0.0,0.0,0.0,0.0,0.0,-1.6483,0.0,0.0,0.0,-1.5103,-1.4931,-1.4809,-1.5014,-1.5312,-1.5555,-1.5697,-1.5683,-1.5719,-1.5793,-1.5331,-1.4977,-1.4881,-1.4323,-1.3694,-1.3179,-1.2452,-1.1717,-1.0905,-1.0691,-1.0496,-1.0271,-1.0047,-0.9799,-0.9476,-0.9617,-0.9521,-0.9257,-0.9519,-0.9731,-0.9812,-1.0066,-1.0255,-1.0463,-1.0554,-1.0727,-1.0901,-1.1073,-1.1246,-1.1429,-1.1981,-1.2545,-1.3175,-1.3701,-1.4133,-1.4512,-1.5425,-1.6163,-1.6767,-1.0253,-1.0837,0.0,-1.1752,-1.2835,-1.3788,-1.4144,-1.4953,-1.5548,-1.5572,-1.7165,-1.8934,-2.0783,0.0,0.0,0.0,0.0,-2.0378,-2.0888,-2.0259,-1.9818,-1.9669,-1.9212,-1.8729,-1.8186,-1.7656,-1.7096,-1.6496,-1.5454,-1.5015,-1.516,-1.5478,-1.5822,-1.626,-1.8041,0.0,0.0,0.0,-2.5301,0.0,-2.9569,-3.1601,0.0,-3.5105,-3.6804,-3.8356,-3.9108,-3.8728,-3.772,0.0,-3.499,-3.3014,0.0,-2.9646,-2.8254,-2.6325,0.0,0.0,0.0,0.0,0.0,0.0,-1.7834,0.0,-1.6189,0.0,-1.5254,-1.491,0.0,-1.4596,-1.4892,0.0,0.0,-1.5004,-1.4762,-1.4617,-1.4685,-1.4283,-1.4079,-1.4429,-1.3976,-1.3423,-1.2798,-1.2172,-1.1578,-1.1115,-1.1077,-1.1028,-1.0698,-1.0586,-1.037,-1.0042,-1.006,-1.0133,-1.0027,-1.0079,-1.0316,-1.0726,-1.0753,-1.0953,-1.1149,-1.1413,-1.1585,-1.1585,-1.1774,-1.1866,-1.1952,-1.2398,-1.2811,-1.3175,-1.3701,-1.4291,-1.5,-1.5543,-1.6137,-1.6767,-1.0977,-1.1545,0.0,-1.2425,-1.3654,-1.4571,-1.4475,-1.5439,-1.6992,-1.9205,-2.0186,-2.1657,0.0,0.0,0.0,0.0,0.0,-2.4402,0.0,0.0,-2.1287,-2.0591,-2.0592,-2.0395,-2.0034,-1.8671,-1.7938,-1.7846,-1.6976,-1.6468,-1.6287,-1.6562,-1.7045,-1.778,-1.9174,0.0,-2.2041,0.0,-2.6158,0.0,0.0,-3.2277,0.0,-3.5766,-3.7895,-3.9762,-4.0004,-3.9105,-3.7728,0.0,-3.5362,0.0,0.0,0.0,0.0,-2.7097,0.0,0.0,0.0,0.0,0.0,0.0,0.0,0.0,-1.6795,0.0,-1.5433,-1.5086,0.0,0.0,0.0,0.0,0.0,0.0,-1.4659,-1.4513,-1.4731,-1.4358,-1.409,-1.4055,-1.3809,-1.3417,-1.2786,-1.2245,-1.1773,-1.1329,-1.1343,-1.129,-1.1012,-1.1048,-1.1019,-1.0779,-1.0749,-1.0781,-1.0737,-1.0744,-1.0847,-1.1061,-1.1039,-1.131,-1.1719,-1.1803,-1.2053,-1.2272,-1.254,-1.2631,-1.2631,-1.2966,-1.3205,-1.3528,-1.4015,-1.4637,-1.5312,-1.5803,-1.6341,-1.6892,-1.1869,0.0,0.0,0.0,-1.4445,-1.5361,-1.5413,-1.6279,-1.8226,-2.1907,-2.3013,0.0,-2.6769,-2.7144,0.0,0.0,-2.8698,-2.7736,0.0,0.0,-2.4083,-2.2474,-2.2341,-2.2065,-2.154,-2.0223,-1.9234,-1.8605,-1.8302,-1.7979,-1.7681,-1.7682,-1.8232,-1.9257,0.0,-2.1876,-2.384,0.0,-2.7187,-2.9196,-3.1516,-3.3351,-3.4866,-3.6703,-3.8761,-4.0655,-4.0519,-3.9265,-3.7603,-3.7392,-3.5569,-3.3152,-3.1898,-3.0837,-2.9683,0.0,0.0,0.0,-2.412,0.0,0.0,0.0,0.0,0.0,0.0,0.0,0.0,-1.5914,-1.563,0.0,0.0,0.0,-1.4653,-1.4789,0.0,-1.4397,-1.4368,-1.4038,-1.3796,-1.3793,-1.3575,-1.3116,-1.251,-1.2281,-1.1927,-1.1436,-1.1565,-1.1546,-1.1261,-1.146,-1.1528,-1.1435,-1.1462,-1.1493,-1.1335,-1.1386,-1.1455,-1.1456,-1.1485,-1.1745,-1.2236,-1.2236,-1.2457,-1.2875,-1.3137,-1.3137,-1.3228,-1.3483,-1.3652,-1.3841,-1.4394,-1.4886,-1.554,-1.6064,-1.6515,-1.7073,-1.3191,-1.3204,0.0,0.0,0.0,-1.6383,-1.7584,-1.7855,0.0,0.0,0.0,0.0,0.0,0.0,0.0,0.0,0.0,-2.9273,-2.9685,0.0,-2.8996,0.0,0.0,-2.3833,0.0,-2.2848,-2.1532,-1.8604,-1.9046,-1.9324,-1.9406,-1.8898,-1.9226,-2.028,-2.1235,-2.3135,-2.5675,-2.6574,-2.8417,-3.0864,-3.2649,-3.5286,-3.8141,0.0,-3.9173,-4.0593,-4.046,-3.9163,-3.747,-3.7197,-3.5754,-3.3716,-3.1829,-3.1003,-3.0363,0.0,0.0,0.0,-2.4798,-2.367,-2.2415,-2.0717,-2.0058,-1.956,-1.8594,-1.8161,-1.7928,-1.7575,-1.6956,-1.6356,-1.602,-1.5375,-1.4794,-1.456,-1.4332,0.0,0.0,-1.2756,-1.2877,-1.3713,-1.307,-1.2337,-1.187,-1.2063,-1.2004,-1.1504,-1.1842,-1.1955,-1.1709,-1.1806,-1.1909,-1.1894,-1.2207,-1.222,-1.2003,-1.1942,-1.2016,-1.2075,-1.2081,-1.2371,-1.2985,-1.2985,-1.3137,-1.3398,-1.3392,-1.3392,-1.3398,-1.3913,-1.4088,-1.4173,-1.4496,-1.5043,-1.5669,-1.6278,-1.6707,-1.7073,0.0,0.0,0.0,0.0,0.0,0.0,0.0,-2.0867,0.0,0.0,-2.6772,0.0,0.0,-3.1306,-3.2163,0.0,0.0,-3.3179,-3.3617,-3.2215,0.0,0.0,0.0,-2.8983,0.0,-2.6688,-2.5201,-2.2044,-2.1297,-2.0541,-1.9788,-2.0429,-2.0894,-2.123,-2.2743,-2.4261,0.0,0.0,0.0,0.0,0.0,-3.5454,-3.7489,-3.7962,-3.9113,-4.0383,-3.9602,-3.8498,-3.7249,-3.6441,-3.52,-3.3644,-3.1751,-3.0912,-3.0284,-2.8306,-2.6964,-2.6006,-2.538,-2.412,-2.2758,-2.1969,-2.0844,-1.9843,-1.9358,-1.8734,-1.816,-1.7908,-1.7599,-1.7156,-1.6474,-1.6068,-1.5604,-1.4882,-1.4637,-1.4241,0.0,-1.2603,-1.2146,-1.2262,-1.2381,-1.2408,-1.2276,-1.2049,-1.1774,-1.1408,-1.1674,-1.166,-1.1292,-1.1914,-1.2149,-1.1909,-1.2461,-1.2694,-1.2442,-1.257,-1.2506,-1.2458,-1.2309,-1.2612,-1.3333,-1.3333,-1.3682,-1.423,-1.423,-1.423,-1.4237,-1.4405,-1.4489,-1.4489,-1.4831,-1.5191,-1.5619,-1.6034,-1.6574,-1.7246,-1.5397,0.0,0.0,0.0,0.0,0.0,0.0,0.0,0.0,0.0,-2.8895,0.0,-3.2739,0.0,-3.5659,0.0,-3.6718,-3.6709,-3.5895,-3.4473,0.0,-3.4235,-3.3491,0.0,0.0,0.0,-2.7789,-2.5779,-2.3804,-2.2476,-2.1798,-2.1828,-2.2092,-2.2584,-2.3786,-2.5184,-2.6695,-2.7811,-2.9623,0.0,0.0,-3.5766,0.0,-3.7475,-3.8411,-3.9402,-3.8651,-3.7695,-3.6688,-3.5937,-3.486,-3.354,-3.1672,-3.0856,-3.0225,-2.8306,-2.7173,-2.6437,-2.5851,-2.4804,-2.3731,-2.3145,-2.194,-2.0782,-2.0591,-1.9829,-1.9122,-1.8898,-1.8568,-1.8117,-1.7409,-1.6772,-1.6143,-1.5487,-1.5043,-1.4359,0.0,-1.2492,-1.1884,-1.1374,-1.1666,-1.1957,-1.2045,-1.1786,-1.154,-1.1371,-1.1677,-1.1724,-1.1469,-1.2155,-1.2447,-1.2328,-1.2907,-1.3096,-1.3001,-1.3064,-1.3078,-1.29,-1.2826,-1.3147,-1.3817,-1.3817,-1.4153,-1.4824,-1.4824,-1.4824,-1.4734,-1.4824,-1.4824,-1.4908,-1.5166,-1.5456,-1.5696,-1.6133,-1.6847,-1.7713,-1.647,0.0,0.0,0.0,-1.9363,0.0,0.0,0.0,-2.5333,0.0,-3.1397,-3.3603,-3.4295,-3.734,-3.9573,-4.007,-4.0631,-3.9692,-3.68,-3.7021,0.0,0.0,-3.5083,-3.3785,-3.4072,0.0,0.0,-2.9407,-2.6425,-2.5045,-2.5154,-2.3135,-2.2894,-2.4197,-2.4384,0.0,-2.83,-2.8295,-3.0274,-3.3529,-3.5158,-3.6203,-3.6833,-3.6755,-3.7166,-3.7753,-3.7602,-3.6822,-3.587,-3.5624,-3.4766,-3.3486,-3.1592,-3.0846,-3.0243,-2.8364,-2.763,-2.7186,-2.6213,-2.5675,-2.5163,-2.4199,-2.3194,-2.2409,-2.2228,-2.1483,-2.0775,-2.0525,-1.9862,-1.9219,-1.882,-1.7558,-1.6524,-1.6335,-1.5441,-1.424,-1.2771,-1.2466,-1.2081,-1.1195,-1.1035,-1.1074,-1.1273,-1.1295,-1.1329,-1.1448,-1.1836,-1.21,-1.2092,-1.251,-1.2907,-1.3072,-1.3393,-1.3501,-1.3538,-1.3561,-1.3525,-1.3564,-1.3564,-1.391,-1.445,-1.4457,-1.4729,-1.5173,-1.5173,-1.4999,-1.4817,-1.4999,-1.5173,-1.5173,-1.5575,-1.5748,-1.5838,-1.659,-1.7522,-1.8481,-1.8138,-1.9377,-2.0504,0.0,-2.1444,-2.1702,0.0,0.0,0.0,0.0,-3.3398,-3.491,-3.7653,-3.9105,-4.0121,-4.0631,-4.1152,0.0,0.0,0.0,0.0,-3.8496,-3.7747,-3.747,-3.7729,-3.4721,-3.2,-2.9607,-2.8923,-2.7409,-2.5195,-2.4838,-2.4432,-2.4016,-2.4946,-2.6456,-2.8301,-2.8301,-3.0248,-3.3466,-3.5075,-3.5844,-3.5996,-3.5881,-3.5897,-3.6032,-3.6478,-3.6349,-3.584,-3.4978,-3.4383,-3.36,-3.1725,-3.0966,-3.037,-2.8514,-2.7736,-2.7382,-2.6943,-2.6177,-2.5444,-2.498,-2.4199,-2.344,-2.3221,-2.2437,-2.1706,-2.1568,-2.078,-1.9906,-1.9131,-1.816,-1.723,-1.6503,-1.51,-1.3978,-1.3598,-1.2924,-1.2385,-1.2083,-1.1482,-1.1074,-1.1081,-1.1205,-1.1175,-1.0949,-1.1406,-1.1737,-1.1795,-1.2271,-1.2788,-1.3161,-1.3602,-1.3945,-1.4305,-1.4323,-1.4361,-1.4553,-1.4418,-1.4712,-1.5374,-1.5235,-1.5438,-1.6072,-1.5914,-1.5839,-1.5756,-1.5839,-1.5839,-1.5839,-1.5922,-1.6232,-1.6661,-1.7108,-1.7792,-1.8574,-1.9996,-2.1149,0.0,-2.2681,0.0,0.0,-2.2532,-2.3299,0.0,-3.3535,-3.4626,0.0,-3.9598,-4.0451,-4.0977,-4.1453,-4.1917,0.0,-4.2552,0.0,0.0,-4.1077,-3.9785,-3.9166,-3.9309,-3.6295,0.0,-3.1977,-3.0677,-2.8393,-2.525,-2.5495,-2.5265,-2.4663,-2.5378,-2.6678,-2.8395,-2.9858,-3.1562,-3.3433,-3.5047,-3.5689,0.0,-3.5577,-3.5463,-3.5392,-3.5709,-3.5666,-3.5371,-3.4645,-3.3998,-3.3209,-3.1667,-3.0785,-3.0024,-2.8538,-2.7882,-2.7569,-2.7355,-2.6776,-2.6179,-2.5933,-2.5146,-2.4414,-2.4228,-2.3418,-2.2565,-2.2091,-2.1471,-2.0761,-1.9808,-1.89,-1.79,-1.6576,-1.5338,-1.4368,0.0,0.0,0.0,-1.2593,-1.1803,-1.1209,-1.1074,-1.0929,-1.087,-1.1001,-1.1345,-1.1722,-1.2138,-1.2662,-1.3192,-1.3683,-1.3996,-1.4439,-1.5006,-1.4921,-1.5027,-1.5409,-1.5204,-1.5438,-1.6065,-1.5996,-1.6228,-1.6722,-1.6574,-1.6492,-1.6327,-1.6245,-1.6245,-1.6245,-1.6245,-1.6612,-1.7209,-1.766,-1.8144,-1.8645,-2.1994,0.0,0.0,0.0,0.0,0.0,0.0,-2.5559,0.0,-3.425,0.0,-3.7592,-4.0764,-4.1471,-4.1866,-4.2328,-4.2747,-4.2995,-4.3032,-4.3391,-4.3749,-4.4067,-4.163,-4.0102,-3.9717,-3.7007,-3.5382,0.0,-3.1768,-2.8555,-2.5332,-2.5517,-2.5607,-2.5629,0.0,0.0,0.0,-3.1861,-3.3297,-3.3433,-3.5047,-3.5689,-3.5688,-3.5639,-3.5509,-3.5379,-3.5258,-3.5038,-3.4769,-3.4386,-3.3655,-3.2631,-3.1462,-3.0464,-2.9539,-2.8523,-2.8053,-2.7789,-2.7569,-2.7324,-2.7103,-2.6825,-2.6068,-2.5363,-2.5261,-2.4459,-2.3464,-2.2581,-2.2155,-2.1629,-2.0655,-1.966,-1.8416,-1.677,-1.5985,-1.5267,0.0,0.0,0.0,0.0,-1.2266,0.0,-1.1332,-1.0687,-1.0564,-1.1209,-1.143,-1.1812,-1.2557,-1.3128,-1.3695,-1.434,-1.4473,-1.4906,-1.5706,-1.5395,-1.5601,-1.6201,-1.6026,-1.6237,-1.675,-1.675,-1.6924,-1.7294,-1.7221,-1.7057,-1.6812,-1.664,-1.6558,-1.6558,-1.6558,-1.6996,-1.7652,-1.8026,-1.8392,-1.8759,-2.3946,0.0,0.0,0.0,0.0,-2.6848,-3.3102,-3.3826,-3.4229,-3.5848,-3.8668,-4.0929,-4.1948,-4.2121,-4.2351,-4.2768,-4.3142,0.0,0.0,0.0,0.0,-4.4411,-4.412,-4.2777,-4.0233,-3.9643,-3.7964,0.0,-3.1947,-2.8681,-2.5468,-2.5564,-2.563,-2.5676,0.0,0.0,-2.8441,-3.1851,-3.3297,-3.3433,-3.5047,-3.5708,-3.5689,-3.562,-3.5515,-3.5383,-3.5254,-3.5054,-3.4756,-3.3936,-3.3387,-3.2753,-3.1066,-3.0277,-2.973,-2.8666,-2.8219,-2.7996,-2.773,-2.7509,-2.731,-2.7085,-2.6723,-2.6371,-2.613,-2.539,-2.4603,-2.4178,-2.2964,-2.1859,-2.1436,-1.9932,-1.8482,-1.7652,-1.7249,-1.676,0.0,0.0,0.0,0.0,0.0,-1.3034,-1.2318,-1.1309,-1.0652,-1.0492,-1.1166,-1.1722,-1.2024,-1.2729,-1.357,-1.4616,-1.4748,-1.531,-1.6355,-1.621,-1.6308,-1.6682,-1.6674,-1.7036,-1.7578,-1.7437,-1.763,-1.8193,-1.7951,-1.7708,-1.7538,-1.7456,-1.7375,-1.7229,-1.7229,-1.7343,-1.745,-1.782,-1.8275,-1.8854,-2.5923,0.0,0.0,0.0,0.0,0.0,-3.6344,-3.835,-3.9394,-3.9423,-4.1103,-4.2374,-4.2591,-4.2824,-4.3069,-4.3442,-4.3795,-4.414,-4.4458,-4.4613,-4.477,-4.4895,-4.5057,-4.363,-4.0473,-4.0396,-3.8777,-3.5463,-3.2124,-2.881,-2.555,-2.5618,-2.5664,-2.5728,0.0,-2.7364,0.0,-3.1971,-3.3291,-3.3433,-3.5094,-3.5737,-3.5699,-3.5623,-3.5509,-3.5378,-3.5289,-3.484,-3.4244,-3.3693,-3.2777,-3.1688,-3.0709,-2.9987,-2.9351,-2.8696,-2.838,-2.8191,-2.795,-2.7748,-2.7509,-2.7293,-2.7103,-2.6825,-2.6556,-2.6064,-2.5471,-2.4814,-2.3897,-2.2904,-2.1717,-2.0112,-1.8882,-1.8432,-1.7969,-1.7495,-1.704,0.0,-1.6048,0.0,0.0,0.0,-1.2733,-1.1872,-1.116,-1.0706,-1.1192,-1.1772,-1.2283,-1.3069,-1.3942,-1.4821,-1.5211,-1.5828,-1.6722,-1.6921,-1.7169,-1.7298,-1.7523,-1.7887,-1.8239,-1.8175,-1.8388,-1.8834,-1.8594,-1.8434,-1.8353,-1.8184,-1.7861,-1.7546,-1.7546,-1.7546,-1.7588,-1.7971,-1.8515,-1.9083,0.0,-2.6992,0.0,0.0,-3.2843,-3.7185,-3.8635,-4.1307,-4.2976,-4.2631,-4.2882,-4.3124,-4.3124,-4.3495,-4.3828,-4.417,-4.4477,-4.4745,-4.4967,-4.5038,-4.5151,-4.5339,-4.54,-4.3902,-4.0626,-4.0569,-3.8981,0.0,-3.229,-2.928,-2.6693,-2.6013,-2.5704,-2.5774,-2.7391,-2.861,-2.9613,-3.2083,-3.3304,-3.3706,-3.518,-3.5747,-3.5699,-3.5635,-3.5521,-3.5359,-3.5109,-3.4394,-3.3483,-3.311,-3.1973,-3.0648,-3.0309,-2.965,-2.8952,-2.8712,-2.8536,-2.8398,-2.8182,-2.7968,-2.7719,-2.7509,-2.7293,-2.7053,-2.6842,-2.6521,-2.6094,-2.5269,-2.472,-2.3823,-2.205,-2.0624,-1.9685,-1.9482,-1.8852,-1.8301,-1.7939,-1.7411,-1.6838,0.0,0.0,0.0,-1.3248,-1.2548,-1.1908,-1.1295,-1.1497,-1.1908,-1.2494,-1.354,-1.4423,-1.5014,-1.5725,-1.6406,-1.6915,-1.7609,-1.7937,-1.7863,-1.8344,-1.8597,-1.8768,-1.8864,-1.9089,-1.9409,-1.9353,-1.924,-1.9082,-1.8674,-1.8273,-1.7942,-1.7861,-1.7861,-1.7904,-1.8127,-1.8641,-1.9187,0.0,0.0,0.0,-3.5235,-3.7094,-3.9134,-4.2443,-4.348,-4.3763,-4.3444,-4.3664,-4.3892,-4.3892,-4.4188,-4.4524,-4.4796,-4.508,-4.5254,-4.5275,-4.5438,-4.555,-4.5568,-4.568,-4.4186,-4.0836,-4.0778,-3.9143,0.0,-3.2373,-3.0562,-3.0249,-2.7156,-2.5696,-2.584,-2.9052,-3.0534,-3.072,-3.201,-3.3316,-3.4549,-3.5377,-3.5708,-3.5699,-3.5631,-3.5515,-3.5282,-3.4419,-3.3513,-3.2583,-3.165,-3.1092,-3.0636,-2.9787,-2.932,-2.9044,-2.8834,-2.8687,-2.851,-2.8264,-2.8099,-2.794,-2.773,-2.743,-2.7166,-2.7007,-2.6674,-2.6332,-2.6104,-2.5131,-2.3999,-2.2964,-2.1905,-2.1213,-2.1162,-2.0551,-1.9786,-1.8992,-1.8806,-1.8223,-1.6739,0.0,0.0,-1.4467,-1.3577,-1.2801,-1.213,-1.206,-1.2017,-1.1985,-1.3663,-1.4756,-1.5091,-1.6279,-1.6989,-1.707,-1.822,-1.8588,-1.8142,-1.8889,-1.9178,-1.9053,-1.9533,-1.9752,-1.9839,-2.0091,-1.9951,-1.9478,-1.9082,-1.8922,-1.8834,-1.8523,-1.8353,-1.8282,-1.8074,-1.8413,-1.8958,-3.3962,-3.4871,-3.5721,-3.768,-4.0035,-4.2234,-4.3862,-4.4345,-4.4549,-4.4565,-4.4576,-4.4602,-4.4758,-4.49,-4.5084,-4.5281,-4.5494,-4.5616,-4.5616,-4.568,-4.5757,-4.5841,-4.5886,-4.4372,-4.1051,-4.0974,-3.9299,-3.5866,-3.453,-3.2818,-3.0762,-2.94,-2.8763,-2.882,-3.018,-3.1358,-3.2361,-3.3173,-3.3907,-3.461,-3.5435,-3.5699,-3.5639,-3.5612,-3.5515,-3.5292,-3.4342,-3.3398,-3.245,-3.1442,-3.0676,-3.0058,-2.9546,-2.9328,-2.9175,-2.8994,-2.881,-2.8637,-2.8432,-2.8246,-2.8053,-2.7818,-2.7582,-2.7386,-2.712,-2.6892,-2.6623,-2.6312,-2.5291,-2.4273,-2.3834,-2.3016,-2.2382,-2.2315,-2.1729,-2.1092,-2.064,-1.9831,-1.8854,-1.7637,0.0,-1.6263,-1.4887,-1.434,-1.3753,-1.3034,-1.2664,-1.2367,-1.2139,-1.4033,-1.5107,-1.5099,-1.6642,-1.741,-1.719,-1.8836,-1.9346,-1.8747,-1.9648,-1.9961,-1.9748,-1.9934,-2.0135,-2.0252,-2.0535,-2.0411,-2.0029,-1.9872,-1.9548,-1.9152,-1.8984,-1.8754,-1.8531,-1.8451,-1.8687,-1.9147,-3.8474,-3.9636,-4.002,-4.0351,-4.2552,-4.4383,-4.4777,-4.5023,-4.5243,-4.5475,-4.5381,-4.5323,-4.5438,-4.5475,-4.5545,-4.5715,-4.5854,-4.5929,-4.5929,-4.5929,-4.5966,-4.6083,-4.6091,-4.4518,-4.1173,-4.1115,-3.9915,-3.7457,-3.6484,-3.4738,-3.2302,-3.1285,-3.08,-3.0804,-3.0798,-3.2005,-3.4068,-3.4477,-3.4734,-3.4936,-3.5514,-3.5679,-3.5596,-3.5577,-3.5335,-3.4885,-3.3949,-3.3001,-3.2036,-3.1082,-3.0279,-2.9682,-2.9492,-2.937,-2.9262,-2.9085,-2.8881,-2.8712,-2.8543,-2.838,-2.8164,-2.7922,-2.7719,-2.7526,-2.7261,-2.7023,-2.6775,-2.6347,-2.5563,-2.4879,-2.4749,-2.404,-2.3487,-2.3403,-2.2633,-2.1991,-2.1837,-2.0761,-1.9641,-1.8749,-1.7915,-1.6965,-1.5774,-1.5101,-1.4492,-1.3938,-1.3523,-1.3109,-1.274,-1.4538,-1.5485,-1.5272,-1.7055,-1.7834,-1.7521,-1.9395,-2.0041,-1.9406,-2.0341,-2.0685,-2.0285,-2.03,-2.0383,-2.0581,-2.0727,-2.0566,-2.0272,-2.0033,-1.9793,-1.9431,-1.9206,-1.9052,-1.8851,-1.8772,-1.886,-1.9235,-4.2732,-4.3693,-4.4042,-4.4355,-4.4674,-4.5061,-4.5532,-4.5696,-4.5854,-4.5975,-4.6102,-4.6084,-4.5808,-4.5898,-4.5997,-4.5997,-4.613,-4.6196,-4.6196,-4.6196,-4.6228,-4.6296,-4.63,-4.468,-4.1186,-4.1168,-4.1172,-4.1133,-3.7695,-3.5974,-3.5862,-3.2404,-3.0804,-3.0804,-3.0799,-3.2655,-3.5771,-3.5708,-3.5717,-3.5771,-3.5649,-3.5607,-3.5596,-3.5541,-3.4927,-3.3993,-3.3058,-3.206,-3.1078,-3.0213,-2.9828,-2.9664,-2.955,-2.9411,-2.9262,-2.9152,-2.8952,-2.8761,-2.8543,-2.8406,-2.8246,-2.8071,-2.7795,-2.7557,-2.7434,-2.7137,-2.6759,-2.631,-2.6063,-2.5921,-2.5721,-2.5025,-2.4482,-2.4482,-2.3317,-2.2361,-2.2311,-2.1601,-2.0783,-1.9954,-1.9059,-1.8217,-1.753,-1.5976,-1.4966,-1.4898,-1.4698,-1.4325,-1.3708,-1.5141,-1.5905,-1.5694,-1.7523,-1.8367,-1.8072,-2.0003,-2.0689,-2.0123,-2.0962,-2.1135,-2.0593,-2.0553,-2.0562,-2.0686,-2.0523,-2.0298,-2.0093,-1.9423,-1.9457,-1.9847,-1.9021,-1.8962,-1.9222,-1.8851,-1.8851,-1.9119,-4.4205,-4.4681,-4.4953,-4.5218,-4.54,-4.5591,-4.5835,-4.5986,-4.6091,-4.6189,-4.6235,-4.6234,-4.6158,-4.6191,-4.6192,-4.6202,-4.6234,-4.6278,-4.6278,-4.6278,-4.628,-4.6306,-4.3944,-4.2095,-4.0998,-4.1037,-4.1085,-4.1124,-3.7632,-3.5931,-3.5919,-3.4803,-3.4247,-3.4217,-3.4217,-3.4804,-3.5791,-3.5728,-3.5688,-3.5649,-3.5615,-3.5565,-3.5464,-3.4793,-3.4323,-3.3827,-3.2302,-3.1521,-3.1061,-3.0092,-2.9738,-2.9664,-2.9434,-2.933,-2.9262,-2.9152,-2.8952,-2.8761,-2.8543,-2.8432,-2.83,-2.8053,-2.7882,-2.7689,-2.7465,-2.707,-2.6708,-2.6572,-2.6365,-2.6189,-2.6101,-2.5848,-2.5664,-2.5664,-2.4428,-2.3457,-2.3391,-2.2264,-2.1142,-2.0351,-1.9821,-1.9242,-1.853,-1.7793,-1.731,-1.7104,-1.697,-1.6293,-1.4784,-1.5781,-1.6725,-1.7386,-1.8449,-1.9047,-1.9274,-2.0345,-2.0828,-2.0701,-2.1164,-2.1249,-2.0978,-2.0809,-2.0712,-2.0748,-2.0639,-2.0492,-2.0288,-1.9919,-1.9637,-1.9399,-1.9178,-1.9146,-1.9294,-1.9149,-1.9316,-1.9711,-4.5201,-4.5419,-4.5629,-4.578,-4.5922,-4.6017,-4.6105,-4.6182,-4.6256,-4.6286,-4.6285,-4.623,-4.6181,-4.6183,-4.6202,-4.6254,-4.6254,-4.6254,-4.6254,-4.6254,-4.6254,-4.6254,-4.2782,-4.0826,-4.0742,-4.083,-4.0904,-4.0943,-3.8777,-3.7067,-3.5811,-3.5811,-3.5799,-3.5766,-3.5766,-3.5766,-3.5757,-3.5662,-3.5596,-3.5558,-3.5547,-3.5482,-3.5321,-3.4351,-3.3757,-3.3239,-3.1735,-3.0951,-3.0541,-2.987,-2.9626,-2.9512,-2.9334,-2.9246,-2.9175,-2.9085,-2.8929,-2.8737,-2.8562,-2.8406,-2.8291,-2.8053,-2.7864,-2.7701,-2.7386,-2.7103,-2.6842,-2.6792,-2.6657,-2.6521,-2.6469,-2.6435,-2.64,-2.64,-2.513,-2.4146,-2.4098,-2.2725,-2.1543,-2.0977,-2.0475,-2.0003,-1.9466,-1.8985,-1.8588,-1.8315,-1.8207,-1.782,-1.706,-1.7323,-1.7786,-1.8316,-1.9298,-1.9873,-1.9964,-2.0771,-2.1044,-2.0903,-2.1195,-2.128,-2.1285,-2.1025,-2.0831,-2.0654,-2.0533,-2.0318,-2.0052,-1.9844,-1.9596,-1.932,-1.9033,-1.9078,-1.9259,-1.9269,-1.9496,-1.979,-4.5808,-4.5933,-4.6065,-4.619,-4.6264,-4.6297,-4.6289,-4.6295,-4.6273,-4.6273,-4.6228,-4.6111,-4.5997,-4.5986,-4.6017,-4.6146,-4.6181,-4.6162,-4.6162,-4.6162,-4.6162,-4.6162,-4.2945,-4.0938,-4.0523,-4.0635,-4.0681,-4.0681,-4.0759,-3.9154,-3.6029,-3.6041,-3.5905,-3.5693,-3.5693,-3.5693,-3.5651,-3.5528,-3.5479,-3.546,-3.5403,-3.5339,-3.5162,-3.4096,-3.3192,-3.2345,-3.1278,-3.0377,-2.9683,-2.9607,-2.9453,-2.9293,-2.9272,-2.9141,-2.8994,-2.8994,-2.8858,-2.8669,-2.8518,-2.8353,-2.8154,-2.8025,-2.7836,-2.7612,-2.7307,-2.7181,-2.707,-2.6942,-2.6926,-2.6876,-2.6775,-2.6725,-2.6725,-2.6725,-2.5488,-2.4523,-2.443,-2.3042,-2.1969,-2.1857,-2.1097,-2.0541,-2.041,-1.9683,-1.9138,-1.8854,-1.8749,-1.9151,-2.0126,-1.9671,-1.9214,-1.8853,-2.0215,-2.0758,-2.0415,-2.1236,-2.1355,-2.0784,-2.1104,-2.1318,-2.1346,-2.1169,-2.0824,-2.042,-2.0128,-1.989,-1.9605,-1.9264,-1.9266,-1.9441,-1.8874,-1.8848,-1.9204,-1.9249,-1.9288,-1.9449,-4.6177,-4.621,-4.6243,-4.6268,-4.6284,-4.6273,-4.6231,-4.615,-4.6074,-4.6074,-4.5966,-4.5873,-4.5835,-4.5757,-4.5715,-4.5742,-4.5841,-4.5886,-4.5886,-4.5886,-4.5886,-4.5886,-4.5067,-4.3327,-4.0562,-4.0583,-4.0626,-4.0626,-4.0543,-4.0076,-3.9288,-3.9345,-3.8007,-3.5547,-3.5547,-3.5455,-3.532,-3.5289,-3.5258,-3.5258,-3.5089,-3.5037,-3.4883,-3.3278,-3.2524,-3.2128,-3.0452,-2.9719,-2.9531,-2.9409,-2.9304,-2.9222,-2.9093,-2.8975,-2.8858,-2.8905,-2.8785,-2.8587,-2.8458,-2.8318,-2.8154,-2.8025,-2.7824,-2.76,-2.7509,-2.7417,-2.731,-2.7279,-2.7215,-2.7135,-2.7085,-2.7085,-2.7085,-2.7085,-2.5819,-2.4782,-2.4782,-2.3311,-2.2237,-2.218,-2.1766,-2.1474,-2.1371,-2.15,-2.1504,-2.1293,-2.1618,-2.1866,-2.192,-2.2033,-2.1813,-2.1264,-2.1268,-2.1318,-2.1431,-2.1247,-2.1016,-2.0623,-2.0964,-2.0943,-2.0712,-2.019,-2.0095,-2.0347,-1.9835,-1.9715,-1.9977,-1.9605,-1.9337,-1.9173,-1.9028,-1.9099,-1.9173,-1.9211,-1.9521,-2.0046,-4.6248,-4.6256,-4.6234,-4.6157,-4.617,-4.6123,-4.6027,-4.5964,-4.5893,-4.5827,-4.5757,-4.5715,-4.5715,-4.5549,-4.5458,-4.5458,-4.5618,-4.5715,-4.5715,-4.5715,-4.5665,-4.5582,-4.5582,-4.3917,-4.0382,-4.0408,-4.046,-4.0408,-4.0342,-4.0289,-4.0271,-4.0233,-3.9259,-3.7445,-3.5914,-3.5176,-3.5072,-3.5072,-3.5072,-3.5037,-3.4772,-3.467,-3.448,-3.3216,-3.2461,-3.1914,-3.0437,-2.9686,-2.933,-2.9218,-2.913,-2.9044,-2.8929,-2.8828,-2.8712,-2.8687,-2.8587,-2.8432,-2.8345,-2.8182,-2.8014,-2.7911,-2.7736,-2.7587,-2.7587,-2.7557,-2.7496,-2.7496,-2.7448,-2.743,-2.743,-2.74,-2.7386,-2.7386,-2.6061,-2.5017,-2.4959,-2.35,-2.2541,-2.2767,-2.2564,-2.2488,-2.2712,-2.2916,-2.293,-2.2744,-2.2872,-2.3006,-2.313,-2.3141,-2.2884,-2.2302,-2.2134,-2.2093,-2.2077,-2.1375,-2.0987,-2.0945,-2.0857,-2.0741,-2.0644,-2.0181,-2.004,-2.0018,-1.9879,-1.9813,-1.9801,-1.9836,-1.966,-1.9341,-1.9131,-1.9085,-1.9137,-1.9212,-1.9454,-1.978,-4.6154,-4.6138,-4.6093,-4.5964,-4.5953,-4.5886,-4.5786,-4.5771,-4.5712,-4.5568,-4.555,-4.555,-4.555,-4.536,-4.5235,-4.5235,-4.54,-4.5514,-4.555,-4.555,-4.5458,-4.5235,-4.5235,-4.3628,-4.0133,-4.0177,-4.0215,-4.0158,-4.0158,-4.0139,-4.008,-3.9914,-3.9772,-3.947,-3.6289,-3.4851,-3.4851,-3.4851,-3.4831,-3.4772,-3.4476,-3.4269,-3.4074,-3.3525,-3.2709,-3.1712,-3.0715,-2.9835,-2.9112,-2.8975,-2.8905,-2.8834,-2.8761,-2.8637,-2.851,-2.838,-2.83,-2.8219,-2.8182,-2.806,-2.7888,-2.773,-2.7659,-2.7647,-2.7647,-2.7647,-2.7647,-2.7647,-2.7719,-2.776,-2.776,-2.7689,-2.7647,-2.7647,-2.6382,-2.5355,-2.523,-2.3908,-2.3106,-2.3536,-2.3409,-2.3477,-2.3967,-2.3951,-2.3814,-2.3694,-2.3494,-2.3544,-2.4033,-2.3678,-2.3239,-2.276,-2.2878,-2.2768,-2.2324,-2.1471,-2.1086,-2.1173,-2.0711,-2.0573,-2.0628,-2.0402,-2.0038,-1.9632,-2.0079,-2.0025,-1.9577,-1.9975,-1.9987,-1.9671,-1.9341,-1.9208,-1.9127,-1.9178,-1.9233,-1.9334,-4.5861,-4.5848,-4.5827,-4.5684,-4.5651,-4.5671,-4.5637,-4.5637,-4.5568,-4.536,-4.5359,-4.5359,-4.5359,-4.5125,-4.4943,-4.4943,-4.4991,-4.5106,-4.5319,-4.5359,-4.5235,-4.4967,-4.4943,-4.3388,-4.0008,-3.9954,-3.9975,-3.9954,-3.9954,-3.9954,-3.9933,-3.9796,-3.9218,-3.8184,-3.5722,-3.4647,-3.4647,-3.4647,-3.4517,-3.4298,-3.4245,-3.4074,-3.3868,-3.3825,-3.2871,-3.142,-3.0418,-2.9533,-2.8834,-2.8712,-2.8612,-2.8543,-2.8484,-2.8371,-2.8237,-2.8182,-2.8042,-2.7975,-2.8071,-2.8003,-2.7888,-2.773,-2.7766,-2.7859,-2.7859,-2.79,-2.794,-2.794,-2.794,-2.794,-2.794,-2.79,-2.7859,-2.7859,-2.6988,-2.6277,-2.6191,-2.5241,-2.4533,-2.4501,-2.4228,-2.4076,-2.4161,-2.443,-2.4636,-2.4601,-2.4793,-2.4914,-2.4893,-2.4514,-2.4164,-2.3884,-2.3463,-2.2814,-2.1902,-2.1423,-2.1023,-2.0703,-2.031,-2.0051,-1.9957,-1.9441,-1.9449,-1.9749,-1.9738,-1.9901,-2.0262,-2.0328,-2.0194,-1.9977,-1.9857,-1.9539,-1.9285,-1.9291,-1.9369,-1.9493,-4.553,-4.553,-4.5512,-4.5458,-4.5438,-4.5438,-4.5438,-4.5438,-4.5419,-4.5317,-4.517,-4.5061,-4.5061,-4.4967,-4.4895,-4.4895,-4.4789,-4.4738,-4.4846,-4.4991,-4.4967,-4.4712,-4.4667,-4.3095,-3.9688,-3.9665,-3.967,-3.967,-3.967,-3.9665,-3.9642,-3.9521,-3.8865,-3.7673,-3.6035,-3.4965,-3.4386,-3.4386,-3.4221,-3.3972,-3.3972,-3.3815,-3.3605,-3.3652,-3.2921,-3.1754,-3.0767,-2.9908,-2.914,-2.8576,-2.8362,-2.8309,-2.8246,-2.8209,-2.8126,-2.794,-2.79,-2.7888,-2.7882,-2.7836,-2.7795,-2.773,-2.7795,-2.7888,-2.7888,-2.7975,-2.8071,-2.8071,-2.8099,-2.8099,-2.8099,-2.8014,-2.7957,-2.7957,-2.7151,-2.6469,-2.6411,-2.5483,-2.4979,-2.5316,-2.5021,-2.4962,-2.5414,-2.5405,-2.5389,-2.5389,-2.533,-2.524,-2.5107,-2.4751,-2.4426,-2.412,-2.3421,-2.2768,-2.2044,-2.1616,-2.1166,-2.0709,-2.0472,-2.0118,-1.9798,-1.954,-1.9385,-1.942,-1.9897,-2.0017,-2.0007,-2.0597,-2.0582,-2.0259,-2.0053,-1.9857,-1.9605,-1.9351,-1.9343,-1.9468,-4.5192,-4.5192,-4.5192,-4.5192,-4.5192,-4.5192,-4.5192,-4.5192,-4.5192,-4.5192,-4.5033,-4.487,-4.4796,-4.4815,-4.4815,-4.4815,-4.4632,-4.4515,-4.4515,-4.4613,-4.464,-4.4515,-4.3681,-4.2033,-3.9402,-3.9369,-3.9401,-3.9401,-3.9427,-3.9401,-3.9324,-3.9245,-3.8532,-3.7217,-3.6244,-3.5206,-3.4148,-3.4124,-3.3947,-3.3698,-3.3698,-3.3577,-3.3334,-3.3298,-3.281,-3.1993,-3.1265,-3.046,-2.9597,-2.8681,-2.8375,-2.8312,-2.805,-2.7968,-2.794,-2.7719,-2.7736,-2.7783,-2.7689,-2.7701,-2.7701,-2.7701,-2.7824,-2.7917,-2.7917,-2.8032,-2.8126,-2.8126,-2.8154,-2.82,-2.8182,-2.8071,-2.7986,-2.7986,-2.7291,-2.6731,-2.6673,-2.588,-2.5514,-2.607,-2.5781,-2.5798,-2.6365,-2.6115,-2.5897,-2.5824,-2.5524,-2.524,-2.5068,-2.4751,-2.4385,-2.3952,-2.329,-2.2663,-2.2231,-2.1793,-2.1361,-2.0908,-2.0709,-2.0359,-1.9901,-1.985,-1.9552,-1.9153,-2.0117,-2.0228,-1.9841,-2.0807,-2.0978,-2.0529,-2.0248,-2.0053,-1.9933,-1.9539,-1.9341,-1.9348,-4.4919,-4.4919,-4.4919,-4.4919,-4.4919,-4.4919,-4.4919,-4.4919,-4.4919,-4.4919,-4.4895,-4.4815,-4.457,-4.4542,-4.4542,-4.4542,-4.4515,-4.4515,-4.4515,-4.4218,-4.4188,-4.4487,-4.1288,-3.937,-3.9147,-3.9129,-3.9129,-3.9129,-3.9183,-3.9183,-3.9129,-3.9007,-3.8089,-3.6537,-3.5855,-3.4971,-3.3998,-3.3868,-3.3671,-3.3422,-3.3422,-3.3304,-3.3086,-3.2784,-3.2321,-3.178,-3.1622,-3.0947,-3.0039,-2.9218,-2.8881,-2.8715,-2.7905,-2.7647,-2.7617,-2.7526,-2.7526,-2.7526,-2.7587,-2.7659,-2.7701,-2.7701,-2.7836,-2.7986,-2.7986,-2.8099,-2.8182,-2.8182,-2.82,-2.8182,-2.8126,-2.8042,-2.7986,-2.7917,-2.7672,-2.75,-2.7409,-2.7123,-2.6884,-2.6824,-2.6573,-2.6365,-2.6239,-2.6023,-2.5824,-2.5654,-2.541,-2.5201,-2.5005,-2.4701,-2.4193,-2.3553,-2.3127,-2.2723,-2.237,-2.1841,-2.1471,-2.118,-2.0772,-2.0472,-2.0182,-1.9914,-1.9656,-1.9429,-2.0173,-2.0389,-2.0287,-2.0919,-2.1169,-2.1094,-2.0593,-2.0259,-2.0042,-1.9671,-1.9473,-1.9348,-4.5074,-4.4659,-4.4659,-4.4659,-4.4659,-4.4659,-4.4659,-4.4659,-4.4659,-4.4659,-4.4659,-4.4605,-4.4515,-4.4325,-4.4188,-4.4188,-4.4188,-4.4188,-4.4188,-4.4067,-4.3155,-4.1222,-3.9826,-3.9101,-3.9101,-3.9101,-3.9073,-3.9054,-3.8939,-3.891,-3.8921,-3.8725,-3.7985,-3.6793,-3.6494,-3.543,-3.3868,-3.3815,-3.353,-3.3073,-3.3073,-3.2961,-3.2752,-3.2521,-3.2362,-3.2143,-3.152,-3.1052,-3.0618,-2.97,-2.9373,-2.9256,-2.8897,-2.8778,-2.876,-2.8743,-2.8743,-2.8743,-2.8808,-2.8621,-2.8378,-2.8364,-2.8486,-2.8482,-2.8052,-2.8014,-2.8071,-2.8071,-2.8071,-2.8071,-2.8042,-2.7911,-2.7806,-2.7777,-2.7604,-2.7452,-2.7324,-2.7135,-2.7128,-2.7419,-2.7244,-2.7214,-2.7495,-2.7323,-2.6951,-2.628,-2.6013,-2.5584,-2.4918,-2.4359,-2.3882,-2.3509,-2.3038,-2.2663,-2.2417,-2.1949,-2.1616,-2.1326,-2.097,-2.0723,-2.0422,-2.0169,-1.9914,-1.9666,-2.044,-2.0689,-2.0485,-2.119,-2.1371,-2.1158,-2.0733,-2.0464,-2.0259,-1.9933,-1.9671,-1.9505,-4.5009,-4.4354,-4.4383,-4.4487,-4.4515,-4.4515,-4.4515,-4.4515,-4.4515,-4.4515,-4.4411,-4.4354,-4.4354,-4.4128,-4.4005,-4.4005,-4.391,-4.3846,-4.3846,-4.3846,-4.2384,-3.9127,-3.8979,-3.8979,-3.8979,-3.8979,-3.895,-3.8899,-3.881,-3.8732,-3.8683,-3.8541,-3.8107,-3.7424,-3.7275,-3.5909,-3.3671,-3.3671,-3.3386,-3.2884,-3.2805,-3.2623,-3.2438,-3.2301,-3.2301,-3.2283,-3.1585,-3.1307,-3.1116,-3.0197,-2.9868,-2.9799,-2.9506,-2.9385,-2.942,-2.9403,-2.9403,-2.9489,-2.9765,-2.9642,-2.9356,-2.9161,-2.9201,-2.9114,-2.8388,-2.8282,-2.8269,-2.7975,-2.794,-2.794,-2.7882,-2.7748,-2.7729,-2.7914,-2.783,-2.7745,-2.7837,-2.7724,-2.7725,-2.8076,-2.7891,-2.7869,-2.8174,-2.801,-2.7615,-2.6889,-2.6406,-2.5652,-2.4611,-2.4009,-2.3581,-2.3319,-2.2904,-2.2586,-2.2324,-2.1996,-2.1664,-2.1423,-2.1131,-2.0885,-2.061,-2.0321,-2.0067,-1.9861,-2.0662,-2.0872,-2.067,-2.1386,-2.1561,-2.1296,-2.0862,-2.0604,-2.0475,-2.0074,-1.9802,-1.9539,-4.4705,-4.4023,-4.4097,-4.4458,-4.4515,-4.4515,-4.4515,-4.4515,-4.4515,-4.4515,-4.4188,-4.4005,-4.4005,-4.4005,-4.4005,-4.4005,-4.3682,-4.3497,-4.3497,-4.3497,-4.2066,-3.8854,-3.8707,-3.8707,-3.8707,-3.8707,-3.8707,-3.8707,-3.8822,-3.8713,-3.8382,-3.8382,-3.8382,-3.8382,-3.8054,-3.6255,-3.3447,-3.3447,-3.3232,-3.2852,-3.2525,-3.2267,-3.2126,-3.2126,-3.2126,-3.2073,-3.1948,-3.1765,-3.1514,-3.0739,-3.048,-3.025,-2.9484,-2.9228,-2.9228,-2.9228,-2.9228,-2.9399,-3.0165,-3.0553,-3.0542,-2.9952,-2.9892,-2.9793,-2.9088,-2.9017,-2.8877,-2.7994,-2.7806,-2.7777,-2.7617,-2.7604,-2.7805,-2.8412,-2.8435,-2.8628,-2.9196,-2.9068,-2.8884,-2.8811,-2.851,-2.824,-2.8027,-2.7843,-2.7655,-2.7406,-2.6529,-2.5404,-2.407,-2.3683,-2.3319,-2.2889,-2.2678,-2.2463,-2.2184,-2.1949,-2.1664,-2.1423,-2.1131,-2.0885,-2.061,-2.0321,-2.0067,-1.9861,-2.0662,-2.0929,-2.0855,-2.1448,-2.1698,-2.1635,-2.0926,-2.0669,-2.0669,-2.0074,-1.9802,-1.9539,-4.7627,-4.5584,-4.4036,-4.4128,-4.4158,-4.4158,-4.4158,-4.4158,-4.4158,-4.4158,-4.4067,-4.391,-4.3682,-4.3649,-4.3649,-4.3649,-4.3548,-4.3497,-4.3497,-4.3232,-4.165,-3.8485,-3.8564,-3.8707,-3.8707,-3.8488,-3.8358,-3.8358,-3.8405,-3.8419,-3.8382,-3.8138,-3.8122,-3.8274,-3.814,-3.729,-3.5935,-3.5935,-3.4606,-3.2525,-3.2126,-3.1873,-3.1688,-3.1688,-3.1709,-3.1728,-3.1524,-3.1449,-3.1338,-3.098,-3.0852,-3.0779,-3.0465,-3.0381,-3.0398,-3.0458,-3.0552,-3.0679,-3.0959,-3.1121,-3.1099,-3.0525,-3.0508,-3.0452,-2.9702,-2.9542,-2.9365,-2.8512,-2.8728,-2.8891,-2.8337,-2.8537,-2.8852,-2.9008,-2.9025,-2.8955,-2.9016,-2.8941,-2.8996,-2.9193,-2.9125,-2.9123,-2.9241,-2.9221,-2.8812,-2.7957,-2.6416,-2.4967,-2.3769,-2.3494,-2.3216,-2.2889,-2.2586,-2.2324,-2.2044,-2.1902,-2.1664,-2.1423,-2.1131,-2.0947,-2.0825,-2.0398,-2.0399,-2.0729,-2.089,-2.1194,-2.1482,-2.1663,-2.1698,-2.1635,-2.0926,-2.0669,-2.0669,-2.0074,-1.9802,-1.9539,-4.8678,-4.6052,-4.3814,-4.3814,-4.3814,-4.3814,-4.3814,-4.3814,-4.3814,-4.3814,-4.3814,-4.3716,-4.3513,-4.3339,-4.3268,-4.3268,-4.3268,-4.3196,-4.305,-4.2957,-4.147,-3.8337,-3.8223,-3.8322,-3.8519,-3.8307,-3.8106,-3.7951,-3.7951,-3.8002,-3.8086,-3.7721,-3.7594,-3.7739,-3.7739,-3.7354,-3.6713,-3.6713,-3.5667,-3.39,-3.3459,-3.2821,-3.2127,-3.2411,-3.2213,-3.1754,-3.1676,-3.141,-3.1117,-3.1015,-3.0935,-3.0935,-3.0912,-3.0912,-3.0912,-3.0952,-3.1032,-3.1112,-3.1117,-3.1213,-3.1227,-3.0865,-3.0967,-3.0993,-3.0266,-3.011,-2.9867,-2.9055,-2.9195,-2.9351,-2.8869,-2.9025,-2.9313,-2.9532,-2.951,-2.9519,-2.9673,-2.9592,-2.9605,-2.9798,-2.9667,-2.9623,-2.9805,-2.9633,-2.892,-2.7525,-2.6224,-2.4894,-2.3568,-2.326,-2.2994,-2.2723,-2.2449,-2.2184,-2.1949,-2.1746,-2.152,-2.1326,-2.1082,-2.0961,-2.0888,-2.0398,-2.0501,-2.1089,-2.1033,-2.128,-2.1761,-2.1723,-2.1698,-2.1635,-2.0926,-2.0669,-2.0669,-2.0074,-1.9802,-1.9539,-4.8344,-4.57,-4.3497,-4.3497,-4.3497,-4.3497,-4.3497,-4.3497,-4.3497,-4.3497,-4.3463,-4.3444,-4.3444,-4.3105,-4.2882,-4.2882,-4.2844,-4.2559,-4.2073,-4.2415,-4.1252,-3.8251,-3.7775,-3.7739,-3.8072,-3.8124,-3.7969,-3.7577,-3.754,-3.7558,-3.754,-3.7164,-3.6987,-3.6948,-3.6948,-3.669,-3.6301,-3.6259,-3.6216,-3.6131,-3.5694,-3.4522,-3.3148,-3.3792,-3.3253,-3.2144,-3.2077,-3.1582,-3.0914,-3.0848,-3.0831,-3.0831,-3.0831,-3.0831,-3.0831,-3.0831,-3.0831,-3.0871,-3.0871,-3.0895,-3.0975,-3.0975,-3.1235,-3.1333,-3.0702,-3.0587,-3.04,-2.9521,-2.9418,-2.9417,-2.9295,-2.9238,-2.9454,-3.0002,-3.0005,-3.0197,-3.0771,-3.0651,-3.0485,-3.0426,-3.007,-2.9793,-2.975,-2.9289,-2.8263,-2.6486,-2.6016,-2.5062,-2.3334,-2.2979,-2.2723,-2.237,-2.2231,-2.2044,-2.1746,-2.152,-2.1326,-2.118,-2.1033,-2.0961,-2.0838,-2.0398,-2.0527,-2.1166,-2.1045,-2.1305,-2.1893,-2.1747,-2.1698,-2.1635,-2.0926,-2.0669,-2.0604,-2.0074,-1.9747,-1.9539,-4.8306,-4.57,-4.3497,-4.3497,-4.3497,-4.3497,-4.3497,-4.3497,-4.3497,-4.3497,-4.3232,-4.3032,-4.3032,-4.2957,-4.2882,-4.2882,-4.2292,-4.1403,-4.0246,-4.0277,-3.948,-3.7573,-3.741,-3.7334,-3.7241,-3.7594,-3.7703,-3.7577,-3.7279,-3.7126,-3.7126,-3.7066,-3.6811,-3.6468,-3.6468,-3.6385,-3.6301,-3.5915,-3.5515,-3.5195,-3.5071,-3.4439,-3.3562,-3.3723,-3.3295,-3.2584,-3.1948,-3.152,-3.1203,-3.0556,-3.0359,-3.0359,-3.0359,-3.0359,-3.0359,-3.0359,-3.0417,-3.0501,-3.0501,-3.0568,-3.0609,-3.0609,-3.0675,-3.0788,-3.1026,-3.1053,-3.0832,-3.0031,-3.026,-3.0475,-2.9863,-3.0157,-3.0516,-3.0547,-3.054,-3.0508,-3.051,-3.0459,-3.03,-2.9984,-2.9837,-2.9677,-2.9305,-2.8811,-2.7874,-2.6214,-2.5755,-2.4815,-2.3097,-2.2678,-2.2417,-2.2231,-2.1996,-2.1746,-2.1471,-2.1423,-2.1277,-2.1033,-2.0974,-2.0775,-2.0575,-2.0347,-2.0679,-2.1526,-2.1151,-2.1596,-2.2445,-2.1901,-2.1698,-2.1635,-2.0926,-2.0669,-2.0604,-1.9933,-1.9615,-1.9473,-4.8032,-4.5403,-4.3232,-4.3232,-4.3232,-4.3232,-4.3232,-4.3232,-4.3232,-4.3232,-4.3032,-4.2806,-4.2613,-4.2631,-4.2534,-4.2292,-4.1995,-4.1276,-4.0035,-3.8848,-3.8121,-3.7866,-3.733,-3.6965,-3.6846,-3.693,-3.7108,-3.7317,-3.7087,-3.6891,-3.669,-3.669,-3.655,-3.6301,-3.6088,-3.5827,-3.5605,-3.5396,-3.5118,-3.4899,-3.4899,-3.4584,-3.4121,-3.4184,-3.374,-3.3007,-3.2599,-3.195,-3.1127,-3.0348,-3.006,-3.0,-3.0,-3.0,-3.0,-3.0,-3.0044,-3.013,-3.013,-3.0172,-3.0274,-3.0274,-3.0316,-3.0443,-3.0773,-3.0855,-3.0754,-3.0336,-3.053,-3.0657,-3.0249,-3.0442,-3.0626,-3.0568,-3.0443,-3.0316,-3.0231,-3.0119,-2.9989,-2.9798,-2.9605,-2.9289,-2.8811,-2.8429,-2.7524,-2.5938,-2.5426,-2.4473,-2.2841,-2.2463,-2.2231,-2.2044,-2.1746,-2.1568,-2.1423,-2.1166,-2.097,-2.0822,-2.0785,-2.0662,-2.0461,-2.0246,-2.0638,-2.1592,-2.12,-2.1541,-2.2432,-2.1886,-2.1635,-2.1434,-2.0926,-2.0593,-2.0324,-1.9802,-1.9407,-1.9142,-4.7464,-4.4983,-4.2882,-4.2882,-4.2844,-4.2824,-4.2824,-4.2824,-4.2824,-4.2824,-4.2824,-4.267,-4.2328,-4.2246,-4.2037,-4.156,-4.1595,-4.1188,-4.0176,-3.8093,-3.7271,-3.8099,-3.7202,-3.6661,-3.6643,-3.6402,-3.6468,-3.6891,-3.6891,-3.6673,-3.6301,-3.6301,-3.6259,-3.6174,-3.5783,-3.535,-3.4899,-3.4804,-3.4804,-3.4851,-3.4804,-3.4739,-3.4578,-3.4643,-3.4168,-3.3484,-3.3353,-3.2297,-3.092,-3.0275,-2.9939,-2.9766,-2.9766,-2.9766,-2.9766,-2.9766,-2.9766,-2.9766,-2.9766,-2.9826,-2.9886,-2.9886,-2.9973,-3.0103,-3.0274,-3.0384,-3.0384,-3.0384,-3.0384,-3.0384,-3.0384,-3.0342,-3.0274,-3.0274,-3.0103,-2.993,-2.993,-2.977,-2.9637,-2.9592,-2.9229,-2.8811,-2.8396,-2.8073,-2.7267,-2.561,-2.5077,-2.4187,-2.2626,-2.2231,-2.1949,-2.1746,-2.1471,-2.1326,-2.1264,-2.0809,-2.056,-2.051,-2.051,-2.0422,-2.036,-2.0194,-2.058,-2.1381,-2.1186,-2.1508,-2.2185,-2.1761,-2.1434,-2.1158,-2.0786,-2.0453,-2.0042,-1.966,-1.9208,-1.8741,-4.6338,-4.4379,-4.2882,-4.2882,-4.2631,-4.2369,-4.2369,-4.2369,-4.2369,-4.2369,-4.2369,-4.2369,-4.2287,-4.1952,-4.1604,-4.13,-4.0595,-3.9931,-3.9301,-3.8231,-3.7398,-3.6811,-3.6613,-3.6444,-3.636,-3.6301,-3.6343,-3.6385,-3.6385,-3.6385,-3.6301,-3.6301,-3.6088,-3.5711,-3.5622,-3.535,-3.4851,-3.4399,-3.4399,-3.4626,-3.4497,-3.4513,-3.4497,-3.4399,-3.4185,-3.3924,-3.3144,-3.1871,-3.0557,-3.0461,-3.0044,-2.9547,-2.9547,-2.9547,-2.9547,-2.9547,-2.9547,-2.9547,-2.9547,-2.9563,-2.9563,-2.9563,-2.9563,-2.9608,-2.9637,-2.9858,-3.0044,-2.9941,-2.9881,-2.9881,-2.9881,-2.9897,-2.987,-2.9814,-2.977,-2.9697,-2.9563,-2.9457,-2.9305,-2.9167,-2.8763,-2.8381,-2.8073,-2.7825,-2.6971,-2.5291,-2.4785,-2.3883,-2.2348,-2.1793,-2.1471,-2.1471,-2.118,-2.0934,-2.0709,-2.066,-2.0472,-2.0233,-2.0016,-1.9901,-1.9926,-2.0326,-2.0727,-2.1055,-2.1172,-2.1608,-2.2123,-2.1549,-2.1233,-2.1169,-2.0658,-2.0324,-2.0031,-1.9396,-1.8875,-1.8549,-4.5717,-4.3883,-4.2409,-4.2409,-4.2328,-4.2287,-4.2287,-4.2287,-4.2287,-4.2287,-4.2287,-4.2205,-4.1952,-4.1587,-4.1014,-4.007,-4.0,-3.9512,-3.8312,-3.7862,-3.7257,-3.637,-3.6233,-3.6148,-3.6019,-3.5975,-3.5915,-3.5915,-3.5915,-3.5915,-3.5915,-3.5915,-3.5783,-3.5577,-3.5008,-3.4723,-3.4643,-3.4399,-3.4349,-3.4546,-3.43,-3.425,-3.425,-3.405,-3.3949,-3.3751,-3.2894,-3.2024,-3.1288,-3.0924,-3.0291,-2.9643,-2.9643,-2.9422,-2.9122,-2.9122,-2.9122,-2.9122,-2.9122,-2.9137,-2.9167,-2.9167,-2.9213,-2.9275,-2.9167,-2.9289,-2.9425,-2.9621,-2.956,-2.9515,-2.9515,-2.947,-2.938,-2.9366,-2.9305,-2.9243,-2.9167,-2.9091,-2.8951,-2.8716,-2.8381,-2.8073,-2.781,-2.7473,-2.6621,-2.5082,-2.4554,-2.359,-2.2052,-2.1616,-2.1326,-2.1055,-2.0871,-2.0673,-2.0472,-2.0258,-2.0105,-1.9965,-1.9708,-1.9656,-1.9823,-2.0188,-2.0527,-2.0725,-2.1139,-2.1425,-2.1612,-2.1348,-2.1031,-2.0722,-2.0388,-1.9987,-1.9594,-1.9131,-1.8741,-1.8482]}]]